[[{"header":{"parameterUnit":"m.s-1","parameterCategory":1,"la1":30.6,"la2":29.2853,"lo1":-89.7004,"lo2":-87.6739,"dy":0.0162,"dx":0.0183,"nx":112,"ny":82,"refTime":"2025-01-11T06:00:00:Z","depth":0,"parameterNumber":2,"parameterNumberName":"U-component_of_WINDS"},"data":[0.0,0.0,0.0,0.0,0.0,0.0,0.0,0.0,0.0,0.0,0.0,0.0,0.0,0.0,0.0,0.0,0.0,0.0,0.0,0.0,0.0,0.0,0.0,0.0,0.0,0.0,0.0,0.0,0.0,0.0,0.0,0.0,0.0,0.0,0.0,0.0,0.0,0.0,0.0,0.0,0.0,0.0,0.0,0.0,0.0,0.0,0.0,0.0,0.0,0.0,0.0,0.0,0.0,0.0,0.0,0.0,0.0,0.0,0.0,0.0,0.0,0.0,0.0,0.0,0.0,0.0,0.0,0.0,0.0,0.0,0.0,0.0,0.0,0.0,0.0,0.0,0.0,0.0,0.0,0.0,0.0,0.0,0.0,0.0,0.0,0.0,0.0,0.0,0.0,0.0,0.0,3.4196,3.7076,3.8456,3.7715,3.6715,3.4472,3.0527,0.0,0.0,0.0,0.0,0.0,0.0,0.0,0.0,0.0,0.0,0.0,0.0,0.0,0.0,0.0,0.0,0.0,0.0,0.0,0.0,0.0,0.0,0.0,0.0,0.0,0.0,0.0,0.0,0.0,0.0,0.0,0.0,0.0,0.0,0.0,0.0,0.0,0.0,0.0,0.0,0.0,0.0,0.0,0.0,0.0,0.0,0.0,0.0,0.0,0.0,0.0,0.0,0.0,0.0,0.0,0.0,0.0,0.0,0.0,0.0,0.0,0.0,0.0,0.0,0.0,0.0,0.0,0.0,0.0,0.0,0.0,0.0,0.0,0.0,0.0,0.0,0.0,0.0,0.0,0.0,0.0,0.0,0.0,0.0,0.0,0.0,0.0,0.0,0.0,0.0,0.0,0.0,0.0,0.0,0.0,0.0,0.0,0.0,0.0,0.0,0.0,0.0,0.0,0.0,3.1089,3.7214,3.8888,3.9232,3.8491,3.6542,3.4163,3.1312,0.0,0.0,0.0,0.0,0.0,0.0,0.0,0.0,0.0,0.0,0.0,0.0,0.0,0.0,0.0,0.0,0.0,0.0,0.0,0.0,0.0,0.0,0.0,0.0,0.0,0.0,0.0,0.0,0.0,0.0,0.0,0.0,0.0,0.0,0.0,0.0,0.0,0.0,0.0,0.0,0.0,0.0,0.0,0.0,0.0,0.0,0.0,0.0,0.0,0.0,0.0,0.0,0.0,0.0,0.0,0.0,0.0,0.0,0.0,0.0,0.0,0.0,0.0,0.0,0.0,0.0,0.0,0.0,0.0,0.0,0.0,0.0,0.0,0.0,0.0,0.0,0.0,0.0,0.0,0.0,0.0,0.0,0.0,0.0,0.0,0.0,0.0,0.0,0.0,0.0,0.0,0.0,0.0,0.0,0.0,0.0,0.0,0.0,0.0,0.0,0.0,0.0,0.0,3.0451,3.3366,3.8618,3.9888,3.9871,3.8681,3.687,3.4524,3.1499,2.8795,0.0,0.0,0.0,0.0,0.0,0.0,0.0,0.0,0.0,0.0,0.0,0.0,0.0,0.0,0.0,0.0,0.0,0.0,0.0,0.0,0.0,0.0,0.0,0.0,0.0,0.0,0.0,0.0,0.0,0.0,0.0,0.0,0.0,0.0,0.0,0.0,0.0,0.0,0.0,0.0,0.0,0.0,0.0,0.0,0.0,0.0,0.0,0.0,0.0,0.0,0.0,0.0,0.0,0.0,0.0,0.0,0.0,0.0,0.0,0.0,0.0,0.0,0.0,0.0,0.0,0.0,0.0,0.0,0.0,0.0,0.0,0.0,0.0,0.0,0.0,0.0,0.0,0.0,0.0,0.0,0.0,0.0,0.0,0.0,0.0,0.0,0.0,0.0,0.0,0.0,0.0,0.0,0.0,0.0,0.0,0.0,0.0,0.0,0.0,0.0,0.0,0.0,3.3682,3.6036,3.9612,4.0526,4.0267,3.8715,3.7025,3.4696,3.1516,2.8284,0.0,0.0,0.0,0.0,0.0,0.0,0.0,0.0,0.0,0.0,0.0,0.0,0.0,0.0,0.0,0.0,0.0,0.0,0.0,0.0,0.0,0.0,0.0,0.0,0.0,0.0,0.0,0.0,0.0,0.0,0.0,0.0,0.0,0.0,0.0,0.0,0.0,0.0,0.0,0.0,0.0,0.0,0.0,0.0,0.0,0.0,0.0,0.0,0.0,0.0,0.0,0.0,0.0,0.0,0.0,0.0,0.0,0.0,0.0,0.0,0.0,0.0,0.0,0.0,0.0,0.0,0.0,0.0,0.0,0.0,0.0,0.0,0.0,0.0,0.0,0.0,0.0,0.0,0.0,0.0,0.0,0.0,0.0,0.0,0.0,0.0,0.0,0.0,0.0,0.0,0.0,0.0,0.0,0.0,0.0,0.0,0.0,0.0,0.0,0.0,0.0,0.0,3.4626,3.8163,4.0543,4.0853,4.0267,3.8715,3.6559,3.4146,3.1482,2.7826,0.0,0.0,0.0,0.0,0.0,0.0,0.0,0.0,0.0,0.0,0.0,0.0,0.0,0.0,0.0,0.0,0.0,0.0,0.0,0.0,0.0,0.0,0.0,0.0,0.0,0.0,0.0,0.0,0.0,0.0,0.0,0.0,0.0,0.0,0.0,0.0,0.0,0.0,0.0,0.0,0.0,0.0,0.0,0.0,0.0,0.0,0.0,0.0,0.0,0.0,0.0,0.0,0.0,0.0,0.0,0.0,0.0,0.0,0.0,0.0,0.0,0.0,0.0,0.0,0.0,0.0,0.0,0.0,0.0,0.0,0.0,0.0,0.0,0.0,0.0,0.0,0.0,0.0,0.0,0.0,0.0,0.0,0.0,0.0,0.0,0.0,0.0,0.0,0.0,0.0,0.0,0.0,0.0,0.0,0.0,0.0,0.0,0.0,0.0,0.0,0.0,0.0,3.4042,3.7214,0.0,4.0888,4.0389,3.9077,3.7092,3.453,3.132,0.0,0.0,0.0,0.0,0.0,0.0,0.0,0.0,0.0,0.0,0.0,0.0,0.0,0.0,0.0,0.0,0.0,0.0,0.0,0.0,0.0,0.0,0.0,0.0,0.0,0.0,0.0,0.0,0.0,0.0,0.0,0.0,0.0,0.0,0.0,0.0,0.0,0.0,0.0,0.0,0.0,0.0,0.0,0.0,0.0,0.0,0.0,0.0,0.0,0.0,0.0,0.0,0.0,0.0,0.0,0.0,0.0,0.0,0.0,0.0,0.0,0.0,0.0,0.0,0.0,0.0,0.0,0.0,0.0,0.0,0.0,0.0,0.0,0.0,0.0,0.0,0.0,0.0,0.0,0.0,0.0,0.0,0.0,0.0,0.0,0.0,0.0,0.0,0.0,0.0,0.0,0.0,0.0,0.0,0.0,0.0,0.0,0.0,0.0,0.0,0.0,0.0,3.0997,3.4161,3.7369,0.0,4.0888,4.0435,3.9291,3.7317,3.464,3.1167,0.0,0.0,0.0,0.0,0.0,0.0,0.0,0.0,0.0,0.0,0.0,0.0,0.0,0.0,0.0,0.0,0.0,0.0,0.0,0.0,0.0,0.0,0.0,0.0,0.0,0.0,0.0,0.0,0.0,0.0,0.0,0.0,0.0,0.0,0.0,0.0,0.0,0.0,0.0,0.0,0.0,0.0,0.0,0.0,0.0,0.0,0.0,0.0,0.0,0.0,0.0,0.0,0.0,0.0,0.0,0.0,0.0,0.0,0.0,0.0,0.0,0.0,0.0,0.0,0.0,0.0,0.0,0.0,0.0,0.0,0.0,0.0,0.0,0.0,0.0,0.0,0.0,0.0,0.0,0.0,0.0,0.0,0.0,0.0,0.0,0.0,0.0,0.0,0.0,0.0,0.0,0.0,0.0,0.0,0.0,0.0,0.0,0.0,0.0,0.0,0.0,0.0,3.0869,3.5463,3.9181,4.0763,4.0935,4.0435,3.9273,3.7071,3.4294,0.0,0.0,0.0,0.0,0.0,0.0,0.0,0.0,0.0,0.0,0.0,0.0,0.0,0.0,0.0,0.0,0.0,0.0,0.0,0.0,0.0,0.0,0.0,0.0,0.0,0.0,0.0,0.0,0.0,0.0,0.0,0.0,0.0,0.0,0.0,0.0,0.0,0.0,0.0,0.0,0.0,0.0,0.0,0.0,0.0,0.0,0.0,0.0,0.0,0.0,0.0,0.0,0.0,0.0,0.0,0.0,0.0,0.0,0.0,0.0,0.0,0.0,0.0,0.0,0.0,0.0,0.0,0.0,0.0,0.0,0.0,0.0,0.0,0.0,0.0,0.0,0.0,0.0,0.0,0.0,0.0,0.0,0.0,0.0,0.0,0.0,0.0,0.0,0.0,0.0,0.0,0.0,0.0,0.0,0.0,0.0,0.0,0.0,0.0,0.0,0.0,0.0,0.0,0.0,3.5666,3.9299,4.1126,4.1311,4.0876,3.9807,3.7782,3.4812,3.058,0.0,0.0,0.0,0.0,0.0,0.0,0.0,0.0,0.0,0.0,0.0,0.0,0.0,0.0,0.0,0.0,0.0,0.0,0.0,0.0,0.0,0.0,0.0,0.0,0.0,0.0,0.0,0.0,0.0,0.0,0.0,0.0,0.0,0.0,0.0,0.0,0.0,0.0,0.0,0.0,0.0,0.0,0.0,0.0,0.0,0.0,0.0,0.0,0.0,0.0,0.0,0.0,0.0,0.0,0.0,0.0,0.0,0.0,0.0,0.0,0.0,0.0,0.0,0.0,0.0,0.0,0.0,0.0,0.0,0.0,0.0,0.0,0.0,0.0,0.0,0.0,0.0,0.0,0.0,0.0,0.0,0.0,0.0,0.0,0.0,0.0,0.0,0.0,0.0,0.0,0.0,0.0,0.0,0.0,0.0,0.0,0.0,0.0,0.0,0.0,0.0,0.0,3.1864,3.6177,3.9754,4.1576,4.1778,4.1434,4.0664,3.8631,3.5527,3.1133,0.0,0.0,0.0,0.0,0.0,0.0,0.0,0.0,0.0,0.0,0.0,0.0,0.0,0.0,0.0,0.0,0.0,0.0,0.0,0.0,0.0,0.0,0.0,0.0,0.0,0.0,0.0,0.0,0.0,0.0,0.0,0.0,0.0,0.0,0.0,0.0,0.0,0.0,0.0,0.0,0.0,0.0,0.0,0.0,0.0,0.0,0.0,0.0,0.0,0.0,0.0,0.0,0.0,0.0,0.0,0.0,0.0,0.0,0.0,0.0,0.0,0.0,0.0,0.0,0.0,0.0,0.0,0.0,0.0,0.0,0.0,0.0,0.0,0.0,0.0,0.0,0.0,0.0,0.0,0.0,0.0,0.0,0.0,0.0,0.0,0.0,0.0,0.0,0.0,0.0,0.0,0.0,0.0,0.0,0.0,0.0,0.0,0.0,0.0,0.0,0.0,0.0,3.2315,3.6734,4.0374,4.1996,4.2198,4.2038,4.1631,3.9444,3.6396,3.2439,0.0,0.0,0.0,0.0,0.0,0.0,0.0,0.0,0.0,0.0,0.0,0.0,0.0,0.0,0.0,0.0,0.0,0.0,0.0,0.0,0.0,0.0,0.0,0.0,0.0,0.0,0.0,0.0,0.0,0.0,0.0,0.0,0.0,0.0,0.0,0.0,0.0,0.0,0.0,0.0,0.0,0.0,0.0,0.0,0.0,0.0,0.0,0.0,0.0,0.0,0.0,0.0,0.0,0.0,0.0,0.0,0.0,0.0,0.0,0.0,2.7536,0.0,0.0,0.0,0.0,0.0,0.0,0.0,0.0,0.0,0.0,0.0,0.0,0.0,0.0,0.0,0.0,0.0,0.0,0.0,0.0,0.0,0.0,0.0,0.0,0.0,0.0,0.0,0.0,0.0,0.0,0.0,0.0,0.0,0.0,0.0,0.0,0.0,0.0,0.0,0.0,0.0,3.2535,3.6566,3.9964,4.1855,4.2315,4.221,4.1499,3.9842,3.7341,3.3791,0.0,0.0,0.0,0.0,0.0,0.0,0.0,0.0,0.0,0.0,0.0,0.0,0.0,0.0,0.0,0.0,0.0,0.0,0.0,0.0,0.0,0.0,0.0,0.0,0.0,0.0,0.0,0.0,0.0,0.0,0.0,0.0,0.0,0.0,0.0,0.0,0.0,0.0,0.0,0.0,0.0,0.0,0.0,0.0,0.0,0.0,0.0,0.0,0.0,0.0,0.0,0.0,0.0,0.0,0.0,0.0,0.0,0.0,0.0,0.0,0.0,2.9022,0.0,0.0,0.0,0.0,0.0,0.0,0.0,0.0,0.0,0.0,0.0,0.0,0.0,0.0,0.0,0.0,0.0,0.0,0.0,0.0,0.0,0.0,0.0,0.0,0.0,0.0,0.0,0.0,0.0,0.0,0.0,0.0,0.0,0.0,0.0,0.0,0.0,0.0,0.0,0.0,3.323,3.7343,4.072,4.2551,4.2882,4.2812,4.2432,4.0888,3.8749,3.581,3.2038,0.0,0.0,0.0,0.0,0.0,0.0,0.0,0.0,0.0,0.0,0.0,0.0,0.0,0.0,0.0,0.0,0.0,0.0,0.0,0.0,0.0,0.0,0.0,0.0,0.0,0.0,0.0,0.0,0.0,0.0,0.0,0.0,0.0,0.0,0.0,0.0,0.0,0.0,0.0,0.0,0.0,0.0,0.0,0.0,0.0,0.0,0.0,0.0,0.0,0.0,0.0,0.0,0.0,3.4636,3.5169,3.5776,3.5971,3.6468,3.7022,3.4104,3.2935,3.2879,0.0,0.0,0.0,0.0,0.0,0.0,0.0,0.0,0.0,0.0,0.0,0.0,0.0,0.0,0.0,0.0,0.0,0.0,0.0,0.0,0.0,0.0,0.0,0.0,0.0,3.5461,3.4992,0.0,0.0,0.0,0.0,0.0,0.0,0.0,0.0,0.0,0.0,0.0,0.0,3.4293,3.8452,4.1729,4.321,4.3358,4.3376,4.3444,4.2001,4.0211,3.812,3.4772,3.1547,0.0,0.0,0.0,0.0,0.0,0.0,0.0,0.0,0.0,0.0,0.0,0.0,0.0,0.0,0.0,0.0,0.0,0.0,0.0,0.0,0.0,0.0,0.0,0.0,0.0,0.0,0.0,0.0,0.0,0.0,0.0,0.0,2.3694,2.4194,0.0,0.0,0.0,0.0,0.0,0.0,0.0,0.0,0.0,0.0,0.0,0.0,0.0,3.2177,3.2914,3.4887,3.595,3.6148,3.7861,3.8739,3.8831,3.9481,3.986,3.995,3.9481,0.0,3.496,3.3841,0.0,0.0,0.0,0.0,0.0,0.0,0.0,0.0,0.0,0.0,0.0,0.0,0.0,0.0,0.0,0.0,0.0,0.0,0.0,0.0,0.0,0.0,3.7893,3.8034,3.7853,3.7528,0.0,3.3569,3.0313,3.0,2.8136,0.0,0.0,0.0,0.0,0.0,0.0,0.0,3.5773,3.9265,4.1849,4.2718,4.305,4.3251,4.3251,4.2393,4.146,4.0504,3.7332,3.4914,3.3581,2.9232,0.0,0.0,0.0,0.0,0.0,0.0,0.0,0.0,0.0,0.0,0.0,0.0,0.0,0.0,0.0,0.0,0.0,0.0,0.0,0.0,0.0,0.0,0.0,0.0,0.0,0.0,0.0,0.0,0.0,2.3687,2.5497,2.5913,2.5653,2.5146,0.0,0.0,0.0,0.0,0.0,0.0,0.0,0.0,0.0,3.2266,3.3863,3.5365,3.6773,3.77,3.8597,3.9446,4.0275,4.0926,4.1361,4.1705,4.185,4.185,4.185,4.0727,3.8814,3.6964,3.488,3.2714,0.0,0.0,0.0,0.0,3.113,3.1455,3.3495,3.4163,0.0,0.0,0.0,0.0,0.0,0.0,0.0,0.0,0.0,0.0,0.0,0.0,0.0,4.0003,4.0182,4.0251,4.0425,3.794,3.5178,0.0,3.1655,2.9745,2.8064,0.0,0.0,0.0,0.0,0.0,3.7138,4.009,4.2285,4.2996,4.316,4.3251,4.3305,4.2922,4.2391,4.1724,3.9507,3.7577,3.6225,3.2466,2.9283,0.0,0.0,0.0,0.0,0.0,0.0,0.0,0.0,0.0,0.0,0.0,0.0,0.0,0.0,0.0,0.0,0.0,0.0,0.0,0.0,0.0,0.0,0.0,0.0,0.0,0.0,0.0,0.0,2.5737,2.7214,2.7251,2.7375,2.6883,0.0,0.0,0.0,0.0,0.0,0.0,3.1422,3.3209,3.4586,3.5463,3.6791,3.8276,3.9806,4.013,4.0872,4.2013,4.2013,4.2321,4.2882,4.2882,4.2882,4.2882,4.2882,4.2556,4.1813,3.9446,3.7576,3.6111,3.5135,3.4199,3.3493,3.4744,3.49,3.4881,3.779,3.8492,3.8023,3.7383,0.0,3.5876,3.2692,0.0,0.0,0.0,0.0,3.5872,3.7895,3.9272,4.0399,4.1363,4.1884,4.2159,4.225,4.1034,3.9278,0.0,3.5123,3.3279,3.1231,0.0,0.0,0.0,0.0,3.7335,3.8769,4.1071,4.2803,4.3356,4.3322,4.3322,4.3411,4.3322,4.3101,4.2653,4.1295,3.9882,3.8469,3.5623,3.2577,2.9426,0.0,0.0,0.0,0.0,0.0,0.0,0.0,0.0,0.0,0.0,0.0,0.0,0.0,0.0,0.0,0.0,0.0,0.0,0.0,0.0,0.0,0.0,0.0,0.0,0.0,0.0,0.0,0.0,0.0,2.782,3.0068,0.0,0.0,0.0,0.0,3.0401,3.1715,3.3339,3.5105,3.5953,3.697,3.834,3.9625,4.049,4.0895,4.2114,4.2755,4.2828,4.2828,4.2846,4.2882,4.2882,4.2882,4.2882,4.2882,4.2864,4.2701,4.1071,3.9571,3.8264,3.7445,3.6752,3.6289,3.6938,3.7585,3.8356,3.9121,3.9351,3.9585,4.1158,4.0488,3.8671,3.6759,3.5832,0.0,0.0,3.7567,3.879,4.0646,4.1487,4.196,4.2327,4.2483,4.2673,4.2975,4.1872,4.0527,0.0,3.8095,3.6885,3.6562,0.0,3.5639,3.6481,3.8107,3.9644,4.0789,4.2415,4.3442,4.3479,4.3497,4.3497,4.3479,4.3497,4.3461,4.3424,4.2653,4.1809,4.0965,3.8566,3.5836,3.2809,2.9594,0.0,0.0,0.0,0.0,0.0,0.0,0.0,0.0,0.0,0.0,0.0,0.0,0.0,0.0,0.0,0.0,0.0,0.0,0.0,0.0,0.0,0.0,0.0,0.0,0.0,0.0,0.0,0.0,3.0262,3.1692,0.0,3.1008,3.2362,3.3313,3.3313,3.5001,3.6238,3.6627,3.8404,3.9494,3.9746,4.124,4.2083,4.224,4.2662,4.2882,4.2882,4.2882,4.2882,4.2882,4.2882,4.2882,4.2882,4.2882,4.2882,4.2846,4.2285,4.1449,4.0543,4.0255,3.9695,3.9115,3.9857,4.0327,4.0651,4.1415,4.1724,4.1886,4.2064,4.1298,4.0159,3.9464,3.8902,3.8756,3.9877,4.0065,4.0197,4.1622,4.2124,4.2196,4.1926,4.232,4.2729,4.2573,4.234,4.2134,4.1905,4.0453,3.8932,3.7866,3.8485,3.8806,3.7907,3.975,4.1415,4.1827,4.2818,4.3497,4.3446,4.3446,4.3446,4.3446,4.3446,4.3226,4.2763,4.1974,4.1167,4.0359,3.8775,3.6562,3.3763,3.1835,2.8539,0.0,0.0,0.0,0.0,0.0,0.0,0.0,0.0,0.0,0.0,0.0,0.0,0.0,0.0,0.0,0.0,0.0,0.0,0.0,0.0,0.0,0.0,0.0,0.0,0.0,0.0,3.1369,3.1955,3.3634,3.4326,3.3378,3.4834,3.5844,3.5844,3.7654,3.8684,3.8498,4.0352,4.1209,4.077,4.2011,4.2595,4.244,4.2847,4.2972,4.2813,4.3064,4.3288,4.3426,4.3426,4.3523,4.3697,4.3697,4.3697,4.3697,4.3697,4.3389,4.2864,4.2321,4.1759,4.1324,4.1848,4.2047,4.2082,4.2681,4.2994,4.3069,4.245,4.1887,4.1414,4.1215,4.1011,4.1043,4.1903,4.1764,4.152,4.2154,4.2458,4.2418,4.1888,4.232,4.2806,4.2498,4.2729,4.2994,4.3067,4.2141,4.0981,3.9982,4.0883,4.135,4.0136,4.1494,4.2674,4.2708,4.3133,4.3446,4.3376,4.3394,4.3394,4.3394,4.3173,4.2823,4.2341,4.1295,4.0341,3.9533,3.8081,3.6287,3.4092,3.2066,2.9327,2.5817,0.0,0.0,0.0,0.0,0.0,0.0,0.0,0.0,0.0,0.0,0.0,0.0,0.0,0.0,0.0,0.0,0.0,0.0,0.0,0.0,0.0,0.0,0.0,2.785,3.0933,3.3038,3.2784,3.5807,3.6983,3.4611,3.6578,3.7973,3.7973,3.9482,4.0507,4.0767,4.1692,4.2026,4.1561,4.2002,4.2044,4.1596,4.2746,4.3075,4.2647,4.3384,4.4011,4.4535,4.4492,4.4767,4.5291,4.5291,4.5291,4.5291,4.5291,4.5291,4.5146,4.357,4.2953,4.2874,4.2874,4.2778,4.2681,4.2817,4.3027,4.3084,4.2609,4.2516,4.248,4.205,4.2133,4.2396,4.2418,4.2634,4.2768,4.2338,4.2555,4.2788,4.2338,4.2555,4.29,4.2882,4.2994,4.3104,4.3104,4.3104,4.3141,4.3178,4.3214,4.3251,4.3376,4.3394,0.0,4.3497,4.3446,4.3394,4.3394,4.3394,4.3394,4.3394,4.2748,4.2286,4.2231,4.0744,3.9496,3.8689,3.6851,3.5304,3.4112,3.0429,2.8456,2.8338,0.0,0.0,0.0,0.0,0.0,0.0,0.0,0.0,0.0,0.0,0.0,0.0,0.0,0.0,0.0,0.0,0.0,0.0,0.0,0.0,0.0,0.0,3.026,3.026,3.2397,3.4555,3.6092,3.7711,3.865,3.85,3.9412,3.9836,3.9528,4.0246,4.0578,4.0303,4.1725,4.2502,4.2369,4.3314,4.3807,4.3659,4.3633,4.3739,4.3997,4.3768,4.4192,4.507,4.4682,4.4767,4.5291,4.5291,4.5291,4.5291,4.5291,4.5291,4.5254,4.4802,4.4639,4.4617,4.4617,4.452,4.4421,4.4657,4.4753,4.4587,4.3969,4.3808,4.3643,4.2853,4.2458,4.2338,4.2673,4.2577,4.2458,4.2634,4.2806,4.2788,4.2338,4.2555,4.2806,4.2458,4.2691,4.2938,4.2938,4.2938,4.3031,4.316,4.3214,4.3196,4.3251,4.334,0.0,4.3411,4.3428,4.3463,4.3463,4.3463,4.3463,4.3463,4.2763,4.1776,0.0,3.9575,3.864,3.7802,3.7278,3.676,3.6176,3.3119,3.1497,0.0,0.0,0.0,0.0,0.0,0.0,0.0,0.0,0.0,0.0,0.0,0.0,0.0,0.0,0.0,0.0,0.0,0.0,0.0,0.0,0.0,0.0,3.0606,3.2812,3.3694,3.4944,3.6316,3.79,3.8857,3.9581,4.0037,4.0353,4.0385,4.0121,4.0531,4.0814,4.0895,4.2044,4.2934,4.351,4.3952,4.4227,4.4227,4.419,4.4178,4.4034,4.4251,4.4699,4.5293,4.5184,4.5472,0.0,4.6205,4.6163,4.5978,4.6205,4.6163,0.0,0.0,0.0,0.0,0.0,4.5147,4.5147,4.5327,4.5367,4.5218,4.4844,4.4603,4.4335,4.4002,4.3584,4.3281,4.3761,4.3722,4.3544,4.3839,4.3643,4.3351,4.3041,4.2964,4.2844,4.2537,4.2711,4.2882,4.2882,4.2882,0.0,4.305,4.3087,4.3087,4.3142,4.3233,4.3269,4.3305,4.3358,4.3375,4.3375,4.3428,4.3481,4.3481,4.2729,0.0,0.0,0.0,3.7967,3.6298,3.6912,0.0,0.0,0.0,0.0,0.0,0.0,0.0,0.0,3.1637,3.1291,0.0,0.0,0.0,0.0,0.0,0.0,0.0,0.0,0.0,0.0,0.0,0.0,0.0,0.0,0.0,0.0,3.2623,3.5102,3.7317,3.7784,3.8135,3.8707,3.9446,3.9952,4.002,4.0121,4.0155,4.0189,4.0651,4.1219,4.1977,0.0,0.0,0.0,0.0,4.3968,4.3968,4.4554,4.4456,4.3647,4.471,4.5303,4.5494,4.59,4.6406,4.6999,4.7407,4.7363,4.7017,4.745,4.7363,4.6874,4.5941,4.554,4.5454,4.5353,4.5395,4.5454,4.5495,0.0,0.0,4.5472,4.5155,4.4886,4.5188,4.5029,4.476,4.517,4.5291,4.5291,4.5291,4.4765,4.424,4.424,4.3679,4.3136,4.3045,4.3027,4.3009,4.29,4.2882,4.2882,4.2882,4.2882,4.2938,4.3049,4.3104,4.3123,4.3178,4.3214,4.3214,4.3214,0.0,0.0,4.3429,4.2748,4.2268,4.2176,4.0065,3.7723,3.5302,3.6671,3.6997,3.5975,3.7343,3.842,3.9049,3.9209,3.9244,3.9172,3.5057,3.4367,0.0,0.0,0.0,0.0,0.0,0.0,0.0,0.0,0.0,0.0,0.0,0.0,0.0,0.0,0.0,3.294,3.5484,3.7458,3.8404,3.8992,3.9412,3.9614,3.9817,3.9901,3.9781,4.0137,4.0492,4.0813,4.1289,4.1764,4.2226,4.3271,4.4021,4.426,4.4749,4.5027,4.5027,4.4761,4.4722,4.4938,0.0,0.0,4.6566,4.6262,4.6613,4.7511,4.7214,4.7258,4.7511,4.7214,4.7196,4.7371,4.7271,4.7246,4.7223,4.7306,4.7205,4.7102,4.7306,4.7246,4.6994,4.6427,4.6228,4.6019,4.545,4.5251,0.0,4.5251,4.5291,4.5291,4.5291,4.5182,4.5073,4.5073,4.4947,4.4657,4.4005,4.386,4.3679,4.3009,4.2882,4.2882,4.2882,4.2882,4.29,4.2938,4.3049,4.3104,4.3141,4.3178,4.3251,4.334,4.3376,4.3411,4.3463,4.2763,4.1996,4.1302,4.0221,3.9378,3.8884,3.9786,4.0193,3.9977,4.0288,4.0492,4.0656,4.1633,4.2119,4.2065,3.9575,3.8702,0.0,0.0,0.0,0.0,0.0,0.0,0.0,0.0,0.0,0.0,0.0,2.67,2.8919,0.0,3.3226,3.5509,3.7163,3.8405,3.9143,3.946,3.9642,3.9781,3.9746,3.988,4.0285,4.0561,4.0968,4.1572,4.1833,4.2243,4.3113,4.3682,4.4303,4.4939,4.5061,4.5108,4.5197,4.4981,4.4889,4.4944,4.4944,4.532,4.6098,4.6098,4.6406,4.6908,4.7196,4.7151,4.6908,4.6817,4.7062,4.7363,4.7169,4.7258,4.7511,4.7572,4.7572,4.7511,4.7657,4.7657,4.7542,4.7187,4.7102,4.7029,4.6631,4.6504,4.6504,4.6504,4.6504,4.6504,4.6504,4.6196,4.5906,4.5906,4.5599,4.5182,4.4784,4.4693,4.4458,4.3661,4.3498,4.3371,4.2955,4.2882,4.2882,4.2882,4.2938,4.2994,4.2994,4.3086,4.316,4.3251,4.3359,4.3411,4.3446,4.3096,4.2543,4.1702,4.128,4.1079,4.1093,4.1864,4.2488,4.291,4.3314,4.3497,4.3497,4.4108,4.4381,4.4363,4.3377,4.2675,0.0,0.0,0.0,0.0,0.0,0.0,0.0,0.0,2.4791,2.5699,2.7508,2.9524,3.1475,3.3686,3.5743,3.7517,3.8321,3.8956,3.9697,3.9642,3.959,3.9677,3.959,3.9874,4.0858,4.0925,4.1348,4.2331,4.2362,4.279,4.3987,4.3897,4.4314,4.5338,4.5018,4.4855,4.4947,4.4964,4.4889,4.457,4.4981,4.5267,4.5459,4.59,4.6196,4.6454,4.7302,4.7151,4.6262,4.6566,4.6863,4.7107,4.666,4.6753,4.7107,4.7196,4.7345,4.7511,4.7554,4.7615,4.7717,4.7717,4.7717,4.7717,4.7717,4.7717,4.7717,4.7717,4.7717,4.7717,4.7717,4.7228,4.6739,4.6739,4.625,4.5725,4.5562,4.5526,4.5291,4.4476,4.4331,4.4132,4.3462,4.3353,4.3244,4.2936,4.2882,4.2955,4.3099,4.3229,4.3358,4.3559,4.3707,4.3816,4.3852,4.394,4.3681,4.3039,4.3002,4.3002,4.3002,4.3608,4.4268,4.4929,4.5571,4.5902,4.5902,4.6067,4.6214,4.6379,4.6544,4.613,2.1257,2.1297,0.0,2.4381,2.4634,2.5042,0.0,0.0,2.8275,3.0179,3.1424,3.2701,3.4497,3.632,3.781,3.8685,3.9429,3.9935,4.002,3.9935,3.9849,3.9729,3.959,3.9784,4.0554,4.0658,4.1297,4.2814,4.2914,4.325,4.4044,4.4078,4.4112,4.4293,4.435,4.435,4.4406,4.4553,4.4626,4.4587,4.4682,4.5159,4.6,4.6049,4.6613,4.7511,4.7657,4.7363,4.6799,4.6707,4.666,4.6595,4.6501,4.6454,4.6454,4.6728,4.7142,4.7511,4.7759,4.7777,4.7717,4.7717,4.7717,4.7717,4.7717,4.7717,4.7717,4.7717,4.7717,4.7717,4.7717,4.7645,4.7572,4.7572,4.7518,4.7246,4.6522,4.6377,4.6124,4.5327,4.5164,4.5146,4.5037,4.5037,4.4548,4.3118,4.2882,4.3154,4.386,4.3969,4.4336,4.514,4.5269,4.5346,4.5535,4.5608,4.559,4.5498,4.5498,4.5498,4.5498,4.5571,4.5663,4.5755,4.5847,4.5902,4.5902,4.6636,4.7352,4.8049,4.882,4.8726,2.332,0.0,0.0,0.0,2.6551,2.7342,2.8537,2.935,3.0335,3.222,3.365,3.5127,3.6898,3.8301,3.9276,0.0,3.9834,3.9986,3.9986,3.9884,3.9781,3.9729,3.959,4.0004,4.1247,4.1271,4.1927,4.3625,4.3628,4.3681,4.3981,4.3864,4.3805,4.3805,4.3848,4.3964,4.4056,4.4172,4.4229,4.4344,4.4686,4.5267,4.6017,4.6406,4.6954,4.7657,4.7363,4.7258,4.7258,4.7214,4.7107,4.6954,4.6613,4.666,4.6908,4.7026,4.7266,4.7511,4.7615,4.7657,4.7717,4.7717,4.7717,4.7717,4.7717,4.7717,4.7717,4.7717,4.7717,4.7717,4.7717,4.7717,4.7717,4.7717,4.7717,4.7627,4.7283,4.721,4.6975,4.616,4.5997,4.5852,4.5381,4.5291,4.5073,4.4385,4.4295,4.4421,4.4747,4.4802,4.4968,4.5449,4.5485,4.5563,4.5678,4.5697,4.5772,4.5847,4.5847,4.6048,4.6599,4.6617,4.6819,4.7297,4.7297,4.7553,4.8049,4.8379,4.8967,4.9774,5.0065,5.0244,2.4489,0.0,0.0,2.7235,2.8336,2.9243,2.9842,3.0765,3.2024,3.3822,3.5348,3.6804,3.8421,3.948,0.0,4.007,4.0037,3.9952,3.9952,3.9884,3.9781,3.9781,3.9694,4.0144,4.1489,4.1698,4.2351,4.3849,4.398,4.3998,4.3956,4.3763,4.3687,4.3687,4.3747,4.3822,4.3939,4.4073,4.4114,4.4286,4.4855,4.5355,4.5749,4.6548,4.7107,4.7407,4.7214,4.7169,4.7258,4.7062,4.6954,4.6817,4.6406,4.6613,4.7169,4.7363,4.7468,4.7572,4.7572,4.7657,4.7759,4.7717,4.7717,4.7717,4.7717,4.7717,4.7717,4.7717,4.7717,4.7717,4.7717,4.7717,4.7717,4.7717,4.7717,4.7717,4.7717,4.7717,4.7536,4.6957,4.683,4.6649,4.6069,4.6001,4.6023,4.6023,4.6103,4.599,4.5653,4.5816,4.6019,4.6118,4.6157,4.6197,4.6236,4.6257,4.6278,4.6393,4.6411,4.6705,4.7311,4.7329,4.7714,4.854,4.8559,4.898,4.9823,4.9823,5.0244,5.1032,5.0931,5.131,0.0,0.0,2.5687,2.8979,2.9853,3.0421,3.2481,3.2983,3.3551,3.5497,3.6539,3.7469,3.8754,3.9597,4.007,4.007,4.0087,4.007,4.007,4.007,4.0037,3.9901,3.9901,4.0187,0.0,4.156,4.2189,4.2959,4.3776,4.4253,4.4097,4.3939,4.3898,4.3898,4.3998,4.4097,4.4097,4.44,4.457,4.457,4.5089,4.5303,4.5355,4.6406,4.6863,4.6771,4.7407,4.7302,4.666,4.6,4.5749,4.5767,4.5699,4.6098,4.6817,4.745,4.7699,4.7699,4.7699,4.7759,4.7861,4.7759,4.7717,4.7717,4.7717,4.7717,4.7717,4.7717,4.7717,4.7717,4.7717,4.7717,4.7717,4.7717,4.7717,4.7717,4.7717,4.7717,4.7699,4.7681,4.7663,4.7663,4.7645,4.7775,4.7919,4.7919,4.8078,4.7803,4.6599,4.7156,4.7645,4.7627,4.7747,4.7847,4.7829,4.7915,4.7919,4.7919,4.7919,4.7937,4.7955,4.7955,4.8338,4.9159,4.9159,4.956,5.038,5.038,5.08,5.1566,5.1566,5.2003,0.0,0.0,2.7879,2.9502,3.0989,3.219,3.2935,3.3437,3.4169,3.5712,3.6207,3.6753,3.8029,3.887,3.936,3.936,3.9766,4.007,4.007,4.007,4.007,4.0037,3.9935,0.0,0.0,0.0,0.0,4.3021,4.3323,4.3635,4.408,4.3939,4.3956,4.4056,4.3998,4.3998,4.4097,4.4212,4.4286,4.4286,4.4855,4.5355,4.5716,4.6548,4.6817,4.6753,4.7407,4.7554,4.7363,4.7107,4.7017,4.7017,4.7017,4.7151,4.7407,4.7615,4.7759,4.7819,4.7717,4.7717,4.7759,4.7699,4.7717,4.7717,4.7717,4.7717,4.7717,4.7717,4.7717,4.7717,4.7717,4.7717,4.7717,4.7717,4.7717,4.7717,4.7717,4.7717,4.7717,4.7717,4.7717,4.7741,4.7888,4.7951,4.7849,4.7476,4.7803,4.7922,4.7547,4.762,4.7717,4.7717,4.7759,4.7759,4.7759,4.7783,4.8042,4.867,4.8748,4.8985,4.9578,4.9596,4.9724,4.9997,5.0016,5.0399,5.1201,5.1201,5.162,5.2404,5.2298,5.2672,0.0,2.7281,2.9146,3.0652,3.206,3.3145,3.3388,3.3876,3.4529,3.543,3.5675,3.6016,3.6899,3.7483,3.7973,3.8514,3.8988,3.9613,4.051,4.0391,4.0373,4.0745,4.0646,4.0493,0.0,0.0,0.0,4.2745,4.3261,4.3765,4.4253,4.4212,4.4196,4.4293,4.4253,4.4196,4.4293,4.427,4.4367,4.4558,4.4872,4.5267,4.5648,4.6406,4.6613,4.6454,4.7107,4.7258,4.6999,4.7062,4.7017,4.7017,4.7258,4.7511,4.7717,4.7717,4.7759,4.7819,4.7717,4.7717,4.7759,4.7717,4.7717,4.7717,4.7717,4.7717,4.7699,4.7783,4.7824,4.7806,4.7888,4.7929,4.7929,4.7929,4.7929,4.7888,4.7806,4.7824,4.7783,4.7699,4.7741,4.7847,4.7992,4.8111,4.8122,4.7795,4.7937,4.7962,4.7609,4.7643,4.7741,4.7824,4.7741,4.7868,4.8224,4.8176,4.852,4.9404,4.9458,4.9737,5.0271,5.0289,5.0435,5.0726,5.0726,5.1126,5.1908,5.1908,5.2326,5.3126,5.3017,5.3289,2.6424,2.8116,2.9664,3.24,3.3113,3.3307,3.3955,3.4267,3.4496,3.4785,3.5005,3.5266,0.0,0.0,3.6146,3.7618,3.7939,3.8848,4.1271,4.0996,4.0857,0.0,0.0,0.0,0.0,0.0,0.0,4.2092,0.0,4.4536,4.4626,4.4686,4.4708,4.4708,4.4708,4.4708,4.4708,4.4648,4.4852,4.525,4.5106,4.5052,4.5161,4.6049,4.631,4.595,4.6595,4.6454,4.5699,4.59,4.585,4.58,4.6501,4.7151,4.7717,4.7717,4.7717,4.7717,4.7717,4.7759,4.7861,4.7759,4.7717,4.7699,4.7699,4.7717,4.7741,4.7951,4.8032,4.8072,4.8267,4.8306,4.8306,4.8306,4.8306,4.8267,4.8072,4.8032,4.797,4.7837,4.7979,4.816,4.816,4.8419,4.8678,4.8874,4.8569,4.7954,4.701,4.7352,4.7783,4.8046,4.7879,4.8164,4.9195,4.9077,4.9311,5.009,5.0144,5.0162,5.0198,5.0198,5.056,5.1339,5.1357,5.1756,5.2552,5.2552,5.2951,5.3693,5.3748,5.3766,2.7561,2.9913,3.2174,3.2902,3.3469,3.389,3.4052,3.3893,3.3775,3.4011,3.3839,3.3661,0.0,0.0,0.0,3.7234,3.8717,0.0,4.1722,4.1209,0.0,0.0,0.0,4.0776,4.0776,4.1409,0.0,0.0,4.2986,4.4016,4.4703,4.4631,4.4669,4.4906,4.4814,4.4814,4.4906,4.5177,4.5266,4.5069,4.5424,4.5528,4.5493,4.6196,4.6371,4.6174,4.6671,4.6501,4.59,4.6406,4.6566,4.6501,4.7196,4.7554,4.7717,4.7717,4.7717,4.7717,4.7717,4.7717,4.7759,4.7717,4.7717,4.7741,4.7888,4.7911,4.797,4.8151,4.8229,4.8229,4.8267,4.8306,4.8306,4.8306,4.8306,4.8267,4.8229,4.8229,4.8412,4.8919,4.974,5.0319,5.0319,4.9492,4.882,4.8909,4.855,4.8212,4.7954,4.7904,4.8188,4.8794,4.8844,4.9149,5.0016,4.9894,5.0126,5.0923,5.0977,5.1249,5.1846,5.1882,5.1973,5.219,5.219,5.2589,5.3385,5.3385,5.3494,5.3711,5.4309,5.4599,2.9422,3.1451,3.3161,3.3551,3.3908,3.4038,3.3437,3.3188,3.2961,3.2514,3.2293,0.0,0.0,0.0,0.0,0.0,0.0,0.0,4.1881,4.1401,4.1164,0.0,4.1515,0.0,4.1177,4.1714,4.2091,0.0,4.3044,4.3841,4.4374,4.4736,4.4998,4.5177,4.5069,4.5177,4.5407,4.5597,4.5734,4.5765,4.6178,4.6305,4.6121,4.6801,4.6999,4.6811,0.0,4.6882,4.6401,4.6855,4.6873,4.6771,4.745,4.7717,4.7717,4.7717,4.7717,4.7699,4.7824,4.7806,4.7806,4.7806,4.7888,4.797,4.8111,4.8151,4.819,4.8382,4.842,4.8439,4.8532,4.8569,4.8661,4.9012,4.9086,4.9159,4.9452,4.9544,4.9673,5.0115,5.0709,5.1118,5.1232,5.0545,5.0005,5.0005,4.9732,4.9544,4.9544,4.9252,4.9295,4.9955,4.9929,5.0236,5.1005,5.0885,5.1074,5.1774,5.1828,5.219,5.2987,5.3023,5.3186,5.3548,5.3548,5.3603,5.3693,5.4055,5.4237,5.4255,5.5015,5.5377,3.1575,3.2772,3.3519,3.4203,3.4268,3.3892,3.2613,3.2352,3.2077,3.0958,0.0,0.0,3.1173,0.0,3.4233,3.5822,0.0,3.9444,4.1903,4.1608,4.1418,4.2258,4.2068,4.1871,4.1871,4.2191,4.2467,4.2467,4.3202,4.3715,4.392,4.4835,4.5441,4.5529,4.5529,4.57,4.6098,4.613,4.6336,4.6757,4.7096,4.714,4.691,4.7601,4.7761,4.7542,0.0,0.0,4.6963,4.7176,4.7062,4.6827,4.7536,4.7783,4.7783,4.7783,4.7783,4.7824,4.7951,4.8072,4.8072,4.8032,4.8151,4.8306,4.8344,4.8418,4.8529,4.8753,4.8864,4.8992,4.9189,4.9243,4.941,5.0116,5.0283,5.0433,5.1027,5.123,5.1304,5.1304,5.1397,5.1509,5.1677,5.1639,5.1565,5.1565,5.1398,5.1266,5.1323,5.0842,5.0684,5.1209,5.1111,5.132,5.2142,5.2023,5.2189,5.277,5.2824,5.3132,5.3838,5.3766,5.4092,5.4888,5.4798,5.4508,5.4001,5.4707,5.5051,5.507,5.5812,5.6084,3.304,3.4013,3.4591,3.4771,3.423,3.3508,3.2652,3.1665,0.0,0.0,0.0,3.0314,3.1072,3.2449,0.0,3.601,0.0,0.0,0.0,0.0,4.1459,0.0,0.0,0.0,0.0,0.0,0.0,0.0,0.0,4.284,4.4009,4.4835,4.5511,4.6116,4.6116,4.6436,4.6955,4.7263,4.7306,4.7114,4.7596,4.782,4.786,4.7901,4.7824,4.7747,4.7583,0.0,4.6621,4.7209,4.7331,4.7245,4.7937,4.819,4.819,4.819,4.819,4.819,4.8229,4.8382,4.8476,4.8306,4.8267,4.8344,4.8476,4.9012,4.9584,4.9767,5.0377,5.0916,5.0971,5.0971,5.1008,5.1138,5.1175,5.1212,5.1324,5.1881,5.2345,5.2345,5.2883,5.3347,5.3385,5.2828,5.2401,5.2401,5.2232,5.2155,5.2308,5.1563,5.1281,5.2024,5.2077,5.2548,5.3775,5.3705,5.3818,5.4436,5.449,5.4562,5.4689,5.4055,5.4092,5.4888,5.4255,5.4472,5.5595,5.574,5.5812,5.583,5.6609,5.6627,3.3856,3.457,3.4851,3.4947,3.4289,3.3255,3.1858,0.0,0.0,0.0,0.0,2.945,3.0051,0.0,0.0,0.0,0.0,0.0,0.0,0.0,0.0,0.0,0.0,0.0,0.0,0.0,0.0,0.0,0.0,4.2492,4.3596,4.4681,4.57,4.6653,4.6406,4.6642,4.7488,4.7656,4.782,4.7922,4.8155,4.8327,4.8439,4.8402,4.8365,4.8365,4.829,0.0,4.7629,4.7944,4.7962,4.786,4.8153,4.8306,4.8361,4.8765,4.8655,4.8434,4.9433,4.9509,4.9289,4.975,4.9603,4.9344,4.9898,5.0324,5.0657,5.0749,5.1082,5.1398,5.1398,5.1398,5.1509,5.1918,5.2345,5.2661,5.2661,5.2958,5.3218,5.3218,5.3553,5.3813,5.3813,5.3478,5.3218,5.3218,5.3142,5.3122,5.3237,5.2808,5.2659,5.3067,5.3065,5.3302,5.3815,5.4044,5.4218,5.4407,5.4719,5.507,5.545,5.5088,5.5287,5.6084,5.5721,5.5685,5.5993,5.641,5.641,5.6011,5.6826,5.6989,3.423,3.4814,3.493,3.5152,3.4313,3.3027,3.1158,2.9952,0.0,0.0,0.0,0.0,0.0,0.0,0.0,0.0,0.0,0.0,0.0,0.0,0.0,0.0,0.0,0.0,0.0,0.0,0.0,0.0,0.0,0.0,4.3536,4.4954,4.6182,4.7132,4.6735,4.7026,4.7995,4.7995,4.8192,4.8642,4.8623,4.8642,4.8751,4.8751,4.8804,4.8874,4.8874,0.0,0.0,4.866,4.8569,4.842,4.842,4.8512,4.8751,4.9395,4.934,4.9176,5.0656,5.0712,5.0324,5.1343,5.1082,5.0506,5.1193,5.1528,5.1658,5.1658,5.1788,5.1918,5.1918,5.1918,5.2067,5.2717,5.3348,5.3813,5.3813,5.3813,5.385,5.4017,5.4073,5.4128,5.4314,5.4351,5.4351,5.4351,5.4351,5.4351,5.4351,5.4351,5.4351,5.4351,5.4184,5.4125,5.4238,5.4662,5.4888,5.4866,5.5273,5.5747,5.6327,5.6133,5.6373,5.717,5.7025,5.6717,5.6247,5.688,5.688,5.6265,5.6899,5.7188,3.4135,3.4903,3.5487,3.5475,3.4326,3.2763,3.1223,0.0,0.0,0.0,2.7889,2.8846,2.8459,0.0,0.0,0.0,0.0,3.5654,0.0,0.0,0.0,0.0,0.0,0.0,0.0,0.0,0.0,0.0,0.0,0.0,4.4751,4.6059,4.7071,4.7692,4.7692,4.7995,4.8697,4.8605,4.8605,4.8787,4.8642,4.8587,4.8623,4.8623,4.8697,4.8822,4.8822,0.0,0.0,4.8855,4.8874,4.882,4.882,4.9284,4.9933,5.0099,5.0563,5.1157,5.1306,5.1306,5.138,5.2234,5.1936,5.1305,5.1379,5.1918,5.2494,5.2494,5.3032,5.359,5.359,5.359,5.3608,5.3683,5.3757,5.3813,5.3813,5.3813,5.4017,5.476,5.489,5.515,5.593,5.6079,5.6079,5.6079,5.6079,5.6079,5.6079,5.6079,5.6079,5.6079,5.5373,5.5424,5.6657,5.6799,5.7081,5.7611,5.7441,5.737,5.7425,5.6539,5.6373,5.717,5.6482,5.6428,5.708,5.7152,5.7152,5.708,5.717,5.7188,3.3859,3.4914,3.5458,3.5549,3.4303,3.2739,3.1449,0.0,0.0,2.7029,2.7726,2.834,2.799,2.9199,3.0851,0.0,0.0,0.0,0.0,0.0,0.0,0.0,0.0,0.0,0.0,0.0,0.0,0.0,0.0,0.0,4.4551,4.519,4.6152,4.7535,4.7305,4.7602,4.8678,4.8642,4.8642,4.8678,4.8642,4.8642,4.8732,4.8642,4.8678,4.8787,4.8732,0.0,0.0,4.8714,4.8714,4.8714,4.8714,4.925,5.0119,5.062,5.1064,5.1546,5.2512,5.2531,5.2252,5.307,5.3107,5.2847,5.2847,5.307,5.333,5.333,5.3553,5.3813,5.3813,5.3813,5.3813,5.3813,5.3813,5.3943,5.4426,5.4518,5.4779,5.5633,5.5782,5.5893,5.6246,5.6302,5.6302,5.6302,5.6302,5.6302,5.6302,5.6302,5.6487,5.697,5.6283,5.602,5.657,5.6927,5.7205,5.7449,5.7564,5.7697,5.7839,5.7128,5.6962,5.7437,5.698,5.688,5.7188,5.7188,5.7188,5.7188,5.7188,5.7188,3.3144,3.4513,3.5307,3.5644,3.4549,3.2992,0.0,0.0,2.7962,2.7308,2.7925,2.8403,2.7864,2.9207,3.0733,3.1744,3.1974,3.3371,0.0,0.0,0.0,0.0,0.0,0.0,0.0,0.0,0.0,0.0,0.0,0.0,0.0,4.4302,4.5199,4.6982,4.6948,4.7371,4.8291,4.8512,4.8623,4.8642,4.8623,4.8642,4.8732,4.8642,4.8678,4.8787,0.0,0.0,0.0,4.8714,4.8714,4.8714,4.8714,4.9416,5.0472,5.1028,5.1603,5.2271,5.3423,5.3441,5.3051,5.3627,5.3813,5.3813,5.3813,5.3813,5.3813,5.3813,5.3813,5.3813,5.3813,5.3813,5.3868,5.411,5.4166,5.4388,5.5224,5.5391,5.5652,5.6487,5.6655,5.6729,5.697,5.7008,5.7008,5.7008,5.7008,5.7008,5.7008,5.7008,5.723,5.7788,5.736,5.7008,5.7008,5.7344,5.7555,5.7555,5.7739,5.7867,5.807,5.7679,5.7553,5.7697,5.7437,5.7289,5.7289,5.7239,5.7188,5.7188,5.7188,5.7188,3.1844,3.3622,3.5187,3.5908,3.4981,3.3544,0.0,3.045,2.8836,2.7653,2.8635,2.9323,2.8106,2.9757,3.1079,3.0433,3.2153,3.432,0.0,0.0,0.0,0.0,0.0,0.0,0.0,0.0,0.0,0.0,0.0,0.0,0.0,4.3869,4.4609,4.6151,4.6999,4.7441,4.7601,4.829,4.8678,4.8787,4.8678,4.8587,4.8587,4.8587,4.8678,0.0,0.0,0.0,0.0,4.8909,4.8909,4.8909,4.8909,4.993,5.1398,5.1398,5.2419,5.3775,5.3794,5.3794,5.3794,5.3813,5.3813,5.3813,5.3813,5.3813,5.3813,5.3813,5.3813,5.3813,5.3813,5.3813,5.3998,5.4816,5.5001,5.5243,5.6097,5.6302,5.6525,5.7342,5.749,5.7751,5.8549,5.8679,5.8679,5.8679,5.8679,5.8679,5.8679,5.8679,5.8679,5.8698,5.8679,5.8679,5.8679,5.8698,5.8698,5.8698,5.8449,5.8301,5.8319,5.8115,5.7997,5.7997,5.7745,5.7601,5.7601,5.7356,5.7188,5.7188,5.7188,5.7188,2.9854,3.1321,3.2513,3.2338,3.2324,3.2159,3.1356,3.037,2.9553,2.9358,2.9642,2.9834,2.9667,3.0101,3.1167,3.3018,3.3407,3.4493,0.0,0.0,0.0,0.0,0.0,0.0,0.0,0.0,0.0,0.0,0.0,0.0,4.3929,4.3961,4.4411,4.5438,4.5768,4.6242,4.6851,4.7596,4.8004,4.8057,4.8561,4.882,4.8785,4.8768,0.0,0.0,0.0,0.0,0.0,4.8695,4.9047,4.9584,4.9584,5.0639,5.2159,5.2084,5.2828,5.3813,5.3813,5.3813,5.3813,5.3813,5.3813,5.3813,5.3813,5.3813,5.3813,5.3813,5.4203,5.463,5.463,5.5057,5.5577,5.5837,5.5893,5.6116,5.6952,5.7119,5.736,5.8159,5.8326,5.8401,5.8661,5.8716,5.8716,5.8716,5.8716,5.8716,5.8716,5.8716,5.8716,5.8716,5.8716,5.8716,5.8716,5.8716,5.8716,5.8716,5.8468,5.8363,5.8572,5.8205,5.807,5.8186,5.7978,5.7582,5.7033,5.7536,5.7745,5.7763,5.8293,5.8567,0.0,3.0126,3.13,3.1289,3.1619,3.1759,3.0919,3.0322,2.9948,2.9841,2.9973,3.0152,3.0366,3.0521,3.1238,3.3278,3.337,0.0,0.0,0.0,0.0,0.0,0.0,0.0,0.0,0.0,0.0,0.0,0.0,0.0,4.4005,4.4055,4.4246,4.4684,4.5069,4.5528,4.603,4.6847,4.7256,4.7256,4.8054,4.8444,4.8463,4.8709,0.0,0.0,0.0,0.0,0.0,4.8714,4.9195,4.9973,4.9973,5.1009,5.253,5.2493,5.305,5.3813,5.3813,5.3813,5.3813,5.3813,5.4017,5.4258,5.4238,5.4238,5.4258,5.4238,5.4832,5.5503,5.5503,5.5893,5.6376,5.6692,5.6747,5.697,5.7788,5.7955,5.8103,5.8605,5.8716,5.8716,5.8716,5.8716,5.8716,5.8716,5.8716,5.8716,5.8716,5.8716,5.8716,5.8716,5.8716,5.8716,5.8716,5.8716,5.8716,5.8716,5.8553,5.8511,5.8698,5.8147,5.7998,5.8449,5.7954,5.7563,5.7379,5.7785,5.8162,5.8455,5.8951,5.9336,0.0,2.961,3.0966,3.1716,3.2049,3.1817,3.0526,3.0277,0.0,2.9408,2.9761,3.0278,3.0538,3.0843,3.132,3.2018,3.2464,0.0,0.0,0.0,0.0,0.0,0.0,0.0,0.0,0.0,0.0,0.0,0.0,0.0,4.4036,4.4135,4.4135,4.4036,4.4817,4.5226,4.5212,4.6011,4.6401,4.642,4.7237,4.7608,4.7646,4.8444,0.0,0.0,0.0,0.0,0.0,4.8964,4.9466,5.0209,5.0265,5.1268,5.2698,5.2698,5.3162,5.3813,5.3813,5.3813,5.3813,5.3868,5.4407,5.4981,5.5013,5.5053,5.5074,5.5032,5.5665,5.6395,5.6395,5.6432,5.6655,5.7416,5.7602,5.7788,5.8549,5.8716,5.8716,5.8716,5.8716,5.8716,5.8716,5.8716,5.8716,5.8716,5.8716,5.8716,5.8716,5.8716,5.8716,5.8716,5.8716,5.8716,5.8716,5.8716,5.8716,5.8716,5.8716,5.8716,5.8716,5.7992,5.7955,5.8698,5.7672,5.7544,5.8393,5.8197,5.8483,5.9328,5.9383,5.9853,2.7289,0.0,2.6683,2.639,2.7653,2.8888,0.0,2.9485,3.0313,0.0,0.0,0.0,0.0,3.0962,3.1003,0.0,0.0,0.0,0.0,0.0,0.0,0.0,0.0,0.0,0.0,0.0,0.0,0.0,0.0,4.4285,4.4237,4.4255,4.4255,4.4226,4.4412,4.4445,4.4302,4.5138,4.5565,4.5584,4.6401,4.6773,4.681,4.7627,0.0,0.0,0.0,0.0,4.8946,4.9559,5.032,5.1156,5.1769,5.2624,5.3534,5.3534,5.3645,5.3813,5.3813,5.3754,5.3827,5.4457,5.4772,5.505,5.5621,5.5906,5.6004,5.5965,5.6559,5.723,5.723,5.7676,5.8196,5.8382,5.8419,5.8475,5.8661,5.8716,5.8716,5.8716,5.8716,5.8716,5.8716,5.8716,5.8716,5.8716,5.8716,5.8716,5.8716,5.8716,5.8716,5.8716,5.8716,5.8716,5.8716,5.8716,5.8716,5.8716,5.8716,5.8716,5.8716,5.8531,5.8512,5.8716,5.7858,5.8095,5.9523,5.8868,5.9289,6.0733,6.1345,6.1734,2.6978,2.6985,2.7007,2.6619,2.7759,2.8824,2.8184,0.0,0.0,0.0,0.0,0.0,0.0,0.0,0.0,0.0,0.0,0.0,0.0,0.0,0.0,0.0,0.0,0.0,0.0,0.0,0.0,0.0,0.0,4.4373,4.4314,4.4344,4.4344,4.4285,4.4285,4.4255,4.4147,4.4612,4.4836,4.4854,4.5642,4.6001,4.602,4.6806,4.7348,0.0,0.0,0.0,4.8964,4.9782,5.0618,5.1472,5.2289,5.3088,5.3813,5.3813,5.3774,5.3754,5.3754,5.3975,5.4325,5.467,5.5399,5.6184,5.6551,5.7,5.7323,5.6893,5.7375,5.8048,5.8048,5.8382,5.8716,5.8716,5.8716,5.8716,5.8716,5.8716,5.8716,5.8716,5.8716,5.8716,5.8716,5.8716,5.8716,5.8716,5.8716,5.8716,5.8716,5.8716,5.8716,5.8716,5.8716,5.8716,5.8716,5.8716,5.8716,5.8716,5.8716,5.8716,5.8716,5.8364,5.8326,5.8698,5.8642,5.9237,6.05,6.0072,6.05,6.1763,6.2209,6.2617,2.7219,2.8223,2.91,2.8617,2.9278,2.9663,2.8353,0.0,0.0,0.0,0.0,0.0,0.0,0.0,0.0,0.0,0.0,0.0,0.0,0.0,0.0,0.0,0.0,0.0,0.0,0.0,0.0,0.0,0.0,4.4458,4.4344,4.4383,4.4401,4.4344,4.4344,4.4344,4.4344,4.4314,4.4285,4.4304,4.4934,4.5239,4.5277,4.6001,4.6713,0.0,0.0,0.0,4.8797,4.9856,5.0729,5.1527,5.2419,5.32,5.3813,5.3813,5.3754,5.3732,5.3843,5.4251,5.4791,5.4914,5.594,5.7175,5.7338,5.7955,5.8442,5.7724,5.8118,5.8716,5.8716,5.8716,5.8716,5.8716,5.8716,5.8716,5.8716,5.8716,5.8716,5.8716,5.8716,5.8716,5.8716,5.8716,5.8716,5.8716,5.8716,5.8716,5.8716,5.8716,5.8716,5.8716,5.8716,5.8716,5.8716,5.8716,5.8716,5.8716,5.8716,5.8772,5.8884,5.8234,5.8252,5.9069,5.9757,6.0518,6.1391,6.1391,6.18,6.258,6.258,6.2952,2.8665,2.9386,2.9228,2.6887,2.7469,2.8389,2.7554,0.0,0.0,0.0,0.0,0.0,0.0,0.0,0.0,0.0,0.0,0.0,0.0,0.0,0.0,0.0,0.0,0.0,0.0,0.0,0.0,0.0,0.0,0.0,4.4487,4.4487,4.4487,4.4458,4.4458,4.4458,4.4458,4.4344,4.4285,4.4285,4.4416,4.4472,4.4509,4.5282,4.573,0.0,0.0,4.7791,4.8137,5.0156,5.1231,5.1618,5.307,5.3739,5.3944,5.3851,5.3754,5.3806,5.4473,5.4424,5.4298,5.5674,5.588,5.5826,5.7301,5.7805,5.8047,5.8505,5.8665,5.8716,5.8716,5.8716,5.8716,5.8716,5.8716,5.8716,5.8716,5.8716,5.8716,5.8716,5.8716,5.8716,5.8716,5.8716,5.8716,5.8716,5.8716,5.8716,5.8716,5.8716,5.8716,5.8716,5.8716,5.8716,5.8716,5.8716,5.8716,5.8716,5.8716,5.9014,5.9701,5.9608,5.9942,6.0797,6.0945,6.141,6.2227,6.2227,6.2636,6.3435,6.3435,6.349,2.742,2.8391,2.8923,2.7798,2.9107,3.044,0.0,0.0,0.0,0.0,0.0,0.0,0.0,0.0,0.0,0.0,0.0,0.0,0.0,0.0,0.0,0.0,0.0,0.0,0.0,0.0,0.0,0.0,0.0,0.0,4.3163,4.3163,4.3163,4.3163,4.3613,4.3857,4.3857,4.4233,4.4401,4.4401,4.4373,4.4354,4.4373,4.4707,4.5342,4.6214,0.0,4.7335,4.8776,5.0198,5.085,5.1121,5.2695,5.3068,5.275,5.3088,5.346,5.3924,5.4684,5.5077,5.5379,5.6161,5.6498,5.6741,5.7545,5.8107,5.8536,5.887,5.8902,5.8843,5.8799,5.8821,5.8843,5.8799,5.8818,5.8799,5.8716,5.8716,5.8716,5.8716,5.8716,5.8716,5.8716,5.8716,5.8716,5.8716,5.8716,5.8716,5.8716,5.8716,5.8716,5.8716,5.8656,5.8614,5.8698,5.8614,5.8614,5.8716,5.9125,5.9515,5.9887,6.0351,6.1001,6.1837,6.1856,6.2246,6.3063,6.3063,6.3249,6.3602,6.3602,6.3602,2.6682,2.7592,2.8578,2.8929,0.0,0.0,3.2173,0.0,0.0,0.0,0.0,0.0,0.0,0.0,0.0,0.0,0.0,0.0,0.0,0.0,0.0,0.0,0.0,0.0,0.0,0.0,0.0,0.0,0.0,0.0,4.1991,4.1991,4.1991,4.1991,4.2656,4.2994,4.2994,4.382,4.4327,4.4515,4.4458,4.4411,4.4411,4.4373,4.5159,4.6548,4.6027,4.7061,4.9208,5.0029,5.0459,5.0675,5.2052,5.2204,5.1665,5.2417,5.3237,5.4075,5.4819,5.5565,5.6257,5.6462,5.6874,5.7379,5.7772,5.8314,5.8838,5.8986,5.9081,5.9042,5.8961,5.8982,5.9003,5.8921,5.894,5.894,5.884,5.8781,5.8781,5.8781,5.8739,5.8698,5.8781,5.8739,5.8716,5.8781,5.8739,5.8716,5.8716,5.8656,5.8656,5.8656,5.8553,5.8627,5.8977,5.9078,5.9189,5.9292,5.9868,6.0295,6.0481,6.1131,6.1874,6.2673,6.2692,6.2989,6.3602,6.3602,6.3602,6.3602,6.3602,6.3602,2.833,2.8338,2.8281,2.8913,0.0,0.0,3.3481,0.0,0.0,0.0,0.0,0.0,0.0,0.0,0.0,0.0,0.0,0.0,0.0,0.0,0.0,0.0,0.0,0.0,0.0,0.0,0.0,0.0,0.0,0.0,4.1991,4.1991,4.1991,4.1991,4.2074,4.2085,4.2085,4.2956,4.3764,4.4515,4.4515,4.4487,4.4487,4.4487,4.5031,4.5989,4.6502,4.7357,4.8472,4.9837,5.0511,5.0735,5.1432,5.1663,5.1665,5.2417,5.3383,5.4366,5.5025,5.5452,5.5801,5.6589,5.6363,5.6045,5.7602,5.8108,5.8315,5.9009,5.9234,5.9215,5.9024,5.9003,5.8984,5.8984,5.91,5.9196,5.9157,5.9061,5.8984,5.8984,5.8821,5.8739,5.8964,5.8803,5.8781,5.8964,5.8803,5.8716,5.8716,5.8596,5.8511,5.8511,5.8511,5.8868,5.9757,6.0555,6.102,6.102,6.1076,6.1447,6.219,6.2283,6.2692,6.3509,6.3527,6.3546,6.3602,6.3602,6.3602,6.3602,6.3602,6.3602,2.671,2.7366,2.8253,2.8879,0.0,0.0,0.0,0.0,0.0,0.0,0.0,0.0,0.0,0.0,0.0,0.0,0.0,0.0,0.0,0.0,0.0,0.0,0.0,0.0,0.0,0.0,0.0,0.0,0.0,0.0,0.0,4.1632,4.1248,4.1248,4.1248,4.1248,4.1248,4.2093,4.2919,4.3764,4.4271,4.4777,4.5247,4.5247,4.6008,4.7372,4.7108,4.7814,4.92,4.972,4.9953,5.0021,5.0215,5.0295,5.052,5.2342,5.3593,5.4546,5.5842,5.6328,5.6455,5.6793,5.6681,5.6624,5.7769,5.8464,5.8915,5.9178,5.9272,5.9272,5.9158,5.9158,5.9178,5.9178,5.9234,5.9272,5.9272,5.9234,5.9178,5.9178,5.912,5.912,5.9178,5.9101,5.9081,5.8984,5.8924,5.8803,5.8596,5.8955,5.9227,5.9201,5.9708,6.0134,6.0295,6.1226,6.1797,6.1797,6.1904,6.2079,6.2394,6.2896,6.3305,6.3602,6.3602,6.3602,6.3602,6.3602,6.3602,6.3602,6.3602,6.3602,2.6167,2.6989,2.8258,0.0,0.0,0.0,0.0,0.0,0.0,0.0,0.0,0.0,0.0,0.0,0.0,0.0,0.0,0.0,0.0,0.0,0.0,0.0,0.0,0.0,0.0,0.0,0.0,0.0,0.0,0.0,0.0,4.1802,4.1359,4.1324,4.1299,4.1274,4.1191,4.1736,4.2483,4.3441,4.3954,4.4597,4.5341,4.5585,4.6525,4.7899,4.7598,4.8333,4.9692,4.9623,4.9593,4.9563,4.9521,4.9659,5.0178,5.2395,5.3917,5.5006,5.6099,5.6662,5.6887,5.6887,5.6887,5.7094,5.8164,5.8858,5.929,5.929,5.929,5.9309,5.9309,5.9328,5.9346,5.9346,5.9419,5.9438,5.9419,5.9383,5.9346,5.9346,5.9309,5.9309,5.9383,5.9327,5.9253,5.9178,5.9364,5.9435,5.9134,5.9714,6.0104,5.9918,6.0701,6.1227,6.1135,6.2013,6.2586,6.2631,6.274,6.2784,6.2784,6.3323,6.3602,6.3602,6.3602,6.3602,6.3602,6.3602,6.3602,6.3602,6.3602,6.3602,2.7363,2.7587,0.0,0.0,0.0,0.0,0.0,0.0,0.0,0.0,0.0,0.0,0.0,0.0,0.0,0.0,0.0,0.0,0.0,0.0,0.0,0.0,0.0,0.0,0.0,0.0,0.0,0.0,0.0,0.0,0.0,4.2718,4.2619,4.2416,4.2416,4.2276,4.2018,4.2018,4.2574,4.3703,4.3634,4.392,4.4552,4.5341,4.6243,4.7175,4.7956,4.8861,4.9692,4.9623,4.9563,4.9509,4.9509,5.0059,5.1005,5.262,5.4326,5.577,5.5683,5.6192,5.6887,5.6887,5.6887,5.7187,5.8802,5.929,5.929,5.929,5.929,5.9346,5.9457,5.9493,5.9493,5.9493,5.9653,5.9757,5.9616,5.9564,5.9493,5.9493,5.9347,5.929,5.9581,5.9455,5.9383,5.9581,6.0189,6.0548,6.0432,6.0822,6.0981,6.0674,6.1345,6.1919,6.2197,6.2937,6.3447,6.3575,6.3602,6.362,6.3602,6.3602,6.3602,6.3602,6.3602,6.3602,6.3602,6.3602,6.3602,6.3602,6.3602,6.3602,2.7022,0.0,0.0,0.0,0.0,0.0,0.0,0.0,0.0,0.0,0.0,0.0,0.0,0.0,0.0,0.0,0.0,0.0,0.0,0.0,0.0,0.0,0.0,0.0,0.0,0.0,0.0,0.0,0.0,0.0,0.0,4.3944,4.352,4.3477,4.2924,4.2559,4.2495,4.2495,4.2957,4.3842,4.3881,4.4497,4.566,4.6479,4.7193,4.7935,4.881,4.9367,4.9551,4.9551,4.9521,4.9565,5.0172,5.056,5.1155,5.3983,5.5356,5.5864,5.6359,5.6681,5.6887,5.6887,5.6887,5.7187,5.8802,5.929,5.929,5.929,5.929,5.9309,5.9346,5.9438,5.9493,5.9545,5.9564,5.9599,5.9616,5.9581,5.9599,5.9688,5.9653,5.9669,5.9786,5.9753,5.9908,6.0408,6.0583,6.0961,6.1745,6.1819,6.192,6.239,6.2553,6.2652,6.2604,6.2922,6.3147,6.3194,6.3194,6.3307,6.3602,6.3602,6.3602,6.3602,6.3602,6.3602,6.3602,6.3602,6.3602,6.3602,6.3602,6.3602,2.8016,0.0,0.0,0.0,0.0,0.0,0.0,0.0,0.0,0.0,0.0,0.0,0.0,0.0,0.0,0.0,0.0,0.0,0.0,0.0,0.0,0.0,0.0,0.0,0.0,0.0,0.0,0.0,0.0,0.0,0.0,4.5007,4.463,4.4538,4.4077,4.3771,4.3693,4.3349,4.3656,4.4575,4.4268,4.4748,4.5931,4.6901,4.7526,4.7919,4.9066,4.9551,4.9509,4.9509,4.9509,4.9584,5.0466,5.1035,5.1725,5.4693,5.6011,5.644,5.7129,5.7169,5.6943,5.7263,5.7169,5.7187,5.8802,5.929,5.929,5.929,5.929,5.9309,5.9365,5.9401,5.9438,5.9545,5.9545,5.9545,5.9545,5.9545,5.9581,5.9653,5.9688,5.9723,5.9753,6.0104,6.0467,6.084,6.1354,6.2051,6.3,6.2891,6.2917,6.3317,6.3213,6.3051,6.3051,6.3002,6.3002,6.3051,6.3099,6.3213,6.3419,6.3511,6.3511,6.3511,6.3557,6.3602,6.3602,6.3602,6.3602,6.3602,6.3602,6.3557,2.9582,0.0,0.0,0.0,0.0,0.0,0.0,0.0,0.0,0.0,0.0,0.0,0.0,0.0,0.0,0.0,0.0,0.0,0.0,0.0,0.0,0.0,0.0,0.0,0.0,0.0,0.0,0.0,0.0,0.0,0.0,4.5814,4.5737,4.5541,4.5524,4.5436,4.5263,4.4479,4.4594,4.5613,4.4826,4.4861,4.5661,4.6901,4.7498,4.765,4.8955,4.9551,4.9532,4.949,4.9577,4.9739,5.0621,5.1522,5.2651,5.4999,5.6394,5.722,5.7804,5.7525,5.7018,5.7845,5.758,5.7258,5.8875,5.9364,5.9381,5.9364,5.9327,5.9383,5.9457,5.9401,5.9346,5.9457,5.951,5.9545,5.9493,5.9493,5.9493,5.9512,5.9493,5.9529,5.9581,6.0365,6.1042,6.1106,6.2353,6.3518,6.405,6.4,6.3811,6.3647,6.34,6.3307,6.34,6.3147,6.308,6.3102,6.3102,6.3065,6.2991,6.328,6.34,6.34,6.3511,6.3557,6.3557,6.3557,6.3602,6.3602,6.3602,6.3511,0.0,3.0072,0.0,0.0,0.0,0.0,0.0,0.0,0.0,0.0,0.0,0.0,0.0,0.0,0.0,0.0,0.0,0.0,0.0,0.0,0.0,0.0,0.0,0.0,0.0,0.0,0.0,0.0,0.0,0.0,4.5964,4.5917,4.5861,4.5822,4.5766,4.5723,4.5658,4.5499,4.5514,0.0,4.5626,4.5659,4.5872,4.7313,4.8565,4.966,4.9765,4.9822,4.9814,4.9574,4.9981,5.0847,5.1782,5.2786,5.3957,5.5654,5.6757,5.7408,5.728,5.7089,5.7018,5.7845,5.7733,5.7592,5.9181,5.988,6.0025,5.9791,5.9711,5.9643,5.94,5.9309,5.9309,5.9346,5.9346,5.9383,5.9346,5.9346,5.9383,5.9493,5.9493,5.9529,5.9581,6.0314,6.1332,6.2542,6.352,6.4178,6.4265,6.4042,6.3897,6.3854,6.3628,6.3511,6.3557,6.3307,6.2965,6.2546,6.2346,6.2068,6.1582,6.2623,6.326,6.326,6.326,6.3354,6.3447,6.3447,6.3511,6.362,6.3492,6.3447,0.0,0.0,0.0,0.0,0.0,0.0,0.0,0.0,0.0,0.0,0.0,0.0,0.0,0.0,0.0,0.0,0.0,0.0,0.0,0.0,0.0,0.0,0.0,0.0,0.0,0.0,0.0,0.0,0.0,4.6026,4.6005,4.5964,4.5922,4.5886,4.588,4.5822,4.58,4.58,4.58,4.58,4.5847,4.6087,4.6558,4.7623,4.8682,4.9693,4.9958,5.0078,5.0078,4.9943,5.0437,5.1383,5.2346,5.3345,5.4396,5.5944,5.6792,5.7191,5.7756,5.7333,5.6706,5.7937,5.7894,5.762,5.8856,5.9729,6.0253,6.0044,6.0004,5.9943,5.9785,5.9658,5.954,5.954,5.9436,5.929,5.929,5.929,5.9309,5.9401,5.9401,5.9438,5.9455,6.049,6.1883,6.3539,6.4103,6.4345,6.4284,6.4184,6.4083,6.4083,6.3873,6.3593,6.3221,6.2944,6.2483,6.1756,6.163,6.1445,6.1131,6.1797,6.2373,6.2734,6.2762,6.2947,6.3307,6.3307,6.3354,6.3492,6.3447,6.3354,0.0,0.0,0.0,0.0,0.0,0.0,0.0,0.0,0.0,0.0,0.0,0.0,0.0,0.0,0.0,0.0,0.0,0.0,0.0,0.0,0.0,0.0,0.0,0.0,0.0,0.0,0.0,0.0,0.0,4.6095,4.6035,4.6026,4.5997,4.5941,4.591,4.5886,4.5841,4.5808,4.5827,4.5827,4.5827,4.6222,4.701,4.7816,4.8538,4.9202,5.0008,5.0371,5.035,5.0308,5.0881,5.1858,5.2715,5.3661,5.4699,5.6063,5.6637,5.694,5.8323,5.7756,5.6654,5.8342,5.8394,5.7911,5.8737,5.9682,6.0457,6.0326,6.03,6.0253,6.0217,6.0034,5.9868,5.9868,5.9658,5.9453,5.9327,5.929,5.9327,5.9364,5.94,5.9494,5.9776,6.0905,6.2389,6.4121,6.4364,6.4284,6.4284,6.4284,6.4284,6.4284,6.4083,6.3621,6.2836,6.2513,6.1955,6.105,6.0994,6.0877,6.0771,6.0771,6.1137,6.1815,6.2016,6.2361,6.2882,6.2882,6.2928,6.3066,6.3214,6.3178,0.0,0.0,0.0,0.0,0.0,0.0,0.0,0.0,0.0,0.0,0.0,0.0,0.0,0.0,0.0,0.0,0.0,0.0,0.0,0.0,0.0,0.0,0.0,0.0,0.0,0.0,0.0,0.0,4.6177,4.6185,4.6181,4.613,4.6084,4.6075,4.6017,4.5986,4.5975,4.5929,4.5893,4.5893,4.5893,4.5976,4.6205,4.7796,4.898,4.9808,5.0391,5.0657,5.0623,5.0408,5.1327,5.2913,5.3089,5.4264,5.5857,5.5904,5.6307,5.6992,5.778,5.7798,5.7756,5.9519,5.9734,5.9466,6.0262,6.0825,6.1079,6.0731,6.0638,6.057,6.0272,6.017,6.0161,6.0161,6.0113,5.9954,5.9417,5.929,5.94,5.9677,5.9725,6.0198,6.1656,6.1844,6.235,6.408,6.4284,6.4284,6.4284,6.4284,6.4284,6.4284,6.4284,6.3925,6.3118,6.2803,6.2089,6.0733,6.0444,6.0068,5.9572,5.9553,5.9831,6.0453,6.1013,6.1336,6.1552,6.1552,6.1595,6.1759,6.2345,6.2619,2.8179,0.0,0.0,0.0,0.0,0.0,0.0,0.0,0.0,0.0,0.0,0.0,0.0,0.0,0.0,0.0,0.0,0.0,0.0,0.0,0.0,0.0,0.0,0.0,0.0,0.0,0.0,0.0,4.6123,4.6132,4.6149,4.6149,4.6141,4.6095,4.6066,4.6027,4.5997,4.5975,4.5964,4.5964,4.5994,4.6035,4.6104,4.7369,4.837,4.924,5.0449,5.0956,5.0913,5.08,5.1771,5.3316,5.3387,5.452,5.6098,5.6046,5.6225,5.6692,5.7892,5.786,5.757,5.924,5.9688,5.9586,5.9906,6.0576,6.121,6.0982,6.0922,6.0901,6.0734,6.0575,6.0476,6.0476,6.0326,6.0113,5.9861,5.9798,5.983,6.0004,6.0414,6.1119,6.2318,6.28,6.3372,6.4426,6.4577,6.4521,6.4324,6.4284,6.4284,6.4284,6.389,6.3289,6.2444,6.1859,6.1033,5.9947,5.9778,5.9571,5.9309,5.929,5.9422,5.9683,6.0308,6.0795,6.1174,6.1174,6.1502,6.2076,6.2388,6.2755,0.0,0.0,0.0,0.0,0.0,0.0,0.0,0.0,0.0,0.0,0.0,0.0,0.0,0.0,0.0,0.0,0.0,0.0,0.0,0.0,0.0,0.0,0.0,0.0,0.0,0.0,0.0,0.0,4.6066,4.6105,4.6105,4.6141,4.6169,4.6143,4.6132,4.6093,4.6037,4.6027,4.6037,4.6026,4.6066,4.6105,4.6134,4.6997,4.7855,4.8718,5.0226,5.0992,5.112,5.1132,5.1949,5.3257,5.349,5.4498,5.5823,5.6071,5.6149,5.6381,5.8034,5.8084,5.7679,5.9316,5.9877,5.9938,5.9877,6.048,6.1192,6.1137,6.1099,6.1099,6.1099,6.0942,6.0795,6.0795,6.0618,6.0406,6.0226,6.0272,6.0384,6.0614,6.1169,6.1934,6.2968,6.3619,6.4226,6.4833,6.4932,6.4848,6.4577,6.4482,6.433,6.4104,6.3518,6.267,6.1581,6.0942,6.0229,5.9365,5.929,5.929,5.929,5.929,5.929,5.929,5.9758,6.0198,6.065,6.065,6.1121,6.2025,6.223,6.279,0.0,0.0,0.0,0.0,0.0,0.0,0.0,0.0,0.0,0.0,0.0,0.0,0.0,0.0,0.0,0.0,0.0,0.0,0.0,0.0,0.0,0.0,0.0,0.0,0.0,0.0,0.0,0.0,4.6095,4.6105,4.6093,4.6093,4.613,4.6185,4.6185,4.6193,4.6189,4.613,4.6084,4.6095,4.6095,4.6095,4.6132,4.7008,4.7883,4.8759,4.9659,5.0499,5.1189,5.119,5.1694,5.2537,5.33,5.4163,5.506,5.5755,5.6012,5.6263,5.7985,5.8565,5.8797,6.0536,6.1115,6.1115,6.1115,6.1154,6.1192,6.1137,6.1099,6.1099,6.1099,6.108,6.108,6.108,6.108,6.0902,6.0307,6.045,6.0911,6.1738,6.193,6.2488,6.4122,6.4181,6.4286,6.5154,6.5268,6.5268,6.5238,6.4966,6.4455,6.3622,6.3276,6.2444,6.0811,6.0623,6.0229,5.9365,5.929,5.929,5.929,5.929,5.929,5.929,5.9347,5.9347,5.9384,5.9384,5.9835,6.0716,6.1467,6.2293,0.0,0.0,0.0,0.0,0.0,0.0,0.0,0.0,0.0,0.0,0.0,0.0,0.0,0.0,0.0,0.0,0.0,0.0,0.0,0.0,0.0,0.0,0.0,0.0,0.0,0.0,0.0,0.0,0.0,4.6037,4.6047,4.6085,4.6104,4.6149,4.6177,4.6193,4.6201,4.6181,4.6166,4.6169,4.6158,4.6154,4.6174,4.6481,4.7416,4.8783,4.9101,4.9979,5.1189,5.12,5.1664,5.2491,5.33,5.4125,5.4982,5.5736,5.6012,5.6244,5.8004,5.8604,5.8874,6.0575,6.1137,6.1137,6.1137,6.1137,6.1137,6.1099,6.1099,6.1099,6.1099,6.1099,6.1099,6.1099,6.1099,6.1041,6.082,6.0882,6.1213,6.2081,6.2699,6.3473,6.461,6.5141,6.5452,6.5536,6.5548,6.5493,6.5329,6.5175,6.4788,6.3911,6.3245,6.2387,6.1267,6.0501,5.9949,5.9628,5.9417,5.929,5.929,5.929,5.929,5.929,5.929,5.929,5.929,5.9853,6.0567,6.1393,6.2238,6.3083,0.0,0.0,0.0,0.0,0.0,0.0,0.0,0.0,0.0,0.0,0.0,0.0,0.0,0.0,0.0,0.0,0.0,0.0,0.0,0.0,0.0,0.0,0.0,0.0,0.0,0.0,0.0,0.0,0.0,0.0,4.5997,4.6037,4.6076,4.6104,4.6149,4.6177,4.6177,4.6174,4.6174,4.6177,4.6201,4.6208,4.6208,4.6209,4.6989,4.8378,4.8678,4.9722,5.123,5.122,5.1561,5.2142,5.3204,5.3992,5.4646,5.5636,5.601,5.6278,5.8002,5.8604,5.8874,6.0557,6.1099,6.1099,6.1099,6.1099,6.1099,6.1099,6.1099,6.1099,6.1099,6.1099,6.1099,6.1099,6.1099,6.1099,6.1099,6.1099,6.1447,6.2607,6.3304,6.4058,6.5199,6.5857,6.6125,6.589,6.5866,6.5799,6.564,6.5254,6.47,6.3819,6.2873,6.1975,6.1125,6.0357,5.9912,5.9912,5.9624,5.9453,5.9453,5.9364,5.929,5.929,5.929,5.929,5.929,6.0173,6.1017,6.1825,6.2688,6.3683,0.0,0.0,0.0,0.0,0.0,0.0,0.0,0.0,0.0,0.0,0.0,0.0,0.0,0.0,0.0,0.0,0.0,0.0,0.0,0.0,0.0,0.0,0.0,0.0,0.0,0.0,0.0,0.0,4.5997,4.5997,4.5997,4.5997,4.6037,4.6095,4.6104,4.6093,4.6093,4.6093,4.6093,4.6093,4.6177,4.6205,4.6205,4.6208,4.6683,4.7579,4.8436,4.9742,5.13,5.1303,5.1303,5.1468,5.3075,5.3744,5.3972,5.5451,5.6059,5.6339,5.802,5.8621,5.8892,6.0557,6.1099,6.1099,6.1099,6.1099,6.1099,6.1099,6.1099,6.1099,6.1099,6.1099,6.1099,6.1099,6.1099,6.1099,6.1099,6.1118,6.164,6.3362,6.371,6.4251,6.5915,6.6205,6.6205,6.6205,6.6205,6.6205,6.6205,6.5238,6.4205,6.3325,6.2226,6.1191,6.0302,6.0226,6.0198,6.0198,5.9943,5.9823,5.9823,5.9524,5.9327,5.929,5.929,5.929,5.929,6.021,6.1036,6.1825,6.2745,6.4003,2.4996,0.0,0.0,0.0,0.0,0.0,0.0,0.0,0.0,0.0,0.0,0.0,0.0,0.0,0.0,0.0,0.0,0.0,0.0,0.0,0.0,0.0,0.0,0.0,0.0,0.0,0.0,0.0,4.5997,4.5997,4.5997,4.6056,4.6076,4.6095,4.6104,4.6104,4.6105,4.6104,4.6104,4.6095,4.6169,4.6205,4.6205,4.6208,4.7014,4.8456,4.869,4.9742,5.13,5.1308,5.1308,5.1468,5.3117,5.3777,5.3991,5.5566,5.6174,5.642,5.8159,5.8741,5.9017,6.0641,6.1167,6.115,6.1117,6.1099,6.1099,6.1099,6.1099,6.1099,6.1099,6.1099,6.1099,6.1099,6.1099,6.1099,6.1099,6.1601,6.2375,6.3478,6.4213,6.4967,6.6011,6.6205,6.6205,6.6205,6.6205,6.6205,6.6205,6.591,6.5174,6.3726,6.3276,6.248,6.0976,6.0666,6.057,6.057,6.0272,6.0103,6.0103,6.0015,5.988,5.9677,5.9677,5.954,5.929,6.0755,6.1581,6.1844,6.389,6.5073,0.0,0.0,0.0,0.0,0.0,0.0,0.0,3.47,0.0,0.0,0.0,0.0,0.0,0.0,0.0,0.0,0.0,0.0,0.0,0.0,0.0,0.0,0.0,0.0,0.0,4.5997,4.5997,4.5997,4.5997,4.5997,4.5997,4.6037,4.6066,4.6066,4.6056,4.6056,4.6066,4.6056,4.6056,4.6066,4.6123,4.616,4.616,4.6166,4.6921,4.8234,4.8604,4.952,5.0794,5.1145,5.13,5.1468,5.3157,5.3828,5.4032,5.5629,5.6453,5.697,5.8325,5.905,5.956,6.0856,6.1283,6.1287,6.1239,6.1242,6.1206,6.1152,6.1136,6.1099,6.1099,6.1099,6.1099,6.1099,6.1099,6.1099,6.1099,6.1776,6.2665,6.3516,6.4387,6.5257,6.605,6.6205,6.6205,6.6205,6.6205,6.6205,6.6205,6.5915,6.5334,6.4348,6.3594,6.2743,6.1737,6.1174,6.088,6.088,6.0594,6.0425,6.0425,6.0253,6.0132,5.9973,5.9973,5.9975,6.0033,6.0886,6.1656,6.2388,6.4172,6.5373,0.0,0.0,0.0,0.0,0.0,0.0,3.3453,3.4227,3.5001,0.0,0.0,0.0,0.0,0.0,0.0,0.0,0.0,0.0,0.0,0.0,0.0,0.0,0.0,0.0,4.5997,4.5997,4.5997,4.5997,4.5997,4.5997,4.5997,4.5997,4.5997,4.5997,4.5997,4.5997,4.5997,4.5997,4.5997,4.5997,4.6066,4.6095,4.6095,4.6104,4.6636,4.7587,4.8366,4.925,5.0182,5.0961,5.1292,5.1468,5.3147,5.3857,5.4098,5.5653,5.6761,5.7612,5.8506,5.9329,6.0145,6.1103,6.1414,6.1414,6.1414,6.14,6.1366,6.1252,6.1169,6.1117,6.1117,6.1099,6.1099,6.1099,6.1099,6.1099,6.1099,6.1776,6.2665,6.3516,6.4387,6.5257,6.605,6.6205,6.6205,6.6205,6.6205,6.6205,6.6205,6.5586,6.5102,6.5006,6.3613,6.2607,6.2433,6.1698,6.1195,6.1118,6.088,6.075,6.075,6.0476,6.03,6.0272,6.0226,6.0474,6.1036,6.0787,6.1488,6.312,6.4021,6.5261,0.0,0.0,2.9455,0.0,0.0,0.0,0.0,3.1597,3.2918,0.0,0.0,0.0,0.0,0.0,0.0,0.0,0.0,0.0,0.0,0.0,0.0,0.0,0.0,0.0,4.5997,4.5997,4.5997,4.5997,4.5997,4.5997,4.5997,4.5997,4.5997,4.5997,4.5997,4.5997,4.5997,4.5997,4.5997,4.5997,4.6066,4.6095,4.6095,4.6104,4.6949,4.8457,4.8632,4.9566,5.0967,5.1142,5.1248,5.1476,5.3202,5.3883,5.4106,5.5803,5.6563,5.6942,5.8442,5.9066,5.9464,6.0997,6.1479,6.1479,6.1428,6.14,6.1381,6.1366,6.1268,6.1184,6.1184,6.1134,6.1099,6.1099,6.1099,6.1099,6.1099,6.1776,6.2665,6.3516,6.4387,6.5257,6.605,6.6205,6.6205,6.6205,6.6205,6.6205,6.6205,6.605,6.5721,6.5064,6.4696,6.3922,6.253,6.224,6.1853,6.1137,6.1041,6.1022,6.1022,6.0963,6.082,6.0613,6.0326,6.059,6.1391,6.1088,6.1672,6.3139,6.4585,6.5824,0.0,0.0,3.0105,3.0142,0.0,0.0,0.0,0.0,0.0,0.0,0.0,0.0,0.0,0.0,0.0,0.0,0.0,0.0,0.0,0.0,0.0,0.0,0.0,0.0,4.5394,4.5763,4.5997,4.5997,4.5997,4.5997,4.5997,4.5997,4.5997,4.5997,4.5997,4.5997,4.5997,4.5997,4.5997,4.5997,4.6037,4.6037,4.6037,4.6056,4.6999,4.8662,4.8662,4.9625,5.1211,5.1211,5.1473,5.2027,5.3351,5.4129,5.4655,5.596,5.6972,5.7829,5.8666,5.9513,6.04,6.1226,6.1518,6.1537,6.1515,6.1479,6.1454,6.1454,6.1381,6.1302,6.1302,6.122,6.1152,6.1152,6.1116,6.1099,6.1099,6.1447,6.2143,6.3439,6.4038,6.4754,6.5992,6.6205,6.6205,6.6205,6.6205,6.6205,6.6205,6.6205,6.605,6.5644,6.5238,6.4638,6.3768,6.2897,6.222,6.1776,6.135,6.1099,6.1099,6.1099,6.1041,6.0901,6.0734,6.0998,6.1735,6.16,6.2426,6.4241,6.5419,6.6578,0.0,0.0,0.0,0.0,0.0,3.1809,0.0,0.0,0.0,0.0,0.0,0.0,0.0,0.0,0.0,0.0,0.0,0.0,0.0,0.0,0.0,0.0,0.0,0.0,0.0,4.4744,4.5308,4.5938,4.556,4.5482,4.5958,4.5997,4.5997,4.5997,4.5997,4.5997,4.5997,4.5997,4.5997,4.5997,4.5997,4.5997,4.6016,4.6171,4.7114,4.8612,4.8787,4.9731,5.119,5.119,5.1793,5.2796,5.3526,5.4324,5.5199,5.6075,5.7359,5.8682,5.8838,5.9919,6.1284,6.144,6.1539,6.1568,6.1568,6.1548,6.1495,6.1495,6.1447,6.1428,6.1428,6.1332,6.1252,6.1252,6.1186,6.1154,6.1116,6.1117,6.162,6.3361,6.369,6.4232,6.5915,6.6205,6.6205,6.6205,6.6205,6.6205,6.6205,6.6205,6.6205,6.6205,6.5624,6.516,6.5006,6.371,6.2762,6.2433,6.1737,6.1273,6.1118,6.1099,6.1099,6.1099,6.1099,6.1427,6.2082,6.2236,6.3361,6.531,6.6132,6.7254,0.0,0.0,0.0,0.0,3.3691,0.0,0.0,0.0,0.0,0.0,0.0,0.0,0.0,0.0,0.0,0.0,0.0,0.0,0.0,0.0,0.0,0.0,0.0,0.0,0.0,4.1926,4.2791,4.5783,4.3909,4.3627,4.588,4.5997,4.5997,4.5997,4.5997,4.5997,4.5997,4.5997,4.5997,4.5997,4.5997,4.5997,4.6035,4.6793,4.7686,4.8649,4.9426,5.0301,5.1194,5.1194,5.2127,5.3577,5.3738,5.4324,5.5199,5.6075,5.697,5.7865,5.8643,5.9538,6.0472,6.125,6.1515,6.1515,6.1515,6.1507,6.1509,6.1509,6.1476,6.1491,6.1491,6.1421,6.1366,6.1366,6.1366,6.1337,6.12,6.1184,6.169,6.3361,6.369,6.4232,6.5915,6.6205,6.6205,6.6205,6.6205,6.6205,6.6205,6.6205,6.6205,6.6205,6.6127,6.576,6.5064,6.4812,6.4058,6.2511,6.2317,6.1911,6.1137,6.1099,6.1099,6.1099,6.1099,6.1505,6.2356,6.3129,6.4108,6.531,6.6132,6.7381,0.0,0.0,0.0,0.0,0.0,0.0,0.0,0.0,3.1382,0.0,0.0,0.0,0.0,0.0,0.0,0.0,0.0,0.0,0.0,0.0,0.0,0.0,0.0,0.0,0.0,0.0,0.0,0.0,4.3092,4.3112,4.5181,4.5744,4.5997,4.5997,4.5997,4.5997,4.5997,4.5997,4.5997,4.5997,4.5997,4.5997,4.6035,4.6909,4.7784,4.8658,4.9512,5.0386,5.1202,5.1202,5.2193,5.3701,5.3724,5.4591,5.5843,5.6224,5.7165,5.835,5.872,5.9743,6.0954,6.1375,6.1503,6.1503,6.1503,6.1507,6.1489,6.1489,6.1528,6.1558,6.1558,6.1515,6.1467,6.1467,6.1441,6.1381,6.1318,6.1318,6.1652,6.2842,6.3451,6.4134,6.5354,6.5916,6.6205,6.6205,6.6205,6.6205,6.6205,6.6205,6.6205,6.6205,6.6205,6.605,6.5721,6.5257,6.4464,6.3226,6.2201,6.1485,6.1118,6.1099,6.1099,6.1099,6.1099,6.1524,6.2394,6.3265,6.4692,6.6588,6.7435,6.8621,3.5093,0.0,0.0,0.0,0.0,0.0,0.0,0.0,0.0,0.0,0.0,0.0,0.0,0.0,0.0,0.0,0.0,0.0,0.0,0.0,0.0,0.0,0.0,0.0,0.0,0.0,0.0,0.0,0.0,4.2002,4.4656,4.5356,4.5763,4.5977,4.5997,4.5997,4.5997,4.6027,4.6027,4.6027,4.6054,4.6162,4.6406,4.7281,4.8146,4.8988,4.9876,5.0614,5.1222,5.145,5.2403,5.3708,5.396,5.4971,5.6291,5.6291,5.736,5.8797,5.8797,5.9951,6.1396,6.146,6.1491,6.1503,6.1503,6.1495,6.1498,6.1509,6.1549,6.1578,6.1607,6.1558,6.1526,6.1526,6.1491,6.1454,6.1441,6.1428,6.1661,6.2449,6.3084,6.3754,6.461,6.5567,6.6205,6.6205,6.6205,6.6205,6.6205,6.6205,6.6205,6.6205,6.6205,6.6205,6.6205,6.5663,6.4948,6.4097,6.2646,6.1718,6.1466,6.1466,6.135,6.1099,6.1099,6.1524,6.2394,6.3265,6.4889,6.7172,6.8274,6.9579,0.0,0.0,0.0,3.5702,0.0,0.0,0.0,0.0,3.4099,0.0,0.0,0.0,0.0,0.0,0.0,0.0,0.0,0.0,0.0,0.0,0.0,0.0,0.0,0.0,0.0,0.0,0.0,0.0,0.0,0.0,4.452,4.4812,4.52,4.5977,4.5997,4.5997,4.5997,4.606,4.6098,4.6098,4.6158,4.6601,4.7377,4.8253,4.9099,4.9912,5.0772,5.1162,5.1272,5.2115,5.2952,5.3766,5.4621,5.5514,5.6291,5.6291,5.736,5.8797,5.8797,5.9951,6.1396,6.1396,6.146,6.1503,6.1503,6.1503,6.1495,6.1498,6.1489,6.1519,6.1578,6.1607,6.1607,6.1607,6.1607,6.1588,6.1515,6.1503,6.1713,6.2463,6.2624,6.292,6.3794,6.5215,6.6205,6.6205,6.6205,6.6205,6.6205,6.6205,6.6205,6.6205,6.6205,6.6205,6.6205,6.6185,6.5818,6.5006,6.4097,6.3245,6.2394,6.2356,6.1969,6.1118,6.1099,6.1524,6.2394,6.3265,6.458,6.6282,6.8003,6.9686,0.0,0.0,4.1805,3.8131,0.0,0.0,0.0,0.0,0.0,0.0,0.0,0.0,0.0,0.0,0.0,0.0,0.0,0.0,0.0,0.0,0.0,0.0,0.0,0.0,0.0,0.0,0.0,0.0,3.8622,0.0,0.0,4.4171,4.4919,4.5204,4.5768,4.6084,4.6131,4.6153,4.6162,4.6162,4.6726,4.7131,4.745,4.8894,4.9703,5.0017,5.0893,5.1277,5.1336,5.2205,5.3045,5.3857,5.4743,5.5567,5.6369,5.6952,5.7865,5.8952,6.0118,6.0914,6.1394,6.1394,6.1428,6.1428,6.1428,6.1434,6.144,6.1495,6.1498,6.1519,6.1578,6.1607,6.1607,6.1607,6.1607,6.1588,6.1568,6.1558,6.1636,6.1888,6.2328,6.277,6.3061,6.3988,6.4685,6.4685,6.5137,6.5469,6.5469,6.5896,6.6205,6.6263,6.6225,6.6225,6.6263,6.5741,6.5316,6.5082,6.4213,6.3555,6.3265,6.3265,6.311,6.282,6.282,6.2975,6.3265,6.4135,6.5412,6.7094,6.8255,6.9396,4.196,4.2905,0.0,4.0154,3.9361,0.0,3.5052,0.0,0.0,0.0,0.0,0.0,0.0,0.0,0.0,0.0,0.0,0.0,0.0,0.0,0.0,0.0,0.0,0.0,0.0,0.0,3.5162,3.7732,3.7384,0.0,0.0,0.0,4.4483,4.4824,4.5688,4.6153,4.6202,4.6195,4.6356,4.6668,4.7203,4.7789,4.8406,4.9519,5.0198,5.0496,5.1076,5.1506,5.1828,5.27,5.3537,5.4339,5.5223,5.6071,5.6865,5.7398,5.8311,5.9477,6.0895,6.14,6.1394,6.1394,6.1428,6.1441,6.1441,6.1421,6.1408,6.1472,6.1476,6.1487,6.1548,6.1558,6.1558,6.1549,6.1559,6.1578,6.1588,6.1812,6.1948,6.1666,6.221,6.2644,6.2363,6.2736,6.3281,6.3828,6.4601,6.5131,6.5131,6.5834,6.632,6.637,6.6338,6.632,6.637,6.5853,6.5544,6.5613,6.5039,6.4558,6.4248,6.4211,6.4057,6.3728,6.371,6.3845,6.4155,6.4715,6.5857,6.752,6.839,6.9222]},{"header":{"parameterUnit":"m.s-1","parameterCategory":1,"la1":30.6,"la2":29.2853,"lo1":-89.7004,"lo2":-87.6739,"dy":0.0162,"dx":0.0183,"nx":112,"ny":82,"refTime":"2025-01-11T06:00:00:Z","depth":0,"parameterNumber":3,"parameterNumberName":"V-component_of_WINDS"},"data":[0.0,0.0,0.0,0.0,0.0,0.0,0.0,0.0,0.0,0.0,0.0,0.0,0.0,0.0,0.0,0.0,0.0,0.0,0.0,0.0,0.0,0.0,0.0,0.0,0.0,0.0,0.0,0.0,0.0,0.0,0.0,0.0,0.0,0.0,0.0,0.0,0.0,0.0,0.0,0.0,0.0,0.0,0.0,0.0,0.0,0.0,0.0,0.0,0.0,0.0,0.0,0.0,0.0,0.0,0.0,0.0,0.0,0.0,0.0,0.0,0.0,0.0,0.0,0.0,0.0,0.0,0.0,0.0,0.0,0.0,0.0,0.0,0.0,0.0,0.0,0.0,0.0,0.0,0.0,0.0,0.0,0.0,0.0,0.0,0.0,0.0,0.0,0.0,0.0,0.0,0.0,-1.876,-1.9922,-2.0448,-2.0053,-1.9522,-1.862,-1.7359,0.0,0.0,0.0,0.0,0.0,0.0,0.0,0.0,0.0,0.0,0.0,0.0,0.0,0.0,0.0,0.0,0.0,0.0,0.0,0.0,0.0,0.0,0.0,0.0,0.0,0.0,0.0,0.0,0.0,0.0,0.0,0.0,0.0,0.0,0.0,0.0,0.0,0.0,0.0,0.0,0.0,0.0,0.0,0.0,0.0,0.0,0.0,0.0,0.0,0.0,0.0,0.0,0.0,0.0,0.0,0.0,0.0,0.0,0.0,0.0,0.0,0.0,0.0,0.0,0.0,0.0,0.0,0.0,0.0,0.0,0.0,0.0,0.0,0.0,0.0,0.0,0.0,0.0,0.0,0.0,0.0,0.0,0.0,0.0,0.0,0.0,0.0,0.0,0.0,0.0,0.0,0.0,0.0,0.0,0.0,0.0,0.0,0.0,0.0,0.0,0.0,0.0,0.0,0.0,-1.7949,-1.9996,-2.0677,-2.086,-2.0466,-1.943,-1.8453,-1.7716,0.0,0.0,0.0,0.0,0.0,0.0,0.0,0.0,0.0,0.0,0.0,0.0,0.0,0.0,0.0,0.0,0.0,0.0,0.0,0.0,0.0,0.0,0.0,0.0,0.0,0.0,0.0,0.0,0.0,0.0,0.0,0.0,0.0,0.0,0.0,0.0,0.0,0.0,0.0,0.0,0.0,0.0,0.0,0.0,0.0,0.0,0.0,0.0,0.0,0.0,0.0,0.0,0.0,0.0,0.0,0.0,0.0,0.0,0.0,0.0,0.0,0.0,0.0,0.0,0.0,0.0,0.0,0.0,0.0,0.0,0.0,0.0,0.0,0.0,0.0,0.0,0.0,0.0,0.0,0.0,0.0,0.0,0.0,0.0,0.0,0.0,0.0,0.0,0.0,0.0,0.0,0.0,0.0,0.0,0.0,0.0,0.0,0.0,0.0,0.0,0.0,0.0,0.0,-1.7492,-1.8686,-2.0642,-2.1209,-2.12,-2.0567,-1.9604,-1.8648,-1.7821,-1.6374,0.0,0.0,0.0,0.0,0.0,0.0,0.0,0.0,0.0,0.0,0.0,0.0,0.0,0.0,0.0,0.0,0.0,0.0,0.0,0.0,0.0,0.0,0.0,0.0,0.0,0.0,0.0,0.0,0.0,0.0,0.0,0.0,0.0,0.0,0.0,0.0,0.0,0.0,0.0,0.0,0.0,0.0,0.0,0.0,0.0,0.0,0.0,0.0,0.0,0.0,0.0,0.0,0.0,0.0,0.0,0.0,0.0,0.0,0.0,0.0,0.0,0.0,0.0,0.0,0.0,0.0,0.0,0.0,0.0,0.0,0.0,0.0,0.0,0.0,0.0,0.0,0.0,0.0,0.0,0.0,0.0,0.0,0.0,0.0,0.0,0.0,0.0,0.0,0.0,0.0,0.0,0.0,0.0,0.0,0.0,0.0,0.0,0.0,0.0,0.0,0.0,0.0,-1.8479,-1.9464,-2.1062,-2.1548,-2.141,-2.0585,-1.9687,-1.874,-1.7831,-1.6166,0.0,0.0,0.0,0.0,0.0,0.0,0.0,0.0,0.0,0.0,0.0,0.0,0.0,0.0,0.0,0.0,0.0,0.0,0.0,0.0,0.0,0.0,0.0,0.0,0.0,0.0,0.0,0.0,0.0,0.0,0.0,0.0,0.0,0.0,0.0,0.0,0.0,0.0,0.0,0.0,0.0,0.0,0.0,0.0,0.0,0.0,0.0,0.0,0.0,0.0,0.0,0.0,0.0,0.0,0.0,0.0,0.0,0.0,0.0,0.0,0.0,0.0,0.0,0.0,0.0,0.0,0.0,0.0,0.0,0.0,0.0,0.0,0.0,0.0,0.0,0.0,0.0,0.0,0.0,0.0,0.0,0.0,0.0,0.0,0.0,0.0,0.0,0.0,0.0,0.0,0.0,0.0,0.0,0.0,0.0,0.0,0.0,0.0,0.0,0.0,0.0,0.0,-1.9193,-2.0292,-2.1557,-2.1722,-2.141,-2.0585,-1.9439,-1.8443,-1.7812,-1.5904,0.0,0.0,0.0,0.0,0.0,0.0,0.0,0.0,0.0,0.0,0.0,0.0,0.0,0.0,0.0,0.0,0.0,0.0,0.0,0.0,0.0,0.0,0.0,0.0,0.0,0.0,0.0,0.0,0.0,0.0,0.0,0.0,0.0,0.0,0.0,0.0,0.0,0.0,0.0,0.0,0.0,0.0,0.0,0.0,0.0,0.0,0.0,0.0,0.0,0.0,0.0,0.0,0.0,0.0,0.0,0.0,0.0,0.0,0.0,0.0,0.0,0.0,0.0,0.0,0.0,0.0,0.0,0.0,0.0,0.0,0.0,0.0,0.0,0.0,0.0,0.0,0.0,0.0,0.0,0.0,0.0,0.0,0.0,0.0,0.0,0.0,0.0,0.0,0.0,0.0,0.0,0.0,0.0,0.0,0.0,0.0,0.0,0.0,0.0,0.0,0.0,0.0,-1.8676,-1.9996,0.0,-2.1741,-2.1137,-1.9803,-1.9309,-1.8263,-1.6478,0.0,0.0,0.0,0.0,0.0,0.0,0.0,0.0,0.0,0.0,0.0,0.0,0.0,0.0,0.0,0.0,0.0,0.0,0.0,0.0,0.0,0.0,0.0,0.0,0.0,0.0,0.0,0.0,0.0,0.0,0.0,0.0,0.0,0.0,0.0,0.0,0.0,0.0,0.0,0.0,0.0,0.0,0.0,0.0,0.0,0.0,0.0,0.0,0.0,0.0,0.0,0.0,0.0,0.0,0.0,0.0,0.0,0.0,0.0,0.0,0.0,0.0,0.0,0.0,0.0,0.0,0.0,0.0,0.0,0.0,0.0,0.0,0.0,0.0,0.0,0.0,0.0,0.0,0.0,0.0,0.0,0.0,0.0,0.0,0.0,0.0,0.0,0.0,0.0,0.0,0.0,0.0,0.0,0.0,0.0,0.0,0.0,0.0,0.0,0.0,0.0,0.0,-1.7359,-1.8742,-2.0079,0.0,-2.1741,-2.1049,-1.9376,-1.8912,-1.7841,-1.5709,0.0,0.0,0.0,0.0,0.0,0.0,0.0,0.0,0.0,0.0,0.0,0.0,0.0,0.0,0.0,0.0,0.0,0.0,0.0,0.0,0.0,0.0,0.0,0.0,0.0,0.0,0.0,0.0,0.0,0.0,0.0,0.0,0.0,0.0,0.0,0.0,0.0,0.0,0.0,0.0,0.0,0.0,0.0,0.0,0.0,0.0,0.0,0.0,0.0,0.0,0.0,0.0,0.0,0.0,0.0,0.0,0.0,0.0,0.0,0.0,0.0,0.0,0.0,0.0,0.0,0.0,0.0,0.0,0.0,0.0,0.0,0.0,0.0,0.0,0.0,0.0,0.0,0.0,0.0,0.0,0.0,0.0,0.0,0.0,0.0,0.0,0.0,0.0,0.0,0.0,0.0,0.0,0.0,0.0,0.0,0.0,0.0,0.0,0.0,0.0,0.0,0.0,-1.7822,-1.9456,-2.0833,-2.156,-2.1651,-2.1049,-1.9367,-1.8181,-1.7098,0.0,0.0,0.0,0.0,0.0,0.0,0.0,0.0,0.0,0.0,0.0,0.0,0.0,0.0,0.0,0.0,0.0,0.0,0.0,0.0,0.0,0.0,0.0,0.0,0.0,0.0,0.0,0.0,0.0,0.0,0.0,0.0,0.0,0.0,0.0,0.0,0.0,0.0,0.0,0.0,0.0,0.0,0.0,0.0,0.0,0.0,0.0,0.0,0.0,0.0,0.0,0.0,0.0,0.0,0.0,0.0,0.0,0.0,0.0,0.0,0.0,0.0,0.0,0.0,0.0,0.0,0.0,0.0,0.0,0.0,0.0,0.0,0.0,0.0,0.0,0.0,0.0,0.0,0.0,0.0,0.0,0.0,0.0,0.0,0.0,0.0,0.0,0.0,0.0,0.0,0.0,0.0,0.0,0.0,0.0,0.0,0.0,0.0,0.0,0.0,0.0,0.0,0.0,0.0,-1.9164,-2.0567,-2.0729,-2.0709,-2.0047,-1.8246,-1.792,-1.6885,-1.4915,0.0,0.0,0.0,0.0,0.0,0.0,0.0,0.0,0.0,0.0,0.0,0.0,0.0,0.0,0.0,0.0,0.0,0.0,0.0,0.0,0.0,0.0,0.0,0.0,0.0,0.0,0.0,0.0,0.0,0.0,0.0,0.0,0.0,0.0,0.0,0.0,0.0,0.0,0.0,0.0,0.0,0.0,0.0,0.0,0.0,0.0,0.0,0.0,0.0,0.0,0.0,0.0,0.0,0.0,0.0,0.0,0.0,0.0,0.0,0.0,0.0,0.0,0.0,0.0,0.0,0.0,0.0,0.0,0.0,0.0,0.0,0.0,0.0,0.0,0.0,0.0,0.0,0.0,0.0,0.0,0.0,0.0,0.0,0.0,0.0,0.0,0.0,0.0,0.0,0.0,0.0,0.0,0.0,0.0,0.0,0.0,0.0,0.0,0.0,0.0,0.0,0.0,-1.6235,-1.8136,-1.9497,-1.972,-1.9704,-1.9101,-1.747,-1.7099,-1.6097,-1.4106,0.0,0.0,0.0,0.0,0.0,0.0,0.0,0.0,0.0,0.0,0.0,0.0,0.0,0.0,0.0,0.0,0.0,0.0,0.0,0.0,0.0,0.0,0.0,0.0,0.0,0.0,0.0,0.0,0.0,0.0,0.0,0.0,0.0,0.0,0.0,0.0,0.0,0.0,0.0,0.0,0.0,0.0,0.0,0.0,0.0,0.0,0.0,0.0,0.0,0.0,0.0,0.0,0.0,0.0,0.0,0.0,0.0,0.0,0.0,0.0,0.0,0.0,0.0,0.0,0.0,0.0,0.0,0.0,0.0,0.0,0.0,0.0,0.0,0.0,0.0,0.0,0.0,0.0,0.0,0.0,0.0,0.0,0.0,0.0,0.0,0.0,0.0,0.0,0.0,0.0,0.0,0.0,0.0,0.0,0.0,0.0,0.0,0.0,0.0,0.0,0.0,0.0,-1.55,-1.6934,-1.8081,-1.8808,-1.8788,-1.8279,-1.7032,-1.6137,-1.5076,-1.3603,0.0,0.0,0.0,0.0,0.0,0.0,0.0,0.0,0.0,0.0,0.0,0.0,0.0,0.0,0.0,0.0,0.0,0.0,0.0,0.0,0.0,0.0,0.0,0.0,0.0,0.0,0.0,0.0,0.0,0.0,0.0,0.0,0.0,0.0,0.0,0.0,0.0,0.0,0.0,0.0,0.0,0.0,0.0,0.0,0.0,0.0,0.0,0.0,0.0,0.0,0.0,0.0,0.0,0.0,0.0,0.0,0.0,0.0,0.0,0.0,-1.3134,0.0,0.0,0.0,0.0,0.0,0.0,0.0,0.0,0.0,0.0,0.0,0.0,0.0,0.0,0.0,0.0,0.0,0.0,0.0,0.0,0.0,0.0,0.0,0.0,0.0,0.0,0.0,0.0,0.0,0.0,0.0,0.0,0.0,0.0,0.0,0.0,0.0,0.0,0.0,0.0,0.0,-1.6937,-1.8231,-1.9062,-1.9074,-1.8619,-1.8026,-1.7402,-1.6707,-1.5851,-1.4956,0.0,0.0,0.0,0.0,0.0,0.0,0.0,0.0,0.0,0.0,0.0,0.0,0.0,0.0,0.0,0.0,0.0,0.0,0.0,0.0,0.0,0.0,0.0,0.0,0.0,0.0,0.0,0.0,0.0,0.0,0.0,0.0,0.0,0.0,0.0,0.0,0.0,0.0,0.0,0.0,0.0,0.0,0.0,0.0,0.0,0.0,0.0,0.0,0.0,0.0,0.0,0.0,0.0,0.0,0.0,0.0,0.0,0.0,0.0,0.0,0.0,-1.392,0.0,0.0,0.0,0.0,0.0,0.0,0.0,0.0,0.0,0.0,0.0,0.0,0.0,0.0,0.0,0.0,0.0,0.0,0.0,0.0,0.0,0.0,0.0,0.0,0.0,0.0,0.0,0.0,0.0,0.0,0.0,0.0,0.0,0.0,0.0,0.0,0.0,0.0,0.0,0.0,-1.5939,-1.6822,-1.7389,-1.7517,-1.7326,-1.708,-1.6714,-1.621,-1.5459,-1.465,-1.3599,0.0,0.0,0.0,0.0,0.0,0.0,0.0,0.0,0.0,0.0,0.0,0.0,0.0,0.0,0.0,0.0,0.0,0.0,0.0,0.0,0.0,0.0,0.0,0.0,0.0,0.0,0.0,0.0,0.0,0.0,0.0,0.0,0.0,0.0,0.0,0.0,0.0,0.0,0.0,0.0,0.0,0.0,0.0,0.0,0.0,0.0,0.0,0.0,0.0,0.0,0.0,0.0,0.0,-1.5602,-1.575,-1.6116,-1.6015,-1.5952,-1.6002,-1.5452,-1.5096,-1.4984,0.0,0.0,0.0,0.0,0.0,0.0,0.0,0.0,0.0,0.0,0.0,0.0,0.0,0.0,0.0,0.0,0.0,0.0,0.0,0.0,0.0,0.0,0.0,0.0,0.0,-1.4779,-1.4227,0.0,0.0,0.0,0.0,0.0,0.0,0.0,0.0,0.0,0.0,0.0,0.0,-1.4733,-1.5147,-1.5602,-1.6048,-1.6211,-1.6218,-1.592,-1.5599,-1.5034,-1.4158,-1.3348,-1.2586,0.0,0.0,0.0,0.0,0.0,0.0,0.0,0.0,0.0,0.0,0.0,0.0,0.0,0.0,0.0,0.0,0.0,0.0,0.0,0.0,0.0,0.0,0.0,0.0,0.0,0.0,0.0,0.0,0.0,0.0,0.0,0.0,-1.4378,-1.411,0.0,0.0,0.0,0.0,0.0,0.0,0.0,0.0,0.0,0.0,0.0,0.0,0.0,-1.5694,-1.6232,-1.5807,-1.5725,-1.5905,-1.5876,-1.5848,-1.5985,-1.6253,-1.6307,-1.6344,-1.6253,0.0,-1.511,-1.4891,0.0,0.0,0.0,0.0,0.0,0.0,0.0,0.0,0.0,0.0,0.0,0.0,0.0,0.0,0.0,0.0,0.0,0.0,0.0,0.0,0.0,0.0,-1.4262,-1.422,-1.4911,-1.5353,0.0,-1.3733,-1.3259,-1.3435,-1.2674,0.0,0.0,0.0,0.0,0.0,0.0,0.0,-1.5834,-1.6465,-1.7014,-1.7368,-1.6958,-1.6494,-1.6494,-1.6167,-1.5708,-1.5144,-1.4144,-1.3577,-1.3653,-1.2108,0.0,0.0,0.0,0.0,0.0,0.0,0.0,0.0,0.0,0.0,0.0,0.0,0.0,0.0,0.0,0.0,0.0,0.0,0.0,0.0,0.0,0.0,0.0,0.0,0.0,0.0,0.0,0.0,0.0,-1.5091,-1.5548,-1.5802,-1.6186,-1.6252,0.0,0.0,0.0,0.0,0.0,0.0,0.0,0.0,0.0,-1.6263,-1.5881,-1.5838,-1.6085,-1.5906,-1.5987,-1.644,-1.6477,-1.6535,-1.6711,-1.685,-1.6908,-1.6908,-1.6908,-1.6662,-1.6077,-1.569,-1.5439,-1.5342,0.0,0.0,0.0,0.0,-1.6378,-1.6725,-1.6156,-1.584,0.0,0.0,0.0,0.0,0.0,0.0,0.0,0.0,0.0,0.0,0.0,0.0,0.0,-1.6162,-1.6031,-1.5855,-1.5518,-1.4849,-1.4392,0.0,-1.3846,-1.3477,-1.3612,0.0,0.0,0.0,0.0,0.0,-1.5478,-1.5893,-1.6338,-1.6828,-1.6676,-1.6494,-1.6407,-1.6369,-1.6061,-1.5393,-1.4575,-1.4049,-1.3815,-1.3282,-1.2885,0.0,0.0,0.0,0.0,0.0,0.0,0.0,0.0,0.0,0.0,0.0,0.0,0.0,0.0,0.0,0.0,0.0,0.0,0.0,0.0,0.0,0.0,0.0,0.0,0.0,0.0,0.0,0.0,-1.6161,-1.6595,-1.6946,-1.7189,-1.7126,0.0,0.0,0.0,0.0,0.0,0.0,-1.7239,-1.6648,-1.659,-1.7201,-1.6477,-1.6149,-1.6488,-1.6316,-1.6513,-1.6974,-1.6974,-1.7099,-1.7326,-1.7326,-1.7326,-1.7326,-1.7326,-1.7194,-1.7,-1.644,-1.6047,-1.5795,-1.5827,-1.6038,-1.6426,-1.6758,-1.6928,-1.7013,-1.6924,-1.6538,-1.5944,-1.5294,0.0,-1.4952,-1.5158,0.0,0.0,0.0,0.0,-1.7206,-1.707,-1.7485,-1.7881,-1.7771,-1.7135,-1.6607,-1.643,-1.6267,-1.587,0.0,-1.4728,-1.447,-1.4315,0.0,0.0,0.0,0.0,-1.4519,-1.4979,-1.5356,-1.5685,-1.6103,-1.6305,-1.6305,-1.6123,-1.6305,-1.6115,-1.5524,-1.503,-1.4516,-1.4001,-1.4122,-1.3828,-1.2948,0.0,0.0,0.0,0.0,0.0,0.0,0.0,0.0,0.0,0.0,0.0,0.0,0.0,0.0,0.0,0.0,0.0,0.0,0.0,0.0,0.0,0.0,0.0,0.0,0.0,0.0,0.0,0.0,0.0,-1.6305,-1.78,0.0,0.0,0.0,0.0,-1.8721,-1.8035,-1.7633,-1.779,-1.6575,-1.6364,-1.7271,-1.6718,-1.6979,-1.8208,-1.7552,-1.7274,-1.7304,-1.7304,-1.7311,-1.7326,-1.7326,-1.7326,-1.7326,-1.7326,-1.7318,-1.7252,-1.6594,-1.6797,-1.7438,-1.7163,-1.7629,-1.8391,-1.7421,-1.7327,-1.7379,-1.6305,-1.5899,-1.5893,-1.6005,-1.5948,-1.6216,-1.7929,-1.7865,0.0,0.0,-1.7319,-1.727,-1.7463,-1.6973,-1.6634,-1.7749,-1.8033,-1.7785,-1.7145,-1.7774,-1.7833,0.0,-1.4719,-1.4436,-1.4772,0.0,-1.4399,-1.4554,-1.5011,-1.5317,-1.5048,-1.5438,-1.5812,-1.5825,-1.5832,-1.5832,-1.5825,-1.5832,-1.5818,-1.5805,-1.5524,-1.5217,-1.491,-1.4132,-1.3846,-1.4181,-1.3099,0.0,0.0,0.0,0.0,0.0,0.0,0.0,0.0,0.0,0.0,0.0,0.0,0.0,0.0,0.0,0.0,0.0,0.0,0.0,0.0,0.0,0.0,0.0,0.0,0.0,0.0,0.0,0.0,-1.8273,-1.9042,0.0,-1.9002,-1.9062,-1.9136,-1.9136,-1.8709,-1.8664,-1.927,-1.8112,-1.7895,-1.8746,-1.7612,-1.7217,-1.7604,-1.7453,-1.7326,-1.7326,-1.7326,-1.7326,-1.7326,-1.7326,-1.7326,-1.7326,-1.7326,-1.7326,-1.7311,-1.7084,-1.7063,-1.7105,-1.6984,-1.7054,-1.7211,-1.7021,-1.7014,-1.7151,-1.6838,-1.6646,-1.6288,-1.6042,-1.5749,-1.5718,-1.6548,-1.7016,-1.7154,-1.6824,-1.7525,-1.8425,-1.8206,-1.788,-1.7911,-1.9107,-1.8511,-1.7699,-1.8071,-1.7972,-1.7452,-1.6507,-1.6037,-1.5631,-1.5299,-1.5063,-1.4993,-1.4932,-1.5259,-1.5382,-1.5224,-1.5585,-1.5832,-1.6028,-1.6028,-1.6028,-1.6028,-1.6028,-1.5947,-1.5565,-1.5277,-1.4983,-1.4689,-1.4691,-1.4772,-1.468,-1.4592,-1.4152,0.0,0.0,0.0,0.0,0.0,0.0,0.0,0.0,0.0,0.0,0.0,0.0,0.0,0.0,0.0,0.0,0.0,0.0,0.0,0.0,0.0,0.0,0.0,0.0,0.0,0.0,-1.8478,-1.9774,-2.0209,-2.0422,-2.0254,-2.0213,-2.0177,-2.0177,-1.9497,-1.9498,-2.0578,-1.9247,-1.8889,-1.9775,-1.8485,-1.7971,-1.8234,-1.8077,-1.813,-1.8505,-1.8613,-1.8486,-1.821,-1.821,-1.8028,-1.7655,-1.7655,-1.7655,-1.7655,-1.7655,-1.753,-1.7318,-1.7099,-1.6978,-1.6906,-1.712,-1.7202,-1.7323,-1.7353,-1.7153,-1.6749,-1.6722,-1.65,-1.6314,-1.6862,-1.7303,-1.7527,-1.7037,-1.7728,-1.8486,-1.8548,-1.8241,-1.8334,-1.9422,-1.8511,-1.7512,-1.8149,-1.7699,-1.7153,-1.7073,-1.6813,-1.6557,-1.5951,-1.5796,-1.5666,-1.5507,-1.5617,-1.5638,-1.5545,-1.5806,-1.6028,-1.6218,-1.6224,-1.6224,-1.6224,-1.6035,-1.5798,-1.5411,-1.503,-1.4683,-1.4389,-1.4809,-1.5031,-1.5001,-1.5295,-1.5104,-1.4458,0.0,0.0,0.0,0.0,0.0,0.0,0.0,0.0,0.0,0.0,0.0,0.0,0.0,0.0,0.0,0.0,0.0,0.0,0.0,0.0,0.0,0.0,0.0,-1.8434,-1.9235,-1.9949,-2.0585,-2.1409,-2.1568,-2.0591,-2.1332,-2.1924,-2.1924,-2.0553,-2.0307,-2.1676,-1.9886,-1.9263,-2.0158,-1.9363,-1.9271,-2.0175,-1.9706,-1.9972,-2.0916,-2.1277,-2.0875,-1.9828,-1.9925,-1.9349,-1.8299,-1.8299,-1.8299,-1.8299,-1.8299,-1.8299,-1.824,-1.7604,-1.7463,-1.7759,-1.7759,-1.7938,-1.8117,-1.7845,-1.7384,-1.7189,-1.8087,-1.8156,-1.8141,-1.9163,-1.898,-1.8434,-1.8334,-1.7878,-1.7606,-1.8519,-1.8064,-1.7505,-1.8519,-1.8064,-1.7333,-1.7326,-1.7153,-1.6979,-1.6979,-1.6979,-1.6885,-1.6683,-1.6588,-1.6494,-1.6218,-1.6224,0.0,-1.5832,-1.6028,-1.6224,-1.6224,-1.6224,-1.6224,-1.6224,-1.5665,-1.5391,-1.5371,-1.483,-1.4376,-1.4082,-1.4146,-1.4443,-1.5099,-1.5089,-1.521,-1.5386,0.0,0.0,0.0,0.0,0.0,0.0,0.0,0.0,0.0,0.0,0.0,0.0,0.0,0.0,0.0,0.0,0.0,0.0,0.0,0.0,0.0,0.0,-1.9278,-1.9745,-1.995,-2.0456,-2.1579,-2.2103,-2.2314,-2.234,-2.1959,-2.2082,-2.2707,-2.1738,-2.1575,-2.2687,-2.1145,-2.0273,-2.055,-1.9968,-1.9734,-2.0012,-2.0579,-2.0629,-2.0166,-2.1111,-2.049,-1.8784,-1.9544,-1.9349,-1.8299,-1.8299,-1.8299,-1.8299,-1.8299,-1.8299,-1.8284,-1.8101,-1.8035,-1.814,-1.814,-1.8327,-1.8514,-1.8043,-1.7855,-1.7901,-1.7765,-1.7588,-1.7633,-1.786,-1.8241,-1.8519,-1.7785,-1.7963,-1.8241,-1.7878,-1.7512,-1.7505,-1.8519,-1.8064,-1.7512,-1.8241,-1.7792,-1.7239,-1.7239,-1.7239,-1.7059,-1.6676,-1.6588,-1.6581,-1.6494,-1.6312,0.0,-1.6123,-1.6021,-1.5927,-1.5927,-1.5927,-1.5927,-1.5927,-1.5565,-1.5308,0.0,-1.4502,-1.4159,-1.3946,-1.3845,-1.4111,-1.4892,-1.4832,-1.4855,0.0,0.0,0.0,0.0,0.0,0.0,0.0,0.0,0.0,0.0,0.0,0.0,0.0,0.0,0.0,0.0,0.0,0.0,0.0,0.0,0.0,0.0,-1.9498,-2.0503,-2.1156,-2.11,-2.1392,-2.2436,-2.2774,-2.2967,-2.3115,-2.2599,-2.2501,-2.3047,-2.2236,-2.2045,-2.2669,-2.1423,-2.0593,-2.0289,-2.0495,-2.0506,-2.0506,-2.1315,-2.1786,-2.2075,-2.2426,-2.1922,-2.0761,-2.095,-2.0365,0.0,-1.8903,-1.9004,-1.9398,-1.8903,-1.9004,0.0,0.0,0.0,0.0,0.0,-1.8701,-1.8701,-1.8313,-1.8214,-1.8269,-1.7891,-1.8021,-1.8364,-1.789,-1.8388,-1.9044,-1.8015,-1.811,-1.8483,-1.7824,-1.7633,-1.7625,-1.827,-1.7796,-1.7419,-1.8056,-1.7692,-1.7326,-1.7326,-1.7326,0.0,-1.6958,-1.6864,-1.6864,-1.6777,-1.6595,-1.6501,-1.6407,-1.6211,-1.6109,-1.6109,-1.6021,-1.5933,-1.5933,-1.5658,0.0,0.0,0.0,-1.4007,-1.3843,-1.3985,0.0,0.0,0.0,0.0,0.0,0.0,0.0,0.0,-1.7088,-1.7434,0.0,0.0,0.0,0.0,0.0,0.0,0.0,0.0,0.0,0.0,0.0,0.0,0.0,0.0,0.0,0.0,-2.0584,-2.1405,-2.2422,-2.2479,-2.2575,-2.3143,-2.3352,-2.3416,-2.3222,-2.3047,-2.3067,-2.3203,-2.2302,-2.2032,-2.2437,0.0,0.0,0.0,0.0,-2.1682,-2.1682,-2.2214,-2.3266,-2.4946,-2.4528,-2.4088,-2.3683,-2.2885,-2.1887,-2.068,-1.9879,-1.9983,-2.0688,-1.9776,-1.9983,-2.0625,-1.9029,-1.8515,-1.8828,-1.9018,-1.8919,-1.8828,-1.8728,0.0,0.0,-1.8372,-1.8935,-1.9517,-1.8602,-1.8882,-1.9462,-1.8595,-1.8299,-1.8299,-1.8299,-1.8086,-1.7874,-1.7874,-1.7647,-1.7428,-1.7391,-1.7384,-1.7377,-1.7333,-1.7326,-1.7326,-1.7326,-1.7326,-1.7239,-1.7066,-1.6979,-1.6878,-1.6683,-1.6588,-1.6588,-1.6588,0.0,0.0,-1.613,-1.5665,-1.5384,-1.5351,-1.4583,-1.4104,-1.3817,-1.4445,-1.4948,-1.5271,-1.5947,-1.6408,-1.6777,-1.6947,-1.7064,-1.7032,-1.8056,-1.8854,0.0,0.0,0.0,0.0,0.0,0.0,0.0,0.0,0.0,0.0,0.0,0.0,0.0,0.0,0.0,-2.0186,-2.1111,-2.1955,-2.2735,-2.3198,-2.3448,-2.3451,-2.3454,-2.3503,-2.3667,-2.294,-2.2909,-2.3801,-2.3005,-2.2913,-2.389,-2.3372,-2.2916,-2.2795,-2.3295,-2.3564,-2.3564,-2.4557,-2.479,-2.4272,0.0,0.0,-2.1591,-2.219,-2.1489,-1.968,-2.0285,-2.0181,-1.968,-2.0285,-2.0277,-1.9864,-1.9339,-1.9089,-1.9199,-1.8993,-1.9192,-1.939,-1.8993,-1.9089,-1.9346,-1.8876,-1.8795,-1.8944,-1.8478,-1.8397,0.0,-1.8397,-1.8299,-1.8299,-1.8299,-1.8255,-1.8211,-1.8211,-1.816,-1.8043,-1.7779,-1.7721,-1.7647,-1.7377,-1.7326,-1.7326,-1.7326,-1.7326,-1.7333,-1.7239,-1.7066,-1.6979,-1.6885,-1.6683,-1.6494,-1.6312,-1.6218,-1.6123,-1.5927,-1.5565,-1.5389,-1.5237,-1.4838,-1.4527,-1.4345,-1.4776,-1.5027,-1.5046,-1.5163,-1.5341,-1.5403,-1.661,-1.7231,-1.7209,-1.762,-1.7842,0.0,0.0,0.0,0.0,0.0,0.0,0.0,0.0,0.0,0.0,0.0,-1.887,-1.9506,0.0,-2.0762,-2.1336,-2.2109,-2.2848,-2.3288,-2.371,-2.3937,-2.3667,-2.3764,-2.3844,-2.3967,-2.3536,-2.3534,-2.4244,-2.3909,-2.39,-2.4145,-2.3965,-2.368,-2.3394,-2.4085,-2.4492,-2.4285,-2.4805,-2.5011,-2.4913,-2.4913,-2.4097,-2.2484,-2.2484,-2.1887,-2.0885,-2.0277,-2.038,-2.0885,-2.1089,-2.0585,-1.9983,-2.0388,-2.0181,-1.968,-1.9583,-1.9583,-1.968,-1.9376,-1.9376,-1.945,-1.9184,-1.903,-1.9001,-1.884,-1.8789,-1.8789,-1.8789,-1.8789,-1.8789,-1.8789,-1.8664,-1.8547,-1.8547,-1.8423,-1.8255,-1.8094,-1.8057,-1.7962,-1.764,-1.7574,-1.7523,-1.7355,-1.7326,-1.7326,-1.7326,-1.7239,-1.7153,-1.7153,-1.6972,-1.6784,-1.6602,-1.6319,-1.6123,-1.6028,-1.5792,-1.5484,-1.5281,-1.5127,-1.5053,-1.4957,-1.5237,-1.5464,-1.5618,-1.5765,-1.5832,-1.5832,-1.6601,-1.7036,-1.7029,-1.7087,-1.7677,0.0,0.0,0.0,0.0,0.0,0.0,0.0,0.0,-1.8344,-1.8757,-1.9621,-2.0386,-2.0636,-2.146,-2.2226,-2.2431,-2.3026,-2.3523,-2.3617,-2.3937,-2.4024,-2.3841,-2.4024,-2.4196,-2.4187,-2.4227,-2.4356,-2.4687,-2.4829,-2.483,-2.4382,-2.4584,-2.4437,-2.398,-2.4698,-2.4992,-2.4786,-2.4796,-2.5011,-2.5732,-2.4805,-2.4196,-2.3791,-2.2885,-2.2282,-2.1785,-2.0078,-2.038,-2.219,-2.1591,-2.0987,-2.0483,-2.1387,-2.1183,-2.0483,-2.0277,-1.9975,-1.968,-1.9576,-1.948,-1.9279,-1.9279,-1.9279,-1.9279,-1.9279,-1.9279,-1.9279,-1.9279,-1.9279,-1.9279,-1.9279,-1.9081,-1.8884,-1.8884,-1.8686,-1.8474,-1.8408,-1.8394,-1.8299,-1.7969,-1.7911,-1.783,-1.756,-1.7516,-1.7472,-1.7347,-1.7326,-1.7355,-1.7413,-1.7247,-1.7188,-1.7158,-1.6777,-1.6491,-1.6395,-1.6101,-1.5899,-1.5665,-1.5651,-1.5651,-1.5651,-1.5872,-1.6112,-1.6353,-1.6587,-1.6707,-1.6707,-1.6767,-1.682,-1.6881,-1.6941,-1.7823,-1.889,-1.819,0.0,-1.7714,-1.8063,-1.853,0.0,0.0,-1.989,-1.9975,-2.0213,-2.0533,-2.0933,-2.1501,-2.205,-2.2448,-2.2879,-2.3173,-2.3222,-2.3406,-2.359,-2.3754,-2.4024,-2.438,-2.473,-2.4672,-2.4937,-2.5598,-2.5658,-2.5859,-2.6204,-2.6224,-2.6244,-2.6091,-2.5994,-2.5994,-2.5897,-2.5723,-2.5635,-2.5742,-2.5538,-2.452,-2.2685,-2.2584,-2.1489,-1.968,-1.9376,-1.9983,-2.1081,-2.1285,-2.1387,-2.1481,-2.1684,-2.1785,-2.1785,-2.1049,-2.0254,-1.968,-1.9175,-1.9182,-1.9279,-1.9279,-1.9279,-1.9279,-1.9279,-1.9279,-1.9279,-1.9279,-1.9279,-1.9279,-1.9279,-1.925,-1.922,-1.922,-1.9199,-1.9089,-1.8796,-1.8738,-1.8635,-1.8313,-1.8247,-1.824,-1.8196,-1.8196,-1.7999,-1.7421,-1.7326,-1.7435,-1.7721,-1.7765,-1.7688,-1.7781,-1.7718,-1.752,-1.7025,-1.6713,-1.6593,-1.656,-1.656,-1.656,-1.656,-1.6587,-1.662,-1.6653,-1.6687,-1.6707,-1.6707,-1.6974,-1.7235,-1.7488,-1.7769,-1.7855,-1.8717,0.0,0.0,0.0,-1.8505,-1.9145,-1.9339,-1.9984,-2.0654,-2.0924,-2.1335,-2.1737,-2.2171,-2.2448,-2.2676,0.0,-2.3114,-2.3319,-2.3319,-2.3493,-2.3667,-2.3754,-2.4024,-2.4395,-2.4906,-2.5167,-2.5442,-2.5954,-2.6215,-2.6506,-2.6688,-2.688,-2.6976,-2.6976,-2.687,-2.6678,-2.6602,-2.641,-2.6314,-2.612,-2.5411,-2.4196,-2.2693,-2.1887,-2.0783,-1.9376,-1.9983,-2.0181,-2.0181,-2.0285,-2.0483,-2.0783,-2.1489,-2.1387,-2.0885,-2.057,-2.0063,-1.968,-1.948,-1.9376,-1.9279,-1.9279,-1.9279,-1.9279,-1.9279,-1.9279,-1.9279,-1.9279,-1.9279,-1.9279,-1.9279,-1.9279,-1.9279,-1.9279,-1.9279,-1.9242,-1.9103,-1.9074,-1.8979,-1.865,-1.8584,-1.8525,-1.8335,-1.8299,-1.8211,-1.7933,-1.7896,-1.7947,-1.8079,-1.8101,-1.8054,-1.7903,-1.7917,-1.7718,-1.742,-1.7313,-1.7114,-1.6914,-1.6914,-1.6988,-1.6961,-1.6967,-1.7041,-1.7215,-1.7215,-1.7308,-1.7488,-1.7609,-1.7822,-1.8116,-1.8346,-1.8536,-1.8454,0.0,0.0,-1.837,-1.9113,-1.9725,-2.0129,-2.0751,-2.1398,-2.1755,-2.2195,-2.2664,-2.2858,-2.3024,0.0,-2.3135,-2.3232,-2.3416,-2.3416,-2.3493,-2.3667,-2.3667,-2.3851,-2.424,-2.4806,-2.5179,-2.5573,-2.5958,-2.6426,-2.6699,-2.6805,-2.7081,-2.7167,-2.7167,-2.7071,-2.6986,-2.6794,-2.6613,-2.6506,-2.6217,-2.4992,-2.3989,-2.3185,-2.1582,-2.0483,-1.9879,-2.0285,-2.0388,-2.0181,-2.0585,-2.0783,-2.1089,-2.1887,-2.1489,-2.0388,-1.9983,-1.9783,-1.9583,-1.9583,-1.9376,-1.9175,-1.9279,-1.9279,-1.9279,-1.9279,-1.9279,-1.9279,-1.9279,-1.9279,-1.9279,-1.9279,-1.9279,-1.9279,-1.9279,-1.9279,-1.9279,-1.9279,-1.9279,-1.9206,-1.8972,-1.8921,-1.8847,-1.8613,-1.8469,-1.8361,-1.8361,-1.816,-1.8232,-1.8445,-1.8511,-1.8476,-1.8283,-1.8182,-1.8081,-1.798,-1.7872,-1.7764,-1.7461,-1.7468,-1.7462,-1.7571,-1.7578,-1.7721,-1.7907,-1.7914,-1.807,-1.8381,-1.8381,-1.8536,-1.8827,-1.9042,-1.9312,0.0,0.0,-1.8407,-1.9731,-2.0042,-2.0423,-2.1909,-2.2248,-2.2312,-2.2397,-2.2721,-2.2961,-2.2601,-2.2861,-2.3135,-2.3135,-2.3144,-2.3135,-2.3135,-2.3135,-2.3232,-2.3503,-2.3503,-2.3672,0.0,-2.4726,-2.5349,-2.5812,-2.6044,-2.6197,-2.6496,-2.6794,-2.69,-2.69,-2.6699,-2.6496,-2.6496,-2.6024,-2.5732,-2.5732,-2.4609,-2.4088,-2.3989,-2.1887,-2.0987,-2.1191,-1.9879,-2.0078,-2.1387,-2.2685,-2.3185,-2.3194,-2.3285,-2.2484,-2.1089,-1.9776,-1.9272,-1.9272,-1.9272,-1.9175,-1.8974,-1.9175,-1.9279,-1.9279,-1.9279,-1.9279,-1.9279,-1.9279,-1.9279,-1.9279,-1.9279,-1.9279,-1.9279,-1.9279,-1.9279,-1.9279,-1.9279,-1.9279,-1.9272,-1.9264,-1.9257,-1.9257,-1.925,-1.8819,-1.8394,-1.8394,-1.7975,-1.7873,-1.8709,-1.9052,-1.925,-1.9242,-1.9049,-1.8848,-1.884,-1.8513,-1.8394,-1.8394,-1.8394,-1.8401,-1.8408,-1.8408,-1.8555,-1.887,-1.887,-1.9024,-1.9339,-1.9339,-1.95,-1.9794,-1.9794,-1.9962,0.0,0.0,-1.916,-1.9899,-2.0804,-2.1712,-2.2215,-2.2553,-2.2723,-2.2424,-2.2515,-2.2522,-2.2178,-2.2441,-2.2725,-2.2725,-2.2959,-2.3135,-2.3135,-2.3135,-2.3135,-2.3232,-2.3406,0.0,0.0,0.0,0.0,-2.5595,-2.5774,-2.6089,-2.6486,-2.6794,-2.6805,-2.6602,-2.6699,-2.6699,-2.6496,-2.6304,-2.6217,-2.6217,-2.4992,-2.3989,-2.3294,-2.1582,-2.1089,-2.1183,-1.9879,-1.9576,-1.9983,-2.0483,-2.0688,-2.0688,-2.0688,-2.038,-1.9879,-1.948,-1.9175,-1.9078,-1.9279,-1.9279,-1.9175,-1.9272,-1.9279,-1.9279,-1.9279,-1.9279,-1.9279,-1.9279,-1.9279,-1.9279,-1.9279,-1.9279,-1.9279,-1.9279,-1.9279,-1.9279,-1.9279,-1.9279,-1.9279,-1.9279,-1.9279,-1.9168,-1.8743,-1.8527,-1.8248,-1.7633,-1.7873,-1.8276,-1.849,-1.8998,-1.9279,-1.9279,-1.9175,-1.9175,-1.9175,-1.9063,-1.9045,-1.9049,-1.8957,-1.9049,-1.9031,-1.9038,-1.9087,-1.9192,-1.9199,-1.9346,-1.9654,-1.9654,-1.9815,-2.0116,-2.0338,-2.0615,0.0,-1.8926,-1.9659,-2.0675,-2.1625,-2.2357,-2.2521,-2.2635,-2.2638,-2.2247,-2.2076,-2.1855,-2.1519,-2.1641,-2.1924,-2.2236,-2.251,-2.2755,-2.3036,-2.2969,-2.2842,-2.2818,-2.3113,-2.3379,0.0,0.0,0.0,-2.5179,-2.561,-2.5909,-2.6197,-2.6304,-2.6294,-2.6091,-2.6197,-2.6294,-2.6091,-2.6207,-2.6004,-2.5596,-2.5001,-2.4196,-2.3384,-2.1887,-2.1489,-2.1785,-2.0483,-2.0181,-2.068,-2.0585,-2.0688,-2.0688,-2.0181,-1.968,-1.9279,-1.9279,-1.9175,-1.9078,-1.9279,-1.9279,-1.9175,-1.9279,-1.9279,-1.9279,-1.9279,-1.9279,-1.9272,-1.9063,-1.8959,-1.8952,-1.8743,-1.8639,-1.8639,-1.8639,-1.8639,-1.8743,-1.8952,-1.8959,-1.9063,-1.9272,-1.9168,-1.8848,-1.8422,-1.8108,-1.7515,-1.6808,-1.7566,-1.8171,-1.8275,-1.8887,-1.9168,-1.8959,-1.9168,-1.9219,-1.9117,-1.9342,-1.9481,-1.9585,-1.9607,-1.9592,-1.9676,-1.9683,-1.974,-1.9854,-1.9854,-2.001,-2.0316,-2.0316,-2.048,-2.0793,-2.1018,-2.1126,-1.9022,-1.9505,-2.0009,-2.1854,-2.2335,-2.2466,-2.2903,-2.2681,-2.2295,-2.1842,-2.1451,-2.0981,0.0,0.0,-2.0869,-2.1719,-2.1904,-2.2204,-2.2877,-2.2608,-2.2415,0.0,0.0,0.0,0.0,0.0,0.0,-2.467,0.0,-2.5713,-2.5635,-2.5411,-2.5294,-2.5294,-2.5294,-2.5294,-2.5294,-2.5518,-2.5118,-2.4187,-2.4618,-2.4716,-2.4393,-2.2584,-2.2089,-2.2785,-2.1481,-2.1785,-2.3285,-2.2885,-2.2985,-2.3085,-2.1684,-2.038,-1.9279,-1.9279,-1.9279,-1.9279,-1.9279,-1.9175,-1.8974,-1.9175,-1.9279,-1.9272,-1.9272,-1.9279,-1.9168,-1.8527,-1.8318,-1.8213,-1.7687,-1.7582,-1.7582,-1.7582,-1.7582,-1.7687,-1.8213,-1.8318,-1.8534,-1.9085,-1.8779,-1.8366,-1.8366,-1.7384,-1.6524,-1.5998,-1.6842,-1.7691,-1.7928,-1.8772,-1.9063,-1.8443,-1.8981,-1.9215,-1.8884,-1.9456,-1.9923,-2.0237,-2.0259,-2.0267,-2.0281,-2.0281,-2.0428,-2.0742,-2.075,-2.0911,-2.1233,-2.1233,-2.1393,-2.1693,-2.1715,-2.1723,-1.975,-2.0751,-2.1701,-2.2193,-2.2575,-2.2859,-2.2968,-2.2433,-2.1829,-2.1459,-2.0737,-2.0126,0.0,0.0,0.0,-2.0852,-2.1683,0.0,-2.2418,-2.2258,0.0,0.0,0.0,-2.2602,-2.2602,-2.3071,0.0,0.0,-2.4568,-2.5285,-2.5421,-2.5509,-2.5401,-2.502,-2.5226,-2.5226,-2.502,-2.4529,-2.4322,-2.4726,-2.4026,-2.3701,-2.3556,-2.2282,-2.187,-2.2148,-2.1269,-2.1684,-2.2885,-2.1887,-2.1591,-2.1684,-2.0277,-1.9576,-1.9279,-1.9279,-1.9279,-1.9279,-1.9279,-1.9279,-1.9175,-1.9279,-1.9279,-1.9168,-1.8743,-1.8632,-1.8534,-1.8003,-1.7793,-1.7793,-1.7687,-1.7582,-1.7582,-1.7582,-1.7582,-1.7687,-1.7793,-1.7793,-1.786,-1.829,-1.7981,-1.7695,-1.7695,-1.68,-1.6099,-1.5891,-1.6955,-1.7667,-1.7691,-1.8269,-1.8618,-1.873,-1.8872,-1.9113,-1.9199,-1.978,-2.0252,-2.0574,-2.0596,-2.0706,-2.0947,-2.0962,-2.0998,-2.1086,-2.1086,-2.1247,-2.1569,-2.1569,-2.1613,-2.1701,-2.1942,-2.2059,-2.0602,-2.1515,-2.2368,-2.2418,-2.2657,-2.2744,-2.2237,-2.1656,-2.0999,-2.0317,-1.9596,0.0,0.0,0.0,0.0,0.0,0.0,0.0,-2.2035,-2.1898,-2.1887,0.0,-2.2307,0.0,-2.2357,-2.3004,-2.3331,0.0,-2.4229,-2.4804,-2.4851,-2.4925,-2.4815,-2.4529,-2.4726,-2.4529,-2.4016,-2.361,-2.3302,-2.3067,-2.2274,-2.1963,-2.2122,-2.0837,-2.0436,-2.0719,0.0,-2.0751,-2.176,-2.0861,-2.0869,-2.1191,-1.9776,-1.9279,-1.9279,-1.9279,-1.9279,-1.9272,-1.8959,-1.8952,-1.8952,-1.8952,-1.8743,-1.8534,-1.8108,-1.8003,-1.7898,-1.7371,-1.7265,-1.7153,-1.6948,-1.6842,-1.6874,-1.6996,-1.7021,-1.7167,-1.7512,-1.7544,-1.759,-1.7746,-1.7584,-1.7477,-1.7142,-1.6667,-1.6247,-1.6247,-1.7003,-1.7544,-1.7544,-1.8292,-1.8676,-1.8306,-1.8544,-1.8783,-1.907,-1.966,-2.0248,-2.0918,-2.094,-2.1086,-2.1408,-2.1423,-2.1489,-2.1635,-2.1635,-2.1657,-2.1693,-2.184,-2.1913,-2.192,-2.2228,-2.2374,-2.1297,-2.1897,-2.2291,-2.2531,-2.2574,-2.2221,-2.1179,-2.061,-1.9947,-1.8971,0.0,0.0,-1.7998,0.0,-1.8976,-1.9653,0.0,-2.0753,-2.1697,-2.1545,-2.1446,-2.1648,-2.2016,-2.2263,-2.2263,-2.3027,-2.3419,-2.3419,-2.3824,-2.4107,-2.422,-2.4217,-2.4035,-2.3827,-2.3827,-2.3411,-2.2484,-2.2374,-2.1853,-2.0696,-2.0112,-2.001,-2.0397,-1.8991,-1.8693,-1.9088,0.0,0.0,-2.042,-2.0025,-2.0341,-2.0971,-1.9569,-1.9063,-1.9063,-1.9063,-1.9063,-1.8959,-1.8527,-1.8213,-1.8213,-1.8318,-1.8003,-1.7582,-1.7477,-1.7503,-1.7424,-1.6787,-1.6706,-1.6631,-1.6101,-1.6,-1.6054,-1.6284,-1.6338,-1.6508,-1.7197,-1.739,-1.7415,-1.7415,-1.7447,-1.736,-1.6916,-1.6779,-1.6754,-1.6754,-1.7198,-1.7527,-1.7422,-1.838,-1.8698,-1.7633,-1.7974,-1.8552,-1.8978,-1.958,-2.0295,-2.132,-2.1342,-2.1467,-2.1752,-2.1723,-2.1854,-2.2176,-2.214,-2.2023,-2.1818,-2.2103,-2.2242,-2.225,-2.255,-2.2659,-2.0948,-2.1565,-2.1931,-2.1939,-2.1807,-2.145,-2.0902,-1.9979,0.0,0.0,0.0,-1.7767,-1.7939,-1.864,0.0,-1.9349,0.0,0.0,0.0,0.0,-2.1238,0.0,0.0,0.0,0.0,0.0,0.0,0.0,0.0,-2.3019,-2.3895,-2.4217,-2.3818,-2.2492,-2.2492,-2.1777,-2.0538,-1.9819,-1.9716,-2.012,-1.9109,-1.8596,-1.8492,-1.8387,-1.8478,-1.8568,-1.8984,0.0,-2.1001,-1.9796,-1.9605,-1.9811,-1.8401,-1.7898,-1.7898,-1.7898,-1.7898,-1.7898,-1.7793,-1.7371,-1.7047,-1.7582,-1.7687,-1.7477,-1.7047,-1.6996,-1.7073,-1.6531,-1.649,-1.6666,-1.6561,-1.6561,-1.6573,-1.6616,-1.6628,-1.664,-1.68,-1.6982,-1.7134,-1.7134,-1.731,-1.7462,-1.7346,-1.7165,-1.7026,-1.7026,-1.7477,-1.7704,-1.7248,-1.7503,-1.7783,-1.7786,-1.7932,-1.8479,-1.9573,-2.0213,-2.1064,-2.1993,-2.2015,-2.2045,-2.2096,-2.184,-2.1854,-2.2176,-2.192,-2.2008,-2.2462,-2.252,-2.255,-2.2557,-2.2871,-2.2879,-2.1155,-2.1707,-2.1883,-2.1731,-2.153,-2.1084,-2.0004,0.0,0.0,0.0,0.0,-1.7347,-1.7089,0.0,0.0,0.0,0.0,0.0,0.0,0.0,0.0,0.0,0.0,0.0,0.0,0.0,0.0,0.0,0.0,-2.2593,-2.3303,-2.4008,-2.3411,-2.1261,-2.1887,-2.1379,-1.9428,-1.9013,-1.8596,-1.8276,-1.7765,-1.7351,-1.7153,-1.7259,-1.7246,-1.7127,-1.7338,0.0,-1.8762,-1.8164,-1.8171,-1.8492,-1.7884,-1.7582,-1.7602,-1.7749,-1.7709,-1.7629,-1.7505,-1.7289,-1.6971,-1.713,-1.708,-1.687,-1.6696,-1.6838,-1.6827,-1.6612,-1.6598,-1.67,-1.67,-1.67,-1.6736,-1.6869,-1.7008,-1.7111,-1.7111,-1.7207,-1.7292,-1.7292,-1.74,-1.7485,-1.7485,-1.7376,-1.7292,-1.7292,-1.7524,-1.7646,-1.7298,-1.7414,-1.7492,-1.7627,-1.7755,-1.8093,-1.9057,-1.9804,-2.0677,-2.1432,-2.1969,-2.225,-2.2403,-2.2257,-2.2337,-2.2659,-2.2513,-2.2498,-2.2623,-2.2791,-2.2791,-2.263,-2.2959,-2.3025,-2.1182,-2.1649,-2.1721,-2.1436,-2.1234,-2.0638,-1.9094,-1.8445,0.0,0.0,0.0,0.0,0.0,0.0,0.0,0.0,0.0,0.0,0.0,0.0,0.0,0.0,0.0,0.0,0.0,0.0,0.0,0.0,0.0,0.0,-2.2664,-2.3153,-2.24,-2.0128,-2.1175,-2.057,-1.8304,-1.8304,-1.7779,-1.663,-1.6624,-1.663,-1.643,-1.643,-1.6211,-1.5998,-1.5998,0.0,0.0,-1.6518,-1.6842,-1.7265,-1.7265,-1.7298,-1.7383,-1.7613,-1.7593,-1.7414,-1.7319,-1.7215,-1.696,-1.6806,-1.6598,-1.641,-1.6634,-1.6742,-1.6785,-1.6785,-1.6827,-1.6869,-1.6869,-1.6869,-1.6917,-1.7129,-1.7334,-1.7485,-1.7485,-1.7485,-1.7497,-1.7551,-1.7569,-1.7587,-1.7648,-1.766,-1.766,-1.766,-1.766,-1.766,-1.766,-1.766,-1.766,-1.766,-1.7605,-1.7848,-1.8676,-1.9357,-2.0113,-2.0787,-2.1633,-2.2241,-2.2472,-2.2537,-2.2776,-2.3098,-2.304,-2.2915,-2.2725,-2.2981,-2.2981,-2.2732,-2.2988,-2.3106,-2.0207,-2.0559,-2.0799,-2.0896,-2.0422,-1.9686,-1.8761,0.0,0.0,0.0,-1.6264,-1.6403,-1.5452,0.0,0.0,0.0,0.0,-1.7873,0.0,0.0,0.0,0.0,0.0,0.0,0.0,0.0,0.0,0.0,0.0,0.0,-2.1948,-2.1478,-2.0467,-1.9027,-1.9027,-1.8304,-1.653,-1.6736,-1.6736,-1.6324,-1.663,-1.673,-1.6624,-1.6624,-1.653,-1.6217,-1.6217,0.0,0.0,-1.5992,-1.5998,-1.6099,-1.6099,-1.6251,-1.6466,-1.6399,-1.6551,-1.6745,-1.6794,-1.6794,-1.6818,-1.6972,-1.6875,-1.667,-1.6694,-1.6869,-1.7056,-1.7056,-1.7231,-1.7412,-1.7412,-1.7412,-1.7418,-1.7443,-1.7467,-1.7485,-1.7485,-1.7485,-1.7551,-1.7793,-1.7835,-1.7919,-1.8173,-1.8221,-1.8221,-1.8221,-1.8221,-1.8221,-1.8221,-1.8221,-1.8221,-1.8221,-1.7992,-1.8276,-1.9509,-1.9696,-2.0073,-2.0969,-2.1763,-2.2166,-2.2187,-2.2414,-2.2776,-2.3098,-2.282,-2.2798,-2.3062,-2.3091,-2.3091,-2.3062,-2.3098,-2.3106,-1.9945,-2.0463,-2.0886,-2.0731,-2.0307,-1.9574,-1.834,0.0,0.0,-1.537,-1.5607,-1.5628,-1.4416,-1.4797,-1.5382,0.0,0.0,0.0,0.0,0.0,0.0,0.0,0.0,0.0,0.0,0.0,0.0,0.0,0.0,0.0,-1.8911,-1.9649,-1.9235,-1.7301,-1.7922,-1.7798,-1.6524,-1.663,-1.663,-1.6524,-1.663,-1.663,-1.6424,-1.663,-1.6524,-1.6324,-1.6424,0.0,0.0,-1.6418,-1.6418,-1.6418,-1.6418,-1.6479,-1.6527,-1.6692,-1.6715,-1.6748,-1.7062,-1.7068,-1.6978,-1.7243,-1.7255,-1.7171,-1.7171,-1.7243,-1.7328,-1.7328,-1.74,-1.7485,-1.7485,-1.7485,-1.7485,-1.7485,-1.7485,-1.7527,-1.7684,-1.7714,-1.7799,-1.8076,-1.8125,-1.8161,-1.8275,-1.8294,-1.8294,-1.8294,-1.8294,-1.8294,-1.8294,-1.8294,-1.8354,-1.8511,-1.8287,-1.8337,-1.8791,-1.9324,-1.9837,-2.0203,-2.1379,-2.1859,-2.1481,-2.2359,-2.2726,-2.248,-2.2733,-2.2981,-2.3106,-2.3106,-2.3106,-2.3106,-2.3106,-2.3106,-1.9426,-2.0026,-2.0487,-2.0372,-1.9847,-1.9144,0.0,0.0,-1.5982,-1.4827,-1.5083,-1.5102,-1.3666,-1.4166,-1.4824,-1.4972,-1.508,-1.5917,0.0,0.0,0.0,0.0,0.0,0.0,0.0,0.0,0.0,0.0,0.0,0.0,0.0,-1.7563,-1.7577,-1.6292,-1.7088,-1.7125,-1.651,-1.6586,-1.6624,-1.663,-1.6624,-1.663,-1.6424,-1.663,-1.6524,-1.6324,0.0,0.0,0.0,-1.6418,-1.6418,-1.6418,-1.6418,-1.6535,-1.6765,-1.695,-1.7016,-1.6984,-1.7358,-1.7364,-1.7237,-1.7424,-1.7485,-1.7485,-1.7485,-1.7485,-1.7485,-1.7485,-1.7485,-1.7485,-1.7485,-1.7485,-1.7503,-1.7581,-1.7599,-1.7672,-1.7943,-1.7998,-1.8082,-1.8354,-1.8408,-1.8432,-1.8511,-1.8523,-1.8523,-1.8523,-1.8523,-1.8523,-1.8523,-1.8523,-1.8595,-1.8776,-1.8638,-1.8523,-1.8523,-1.9187,-1.9537,-1.9537,-2.073,-2.1348,-2.0849,-2.1853,-2.2237,-2.1859,-2.248,-2.2856,-2.2856,-2.2981,-2.3106,-2.3106,-2.3106,-2.3106,-1.8478,-1.8829,-1.9105,-1.9496,-1.8993,-1.8118,0.0,-1.6533,-1.582,-1.4472,-1.4827,-1.4941,-1.3481,-1.4193,-1.4824,-1.4272,-1.525,-1.6647,0.0,0.0,0.0,0.0,0.0,0.0,0.0,0.0,0.0,0.0,0.0,0.0,0.0,-1.4892,-1.5143,-1.6004,-1.6183,-1.6219,-1.5927,-1.6392,-1.6524,-1.6324,-1.6524,-1.673,-1.673,-1.673,-1.6524,0.0,0.0,0.0,0.0,-1.5891,-1.5891,-1.5891,-1.5891,-1.6223,-1.67,-1.67,-1.7032,-1.7473,-1.7479,-1.7479,-1.7479,-1.7485,-1.7485,-1.7485,-1.7485,-1.7485,-1.7485,-1.7485,-1.7485,-1.7485,-1.7485,-1.7485,-1.7545,-1.7811,-1.7871,-1.795,-1.8227,-1.8294,-1.8366,-1.8632,-1.868,-1.8764,-1.9024,-1.9066,-1.9066,-1.9066,-1.9066,-1.9066,-1.9066,-1.9066,-1.9066,-1.9072,-1.9066,-1.9066,-1.9066,-1.9072,-1.9072,-1.9072,-1.9699,-2.0075,-2.0081,-2.0722,-2.1109,-2.1109,-2.1734,-2.2111,-2.2111,-2.2738,-2.3106,-2.3106,-2.3106,-2.3106,-1.7236,-1.7541,-1.793,-1.7558,-1.7459,-1.7189,-1.641,-1.5809,-1.5221,-1.4478,-1.4698,-1.4794,-1.3834,-1.4197,-1.4866,-1.5749,-1.6203,-1.6917,0.0,0.0,0.0,0.0,0.0,0.0,0.0,0.0,0.0,0.0,0.0,0.0,-1.4592,-1.4496,-1.4752,-1.5314,-1.5314,-1.5248,-1.5336,-1.5695,-1.5829,-1.5731,-1.6013,-1.6099,-1.6205,-1.6318,0.0,0.0,0.0,0.0,0.0,-1.6411,-1.653,-1.6711,-1.6711,-1.6944,-1.72,-1.7301,-1.7292,-1.7485,-1.7485,-1.7485,-1.7485,-1.7485,-1.7485,-1.7485,-1.7485,-1.7485,-1.7485,-1.7485,-1.7612,-1.775,-1.775,-1.7889,-1.8058,-1.8143,-1.8161,-1.8233,-1.8505,-1.8559,-1.8638,-1.8897,-1.8951,-1.8976,-1.906,-1.9078,-1.9078,-1.9078,-1.9078,-1.9078,-1.9078,-1.9078,-1.9078,-1.9078,-1.9078,-1.9078,-1.9078,-1.9078,-1.9078,-1.9078,-1.9705,-1.9954,-1.9456,-2.0469,-2.0849,-2.0462,-2.1102,-2.1386,-2.1182,-2.1512,-2.1734,-2.174,-2.194,-2.2043,0.0,-1.6187,-1.6642,-1.6201,-1.6285,-1.6182,-1.5332,-1.4953,-1.4607,-1.4154,-1.4377,-1.4544,-1.3999,-1.4313,-1.49,-1.5518,-1.5828,0.0,0.0,0.0,0.0,0.0,0.0,0.0,0.0,0.0,0.0,0.0,0.0,0.0,-1.4298,-1.4208,-1.4377,-1.4735,-1.4752,-1.4793,-1.4956,-1.5221,-1.5354,-1.5354,-1.5614,-1.5741,-1.5747,-1.6062,0.0,0.0,0.0,0.0,0.0,-1.6418,-1.658,-1.6842,-1.6842,-1.7067,-1.7322,-1.731,-1.7365,-1.7485,-1.7485,-1.7485,-1.7485,-1.7485,-1.7551,-1.763,-1.7754,-1.7754,-1.763,-1.7754,-1.7948,-1.8034,-1.8034,-1.8161,-1.8318,-1.842,-1.8438,-1.8511,-1.8776,-1.8831,-1.8879,-1.9042,-1.9078,-1.9078,-1.9078,-1.9078,-1.9078,-1.9078,-1.9078,-1.9078,-1.9078,-1.9078,-1.9078,-1.9078,-1.9078,-1.9078,-1.9078,-1.9078,-1.9078,-1.9078,-1.945,-1.9577,-1.9072,-1.9738,-2.0112,-1.9699,-2.0239,-2.0526,-2.046,-2.0889,-2.1169,-2.1276,-2.1456,-2.1597,0.0,-1.4763,-1.5103,-1.5213,-1.5286,-1.5091,-1.4072,-1.3958,0.0,-1.3557,-1.3957,-1.428,-1.3998,-1.4547,-1.4772,-1.4088,-1.4624,0.0,0.0,0.0,0.0,0.0,0.0,0.0,0.0,0.0,0.0,0.0,0.0,0.0,-1.4202,-1.4022,-1.4022,-1.4202,-1.4454,-1.4586,-1.469,-1.495,-1.5077,-1.5083,-1.5348,-1.5469,-1.5481,-1.5741,0.0,0.0,0.0,0.0,0.0,-1.591,-1.6072,-1.6314,-1.6332,-1.6658,-1.7123,-1.7123,-1.7274,-1.7485,-1.7485,-1.7485,-1.7485,-1.7503,-1.7678,-1.7997,-1.8274,-1.8154,-1.8027,-1.828,-1.8356,-1.8324,-1.8324,-1.8336,-1.8408,-1.8656,-1.8716,-1.8776,-1.9024,-1.9078,-1.9078,-1.9078,-1.9078,-1.9078,-1.9078,-1.9078,-1.9078,-1.9078,-1.9078,-1.9078,-1.9078,-1.9078,-1.9078,-1.9078,-1.9078,-1.9078,-1.9078,-1.9078,-1.9078,-1.9078,-1.9078,-1.9078,-1.9078,-1.8843,-1.8831,-1.9072,-1.9437,-1.9814,-2.0106,-2.0609,-2.1142,-2.1447,-2.1467,-2.1489,-1.3016,0.0,-1.3014,-1.2587,-1.3116,-1.3702,0.0,-1.3671,-1.3974,0.0,0.0,0.0,0.0,-1.3866,-1.3966,0.0,0.0,0.0,0.0,0.0,0.0,0.0,0.0,0.0,0.0,0.0,0.0,0.0,0.0,-1.3539,-1.363,-1.3636,-1.3636,-1.3732,-1.379,-1.4013,-1.4395,-1.4666,-1.4805,-1.4811,-1.5077,-1.5197,-1.5209,-1.5475,0.0,0.0,0.0,0.0,-1.5903,-1.6103,-1.635,-1.6622,-1.6821,-1.7098,-1.7394,-1.7394,-1.743,-1.7485,-1.7485,-1.7726,-1.788,-1.8089,-1.8194,-1.8286,-1.8611,-1.8435,-1.8197,-1.8319,-1.8514,-1.8595,-1.8595,-1.874,-1.8909,-1.8969,-1.8982,-1.9,-1.906,-1.9078,-1.9078,-1.9078,-1.9078,-1.9078,-1.9078,-1.9078,-1.9078,-1.9078,-1.9078,-1.9078,-1.9078,-1.9078,-1.9078,-1.9078,-1.9078,-1.9078,-1.9078,-1.9078,-1.9078,-1.9078,-1.9078,-1.9078,-1.9078,-1.9018,-1.9012,-1.9078,-1.8939,-1.9157,-1.9628,-1.9554,-1.9838,-2.0321,-2.0526,-2.0656,-1.2437,-1.2655,-1.2882,-1.2697,-1.3166,-1.3517,-1.2993,0.0,0.0,0.0,0.0,0.0,0.0,0.0,0.0,0.0,0.0,0.0,0.0,0.0,0.0,0.0,0.0,0.0,0.0,0.0,0.0,0.0,0.0,-1.3249,-1.3443,-1.3346,-1.3346,-1.3539,-1.3539,-1.3636,-1.3919,-1.4066,-1.4137,-1.4143,-1.4501,-1.4725,-1.4731,-1.5095,-1.5384,0.0,0.0,0.0,-1.591,-1.6175,-1.6447,-1.6724,-1.699,-1.7249,-1.7485,-1.7485,-1.7602,-1.7726,-1.7726,-1.7929,-1.8177,-1.8558,-1.8536,-1.8527,-1.8785,-1.8796,-1.8625,-1.8623,-1.8781,-1.8861,-1.8861,-1.8969,-1.9078,-1.9078,-1.9078,-1.9078,-1.9078,-1.9078,-1.9078,-1.9078,-1.9078,-1.9078,-1.9078,-1.9078,-1.9078,-1.9078,-1.9078,-1.9078,-1.9078,-1.9078,-1.9078,-1.9078,-1.9078,-1.9078,-1.9078,-1.9078,-1.9078,-1.9078,-1.9078,-1.9078,-1.9078,-1.8963,-1.8951,-1.9072,-1.9054,-1.9247,-1.9658,-1.9519,-1.9658,-2.0068,-2.0213,-2.0346,-1.2333,-1.2862,-1.3339,-1.3497,-1.3653,-1.3518,-1.2476,0.0,0.0,0.0,0.0,0.0,0.0,0.0,0.0,0.0,0.0,0.0,0.0,0.0,0.0,0.0,0.0,0.0,0.0,0.0,0.0,0.0,0.0,-1.2958,-1.3346,-1.3147,-1.3152,-1.3346,-1.3346,-1.3346,-1.3346,-1.3443,-1.3539,-1.3545,-1.3952,-1.4155,-1.4167,-1.4725,-1.5065,0.0,0.0,0.0,-1.5855,-1.6199,-1.6483,-1.6618,-1.7032,-1.7286,-1.7485,-1.7485,-1.7726,-1.7978,-1.8016,-1.8152,-1.82,-1.8507,-1.8582,-1.8577,-1.8769,-1.8831,-1.8848,-1.9034,-1.9024,-1.9078,-1.9078,-1.9078,-1.9078,-1.9078,-1.9078,-1.9078,-1.9078,-1.9078,-1.9078,-1.9078,-1.9078,-1.9078,-1.9078,-1.9078,-1.9078,-1.9078,-1.9078,-1.9078,-1.9078,-1.9078,-1.9078,-1.9078,-1.9078,-1.9078,-1.9078,-1.9078,-1.9078,-1.9078,-1.9078,-1.9096,-1.9132,-1.8921,-1.8927,-1.9193,-1.9416,-1.9664,-1.9947,-1.9947,-2.008,-2.0334,-2.0334,-2.0454,-1.2688,-1.2398,-1.1809,-1.1831,-1.2158,-1.2344,-1.1767,0.0,0.0,0.0,0.0,0.0,0.0,0.0,0.0,0.0,0.0,0.0,0.0,0.0,0.0,0.0,0.0,0.0,0.0,0.0,0.0,0.0,0.0,0.0,-1.2861,-1.2861,-1.2861,-1.2958,-1.2958,-1.2958,-1.2958,-1.3346,-1.3539,-1.3539,-1.3579,-1.3596,-1.3608,-1.3952,-1.409,0.0,0.0,-1.5413,-1.5293,-1.6539,-1.6646,-1.6399,-1.7116,-1.7331,-1.7138,-1.7367,-1.7726,-1.8003,-1.8226,-1.7815,-1.725,-1.7821,-1.7753,-1.7602,-1.7792,-1.7949,-1.8024,-1.8587,-1.892,-1.9078,-1.9078,-1.9078,-1.9078,-1.9078,-1.9078,-1.9078,-1.9078,-1.9078,-1.9078,-1.9078,-1.9078,-1.9078,-1.9078,-1.9078,-1.9078,-1.9078,-1.9078,-1.9078,-1.9078,-1.9078,-1.9078,-1.9078,-1.9078,-1.9078,-1.9078,-1.9078,-1.9078,-1.9078,-1.9078,-1.9175,-1.9398,-1.9368,-1.9476,-1.9754,-1.9802,-1.9953,-2.0219,-2.0219,-2.0352,-2.0611,-2.0611,-2.0629,-1.1781,-1.1688,-1.1466,-1.102,-1.1319,-1.1609,0.0,0.0,0.0,0.0,0.0,0.0,0.0,0.0,0.0,0.0,0.0,0.0,0.0,0.0,0.0,0.0,0.0,0.0,0.0,0.0,0.0,0.0,0.0,0.0,-1.2377,-1.2377,-1.2377,-1.2377,-1.2506,-1.2576,-1.2576,-1.2893,-1.3152,-1.3152,-1.3249,-1.3244,-1.3249,-1.3562,-1.3754,-1.3909,0.0,-1.4585,-1.468,-1.5707,-1.5911,-1.5629,-1.6488,-1.6605,-1.6379,-1.6866,-1.7241,-1.7521,-1.79,-1.7763,-1.7461,-1.7708,-1.7678,-1.7619,-1.7731,-1.7765,-1.7896,-1.8139,-1.8431,-1.8553,-1.8822,-1.8688,-1.8553,-1.8822,-1.8828,-1.8822,-1.9078,-1.9078,-1.9078,-1.9078,-1.9078,-1.9078,-1.9078,-1.9078,-1.9078,-1.9078,-1.9078,-1.9078,-1.9078,-1.9078,-1.9078,-1.9078,-1.92,-1.9328,-1.9072,-1.9328,-1.9328,-1.9078,-1.9211,-1.9338,-1.9458,-1.9609,-1.982,-2.0092,-2.0098,-2.0225,-2.049,-2.049,-2.0551,-2.0665,-2.0665,-2.0665,-1.0916,-1.1008,-1.0899,-1.0458,0.0,0.0,-1.0765,0.0,0.0,0.0,0.0,0.0,0.0,0.0,0.0,0.0,0.0,0.0,0.0,0.0,0.0,0.0,0.0,0.0,0.0,0.0,0.0,0.0,0.0,0.0,-1.214,-1.214,-1.214,-1.214,-1.2231,-1.2328,-1.2328,-1.2565,-1.2711,-1.2764,-1.2958,-1.305,-1.305,-1.3249,-1.3484,-1.3678,-1.3853,-1.394,-1.411,-1.5057,-1.5187,-1.5011,-1.579,-1.596,-1.5919,-1.6527,-1.6785,-1.692,-1.7416,-1.752,-1.7334,-1.7397,-1.7388,-1.7269,-1.7387,-1.7551,-1.7708,-1.7893,-1.7781,-1.791,-1.8308,-1.8173,-1.8039,-1.8437,-1.8442,-1.8442,-1.8693,-1.8816,-1.8816,-1.8816,-1.8944,-1.9072,-1.8816,-1.8944,-1.9078,-1.8816,-1.8944,-1.9078,-1.9078,-1.92,-1.92,-1.92,-1.945,-1.9474,-1.9163,-1.9481,-1.9518,-1.9265,-1.9452,-1.9591,-1.9652,-1.9863,-2.0104,-2.0364,-2.037,-2.0466,-2.0665,-2.0665,-2.0665,-2.0665,-2.0665,-2.0665,-1.116,-1.0314,-0.9531,-1.0097,0.0,0.0,-1.104,0.0,0.0,0.0,0.0,0.0,0.0,0.0,0.0,0.0,0.0,0.0,0.0,0.0,0.0,0.0,0.0,0.0,0.0,0.0,0.0,0.0,0.0,0.0,-1.214,-1.214,-1.214,-1.214,-1.2064,-1.2167,-1.2167,-1.2318,-1.2549,-1.2764,-1.2764,-1.2861,-1.2861,-1.2861,-1.2806,-1.2862,-1.3554,-1.3691,-1.3556,-1.4881,-1.5082,-1.4668,-1.5479,-1.5795,-1.5919,-1.6527,-1.6448,-1.6233,-1.6823,-1.6557,-1.6132,-1.636,-1.6295,-1.6203,-1.6653,-1.68,-1.6859,-1.7339,-1.7265,-1.726,-1.7905,-1.8039,-1.8033,-1.8033,-1.7787,-1.7535,-1.7664,-1.7916,-1.8033,-1.8033,-1.8688,-1.8944,-1.8168,-1.8682,-1.8816,-1.8168,-1.8682,-1.9078,-1.9078,-1.9322,-1.9577,-1.9577,-1.9577,-1.9554,-1.9416,-1.9676,-1.9827,-1.9827,-1.9845,-1.9965,-2.0207,-2.0237,-2.037,-2.0635,-2.0641,-2.0647,-2.0665,-2.0665,-2.0665,-2.0665,-2.0665,-2.0665,-0.9986,-0.949,-0.918,-1.0014,0.0,0.0,0.0,0.0,0.0,0.0,0.0,0.0,0.0,0.0,0.0,0.0,0.0,0.0,0.0,0.0,0.0,0.0,0.0,0.0,0.0,0.0,0.0,0.0,0.0,0.0,0.0,-1.1546,-1.1828,-1.1828,-1.1828,-1.1828,-1.1828,-1.207,-1.2307,-1.2549,-1.2694,-1.284,-1.2974,-1.2974,-1.3084,-1.3137,-1.3286,-1.3372,-1.3414,-1.4023,-1.4206,-1.4107,-1.4636,-1.4779,-1.4845,-1.5504,-1.5748,-1.5899,-1.6409,-1.6418,-1.6188,-1.6285,-1.6253,-1.6237,-1.6565,-1.6764,-1.6894,-1.7109,-1.7136,-1.7136,-1.7523,-1.7523,-1.7389,-1.7389,-1.7265,-1.7136,-1.7136,-1.7265,-1.7389,-1.7389,-1.7653,-1.7653,-1.7389,-1.7647,-1.7781,-1.8033,-1.8296,-1.8682,-1.9322,-1.9726,-1.9961,-2.0096,-2.0123,-2.0266,-2.0761,-2.0634,-2.0527,-2.0527,-2.0263,-2.0171,-2.0273,-2.0436,-2.0569,-2.0665,-2.0665,-2.0665,-2.0665,-2.0665,-2.0665,-2.0665,-2.0665,-2.0665,-0.9074,-0.8834,-0.8842,0.0,0.0,0.0,0.0,0.0,0.0,0.0,0.0,0.0,0.0,0.0,0.0,0.0,0.0,0.0,0.0,0.0,0.0,0.0,0.0,0.0,0.0,0.0,0.0,0.0,0.0,0.0,0.0,-1.0519,-1.0985,-1.1266,-1.1356,-1.1446,-1.1811,-1.1968,-1.1982,-1.1742,-1.2086,-1.2473,-1.3001,-1.3071,-1.3121,-1.3284,-1.32,-1.3177,-1.3315,-1.3645,-1.3753,-1.3862,-1.4083,-1.4239,-1.427,-1.49,-1.5333,-1.5643,-1.6086,-1.6247,-1.6312,-1.6312,-1.6312,-1.6371,-1.6678,-1.6877,-1.7001,-1.7001,-1.7001,-1.7007,-1.7147,-1.7012,-1.6877,-1.6877,-1.6618,-1.6623,-1.6618,-1.6748,-1.6877,-1.6877,-1.7007,-1.7007,-1.6748,-1.6872,-1.713,-1.7389,-1.7585,-1.8029,-1.8929,-1.9546,-2.011,-2.0778,-2.0901,-2.0933,-2.12,-2.105,-2.0941,-2.0804,-2.0537,-2.04,-2.04,-2.0575,-2.0665,-2.0665,-2.0665,-2.0665,-2.0665,-2.0665,-2.0665,-2.0665,-2.0665,-2.0665,-0.8497,-0.8368,0.0,0.0,0.0,0.0,0.0,0.0,0.0,0.0,0.0,0.0,0.0,0.0,0.0,0.0,0.0,0.0,0.0,0.0,0.0,0.0,0.0,0.0,0.0,0.0,0.0,0.0,0.0,0.0,0.0,-0.8885,-0.9351,-1.0477,-1.0477,-1.1032,-1.2048,-1.2048,-1.1507,-1.0391,-1.0677,-1.1461,-1.2775,-1.3001,-1.3042,-1.2972,-1.3299,-1.3321,-1.3315,-1.3645,-1.3862,-1.4196,-1.4196,-1.4118,-1.4145,-1.4965,-1.5322,-1.5597,-1.5835,-1.6113,-1.6312,-1.6312,-1.6312,-1.6398,-1.6861,-1.7001,-1.7001,-1.7001,-1.7001,-1.6877,-1.6629,-1.6499,-1.6499,-1.6499,-1.5984,-1.5593,-1.5974,-1.6239,-1.6499,-1.6499,-1.7017,-1.7141,-1.6104,-1.6488,-1.6748,-1.6104,-1.6692,-1.7505,-1.7901,-1.9031,-2.0256,-2.1337,-2.1723,-2.1623,-2.0811,-2.1059,-2.1075,-2.081,-2.0665,-2.0671,-2.0665,-2.0665,-2.0665,-2.0665,-2.0665,-2.0665,-2.0665,-2.0665,-2.0665,-2.0665,-2.0665,-2.0665,-0.9107,0.0,0.0,0.0,0.0,0.0,0.0,0.0,0.0,0.0,0.0,0.0,0.0,0.0,0.0,0.0,0.0,0.0,0.0,0.0,0.0,0.0,0.0,0.0,0.0,0.0,0.0,0.0,0.0,0.0,0.0,-0.8841,-0.925,-0.9539,-0.9418,-0.9532,-0.9811,-0.9811,-0.972,-0.9519,-0.9427,-1.0171,-1.1596,-1.202,-1.2756,-1.3519,-1.3651,-1.3691,-1.3975,-1.3975,-1.4083,-1.4213,-1.415,-1.414,-1.4187,-1.5098,-1.5482,-1.5624,-1.6028,-1.6253,-1.6312,-1.6312,-1.6312,-1.6398,-1.6861,-1.7001,-1.7001,-1.7001,-1.7001,-1.7007,-1.6877,-1.6623,-1.6499,-1.6234,-1.6239,-1.6109,-1.5974,-1.6104,-1.6109,-1.5854,-1.5984,-1.5849,-1.5323,-1.5453,-1.5633,-1.6186,-1.6659,-1.748,-1.9025,-2.0086,-2.1019,-2.1635,-2.1998,-2.2186,-2.2323,-2.2127,-2.1897,-2.176,-2.176,-2.149,-2.0665,-2.0665,-2.0665,-2.0665,-2.0665,-2.0665,-2.0665,-2.0665,-2.0665,-2.0665,-2.0665,-2.0665,-0.8365,0.0,0.0,0.0,0.0,0.0,0.0,0.0,0.0,0.0,0.0,0.0,0.0,0.0,0.0,0.0,0.0,0.0,0.0,0.0,0.0,0.0,0.0,0.0,0.0,0.0,0.0,0.0,0.0,0.0,0.0,-0.7835,-0.8272,-0.8758,-0.8568,-0.8707,-0.9188,-0.9115,-0.8882,-0.8564,-0.8404,-0.88,-0.9554,-1.1044,-1.2181,-1.3064,-1.3607,-1.3975,-1.4196,-1.4196,-1.4196,-1.4218,-1.4114,-1.4034,-1.4102,-1.5168,-1.5533,-1.552,-1.6247,-1.6393,-1.6328,-1.642,-1.6393,-1.6398,-1.6861,-1.7001,-1.7001,-1.7001,-1.7001,-1.7007,-1.6882,-1.6753,-1.6623,-1.6234,-1.6234,-1.6234,-1.6234,-1.6234,-1.6104,-1.5984,-1.5854,-1.5724,-1.5453,-1.5264,-1.5497,-1.616,-1.6727,-1.7646,-1.9261,-2.0132,-2.0747,-2.1339,-2.1766,-2.2173,-2.2173,-2.231,-2.231,-2.2173,-2.2035,-2.1766,-2.122,-2.0943,-2.0943,-2.0943,-2.0804,-2.0665,-2.0665,-2.0665,-2.0665,-2.0665,-2.0665,-2.0804,-0.6966,0.0,0.0,0.0,0.0,0.0,0.0,0.0,0.0,0.0,0.0,0.0,0.0,0.0,0.0,0.0,0.0,0.0,0.0,0.0,0.0,0.0,0.0,0.0,0.0,0.0,0.0,0.0,0.0,0.0,0.0,-0.6337,-0.6734,-0.7723,-0.7822,-0.8319,-0.9312,-0.9049,-0.8466,-0.7531,-0.7501,-0.7407,-0.7232,-0.9969,-1.1403,-1.177,-1.3347,-1.3975,-1.397,-1.4191,-1.4099,-1.4028,-1.392,-1.3805,-1.3739,-1.4866,-1.5243,-1.5332,-1.6302,-1.6495,-1.635,-1.6587,-1.6375,-1.6149,-1.6604,-1.6742,-1.6608,-1.6742,-1.6872,-1.6748,-1.6629,-1.6753,-1.6877,-1.6629,-1.6364,-1.6234,-1.6499,-1.6499,-1.6499,-1.6504,-1.6499,-1.6369,-1.6104,-1.5893,-1.5929,-1.6373,-1.7146,-1.7914,-1.8821,-1.9262,-1.9814,-2.0527,-2.1214,-2.149,-2.1214,-2.1897,-2.2029,-2.1728,-2.1728,-2.1715,-2.169,-2.1327,-2.1214,-2.1214,-2.0943,-2.0804,-2.0804,-2.0804,-2.0665,-2.0665,-2.0665,-2.0943,0.0,-0.7012,0.0,0.0,0.0,0.0,0.0,0.0,0.0,0.0,0.0,0.0,0.0,0.0,0.0,0.0,0.0,0.0,0.0,0.0,0.0,0.0,0.0,0.0,0.0,0.0,0.0,0.0,0.0,0.0,-0.5135,-0.5536,-0.5834,-0.6134,-0.6534,-0.6833,-0.7129,-0.7003,-0.6904,0.0,-0.6412,-0.6315,-0.6345,-0.8024,-0.933,-1.0329,-1.1833,-1.2422,-1.2536,-1.3748,-1.3744,-1.2913,-1.2551,-1.1944,-1.1346,-1.2721,-1.3495,-1.4048,-1.5482,-1.6101,-1.635,-1.6587,-1.5605,-1.4359,-1.5168,-1.4376,-1.3582,-1.4907,-1.5303,-1.5564,-1.6613,-1.7007,-1.7007,-1.6877,-1.6877,-1.6748,-1.6877,-1.6877,-1.6748,-1.6499,-1.6499,-1.6369,-1.6104,-1.6161,-1.6434,-1.7198,-1.7616,-1.7949,-1.8428,-1.9122,-1.9535,-1.9675,-2.0521,-2.0943,-2.0804,-2.149,-2.1527,-2.0625,-2.1163,-2.1069,-2.0307,-2.1258,-2.1628,-2.1628,-2.1628,-2.1352,-2.1075,-2.1075,-2.0943,-2.0671,-2.0937,-2.1075,0.0,0.0,0.0,0.0,0.0,0.0,0.0,0.0,0.0,0.0,0.0,0.0,0.0,0.0,0.0,0.0,0.0,0.0,0.0,0.0,0.0,0.0,0.0,0.0,0.0,0.0,0.0,0.0,0.0,-0.4736,-0.4937,-0.5135,-0.5334,-0.5634,-0.5837,-0.6134,-0.6437,-0.6437,-0.6437,-0.6437,-0.6239,-0.6067,-0.5923,-0.733,-0.8584,-0.9772,-1.0619,-1.0988,-1.0988,-1.176,-1.1876,-1.1509,-1.1126,-1.0732,-1.045,-1.1382,-1.1813,-1.2287,-1.36,-1.4428,-1.5062,-1.5524,-1.4838,-1.3833,-1.4538,-1.3652,-1.2533,-1.3587,-1.3853,-1.4115,-1.4768,-1.5429,-1.5954,-1.5954,-1.6483,-1.7001,-1.7001,-1.7001,-1.7007,-1.6753,-1.6753,-1.6623,-1.6488,-1.6775,-1.7162,-1.7621,-1.7928,-1.8147,-1.8433,-1.8708,-1.8982,-1.8982,-1.968,-2.0051,-1.9933,-2.0604,-2.0755,-2.0215,-2.0472,-2.041,-1.9863,-2.0527,-2.1021,-2.1295,-2.1152,-2.1215,-2.149,-2.149,-2.1352,-2.0937,-2.1075,-2.1352,0.0,0.0,0.0,0.0,0.0,0.0,0.0,0.0,0.0,0.0,0.0,0.0,0.0,0.0,0.0,0.0,0.0,0.0,0.0,0.0,0.0,0.0,0.0,0.0,0.0,0.0,0.0,0.0,0.0,-0.4438,-0.4839,-0.4736,-0.4834,-0.5336,-0.5434,-0.5634,-0.6137,-0.6234,-0.6237,-0.6237,-0.6237,-0.6085,-0.5772,-0.6826,-0.7796,-0.8897,-0.9268,-0.9449,-0.9559,-0.9779,-1.0005,-1.0198,-0.977,-0.9703,-0.9891,-1.0138,-1.0369,-1.0553,-1.1734,-1.254,-1.334,-1.4007,-1.3616,-1.3104,-1.3696,-1.2686,-1.1615,-1.2274,-1.2405,-1.2533,-1.28,-1.3722,-1.4511,-1.4511,-1.5429,-1.6348,-1.6872,-1.7001,-1.6872,-1.6742,-1.6613,-1.6639,-1.6718,-1.7321,-1.7743,-1.7933,-1.8153,-1.8433,-1.8433,-1.8433,-1.8433,-1.8433,-1.8982,-1.9299,-1.9061,-1.971,-1.9981,-1.9542,-1.9524,-1.9633,-1.9453,-1.9453,-1.9717,-2.0533,-2.03,-2.0564,-2.1346,-2.1346,-2.1208,-2.0796,-2.0845,-2.1139,0.0,0.0,0.0,0.0,0.0,0.0,0.0,0.0,0.0,0.0,0.0,0.0,0.0,0.0,0.0,0.0,0.0,0.0,0.0,0.0,0.0,0.0,0.0,0.0,0.0,0.0,0.0,0.0,-0.3736,-0.3635,-0.3432,-0.3833,-0.4133,-0.4234,-0.4634,-0.4935,-0.5035,-0.5436,-0.5737,-0.5737,-0.5737,-0.5543,-0.5264,-0.5446,-0.5581,-0.5895,-0.7306,-0.8023,-0.8358,-0.957,-0.9861,-0.9449,-0.9122,-0.8473,-0.785,-0.8729,-0.9423,-1.0049,-1.1362,-1.2154,-1.254,-1.2515,-1.1341,-0.9951,-1.0626,-0.9498,-0.8584,-1.0435,-1.0965,-1.1226,-1.2537,-1.2927,-1.3062,-1.3062,-1.3189,-1.3979,-1.6478,-1.7001,-1.6613,-1.5434,-1.5168,-1.5288,-1.5659,-1.6861,-1.7879,-1.8223,-1.8433,-1.8433,-1.8433,-1.8433,-1.8433,-1.8433,-1.8433,-1.8481,-1.8248,-1.8902,-1.8834,-1.7846,-1.8336,-1.8365,-1.7364,-1.7358,-1.7865,-1.8771,-1.953,-1.9929,-1.9703,-1.9703,-1.9569,-1.9177,-1.9657,-1.9894,-0.4969,0.0,0.0,0.0,0.0,0.0,0.0,0.0,0.0,0.0,0.0,0.0,0.0,0.0,0.0,0.0,0.0,0.0,0.0,0.0,0.0,0.0,0.0,0.0,0.0,0.0,0.0,0.0,-0.4137,-0.4036,-0.3835,-0.3835,-0.3935,-0.4236,-0.4334,-0.4533,-0.4834,-0.5035,-0.5135,-0.5135,-0.5037,-0.4839,-0.4744,-0.4457,-0.4657,-0.5175,-0.5971,-0.6482,-0.6816,-0.7479,-0.7853,-0.8087,-0.7741,-0.7541,-0.7385,-0.7627,-0.7902,-0.822,-0.9169,-1.0072,-1.08,-1.1113,-1.039,-0.9704,-1.0159,-0.9188,-0.8058,-0.925,-0.9513,-0.9646,-1.03,-1.109,-1.1618,-1.1618,-1.2274,-1.3189,-1.4371,-1.4633,-1.4502,-1.3853,-1.3809,-1.397,-1.4244,-1.4932,-1.58,-1.6962,-1.7152,-1.7439,-1.8293,-1.8433,-1.8433,-1.8433,-1.832,-1.8148,-1.7906,-1.803,-1.7934,-1.719,-1.7424,-1.7505,-1.7007,-1.7001,-1.7179,-1.7679,-1.8582,-1.9314,-1.9729,-1.9729,-1.9539,-1.9275,-1.9521,-1.9787,0.0,0.0,0.0,0.0,0.0,0.0,0.0,0.0,0.0,0.0,0.0,0.0,0.0,0.0,0.0,0.0,0.0,0.0,0.0,0.0,0.0,0.0,0.0,0.0,0.0,0.0,0.0,0.0,-0.4537,-0.4338,-0.4338,-0.3935,-0.3836,-0.4138,-0.4036,-0.4033,-0.4433,-0.4533,-0.4636,-0.4736,-0.4537,-0.4338,-0.4239,-0.4008,-0.4292,-0.4906,-0.4947,-0.5135,-0.5599,-0.5487,-0.5919,-0.6657,-0.6686,-0.6812,-0.7225,-0.7133,-0.7143,-0.7173,-0.764,-0.8422,-0.9264,-0.966,-0.9618,-0.9359,-0.9618,-0.9039,-0.8192,-0.8456,-0.8587,-0.8587,-0.8587,-0.938,-1.0174,-1.0174,-1.0962,-1.1878,-1.2664,-1.2537,-1.2285,-1.2332,-1.2445,-1.2601,-1.2811,-1.3233,-1.3945,-1.5416,-1.5589,-1.6018,-1.7152,-1.758,-1.784,-1.7778,-1.7914,-1.797,-1.7658,-1.7475,-1.727,-1.7023,-1.7001,-1.7001,-1.7001,-1.7001,-1.7001,-1.7001,-1.7701,-1.8405,-1.9123,-1.9123,-1.9125,-1.9111,-1.9174,-1.9347,0.0,0.0,0.0,0.0,0.0,0.0,0.0,0.0,0.0,0.0,0.0,0.0,0.0,0.0,0.0,0.0,0.0,0.0,0.0,0.0,0.0,0.0,0.0,0.0,0.0,0.0,0.0,0.0,-0.4438,-0.4338,-0.4033,-0.4033,-0.3833,-0.3635,-0.3635,-0.3534,-0.3331,-0.3833,-0.4133,-0.4438,-0.4438,-0.4236,-0.4036,-0.4113,-0.4189,-0.4266,-0.3799,-0.4085,-0.4929,-0.4704,-0.4978,-0.5754,-0.6308,-0.665,-0.6882,-0.7588,-0.7872,-0.7907,-0.8149,-0.8231,-0.8263,-0.8239,-0.8182,-0.8182,-0.8182,-0.8187,-0.8192,-0.8456,-0.8587,-0.8587,-0.8587,-0.872,-0.872,-0.872,-0.872,-0.951,-1.227,-1.175,-1.0877,-1.1025,-1.1059,-1.1159,-1.1451,-1.2621,-1.3664,-1.3998,-1.4022,-1.4022,-1.4164,-1.5447,-1.622,-1.601,-1.7251,-1.7906,-1.7437,-1.7383,-1.727,-1.7023,-1.7001,-1.7001,-1.7001,-1.7001,-1.7001,-1.7001,-1.7017,-1.7158,-1.7168,-1.7168,-1.7299,-1.7554,-1.7771,-1.8009,0.0,0.0,0.0,0.0,0.0,0.0,0.0,0.0,0.0,0.0,0.0,0.0,0.0,0.0,0.0,0.0,0.0,0.0,0.0,0.0,0.0,0.0,0.0,0.0,0.0,0.0,0.0,0.0,0.0,-0.4636,-0.4535,-0.4336,-0.4135,-0.3835,-0.3736,-0.3534,-0.3433,-0.3432,-0.3633,-0.3836,-0.3734,-0.3531,-0.3533,-0.3352,-0.342,-0.3732,-0.3111,-0.3714,-0.4929,-0.4817,-0.5088,-0.5633,-0.6308,-0.6646,-0.6873,-0.7585,-0.7872,-0.7905,-0.8152,-0.8236,-0.8274,-0.8379,-0.8456,-0.8456,-0.8456,-0.8456,-0.8456,-0.8587,-0.8587,-0.8587,-0.8587,-0.8587,-0.8587,-0.8587,-0.8587,-0.8851,-0.9905,-0.9643,-0.9422,-0.9555,-0.965,-0.9628,-0.9944,-1.0463,-1.11,-1.2294,-1.2445,-1.2731,-1.3737,-1.4449,-1.466,-1.4462,-1.4747,-1.4978,-1.4709,-1.5365,-1.5783,-1.5699,-1.6478,-1.7001,-1.7001,-1.7001,-1.7001,-1.7001,-1.7001,-1.7001,-1.7001,-1.7163,-1.7367,-1.7604,-1.7846,-1.8089,0.0,0.0,0.0,0.0,0.0,0.0,0.0,0.0,0.0,0.0,0.0,0.0,0.0,0.0,0.0,0.0,0.0,0.0,0.0,0.0,0.0,0.0,0.0,0.0,0.0,0.0,0.0,0.0,0.0,0.0,-0.4834,-0.4636,-0.4437,-0.4135,-0.3835,-0.3736,-0.3736,-0.3533,-0.3533,-0.3736,-0.3433,-0.3332,-0.3332,-0.3029,-0.308,-0.3383,-0.2977,-0.3477,-0.4482,-0.4369,-0.4511,-0.5021,-0.5944,-0.6271,-0.6226,-0.7448,-0.7747,-0.7659,-0.8023,-0.8236,-0.8274,-0.8511,-0.8587,-0.8587,-0.8587,-0.8587,-0.8587,-0.8587,-0.8587,-0.8587,-0.8587,-0.8587,-0.8587,-0.8587,-0.8587,-0.8587,-0.8587,-0.8587,-0.8636,-0.8799,-0.8897,-0.9003,-0.9163,-0.9256,-0.9588,-1.0731,-1.0875,-1.1159,-1.2166,-1.2832,-1.3016,-1.2839,-1.3078,-1.3173,-1.3132,-1.3796,-1.4245,-1.4245,-1.5559,-1.6348,-1.6348,-1.6742,-1.7001,-1.7001,-1.7001,-1.7001,-1.7001,-1.7254,-1.7496,-1.7728,-1.7976,-1.8261,0.0,0.0,0.0,0.0,0.0,0.0,0.0,0.0,0.0,0.0,0.0,0.0,0.0,0.0,0.0,0.0,0.0,0.0,0.0,0.0,0.0,0.0,0.0,0.0,0.0,0.0,0.0,0.0,-0.4834,-0.4834,-0.4834,-0.4834,-0.4636,-0.4438,-0.4135,-0.4033,-0.4033,-0.4033,-0.4033,-0.4033,-0.3736,-0.3636,-0.3636,-0.3332,-0.3264,-0.3327,-0.3387,-0.3478,-0.3587,-0.325,-0.325,-0.3712,-0.5111,-0.5293,-0.4959,-0.7054,-0.738,-0.7042,-0.7896,-0.8108,-0.8146,-0.8511,-0.8587,-0.8587,-0.8587,-0.8587,-0.8587,-0.8587,-0.8587,-0.8587,-0.8587,-0.8587,-0.8587,-0.8587,-0.8587,-0.8587,-0.8587,-0.859,-0.8663,-0.8905,-0.8954,-0.903,-0.9264,-0.9304,-0.9304,-0.9304,-0.9304,-0.9304,-0.9304,-1.0479,-1.1321,-1.1023,-1.2236,-1.3007,-1.268,-1.2664,-1.2795,-1.2795,-1.4115,-1.4777,-1.4777,-1.6089,-1.6872,-1.7001,-1.7001,-1.7001,-1.7001,-1.7265,-1.7502,-1.7728,-1.7992,-1.8352,-0.3736,0.0,0.0,0.0,0.0,0.0,0.0,0.0,0.0,0.0,0.0,0.0,0.0,0.0,0.0,0.0,0.0,0.0,0.0,0.0,0.0,0.0,0.0,0.0,0.0,0.0,0.0,0.0,-0.4834,-0.4834,-0.4834,-0.4638,-0.4437,-0.4438,-0.4135,-0.4135,-0.4338,-0.4135,-0.4135,-0.4236,-0.3836,-0.3636,-0.3636,-0.3332,-0.3288,-0.3388,-0.3405,-0.3478,-0.3587,-0.3475,-0.3475,-0.3712,-0.4647,-0.4941,-0.4961,-0.6085,-0.6276,-0.6179,-0.6626,-0.6693,-0.6855,-0.758,-0.7781,-0.7915,-0.8454,-0.8587,-0.8587,-0.8587,-0.8587,-0.8587,-0.8587,-0.8587,-0.8587,-0.8587,-0.8587,-0.8587,-0.8587,-0.8658,-0.8766,-0.8921,-0.9024,-0.913,-0.9277,-0.9304,-0.9304,-0.9304,-0.9304,-0.9304,-0.9304,-0.9703,-0.974,-0.9524,-0.988,-1.0036,-0.9794,-1.0697,-1.1226,-1.1226,-1.2537,-1.3325,-1.3325,-1.3718,-1.4376,-1.5434,-1.5434,-1.5954,-1.7001,-1.7421,-1.7658,-1.7733,-1.832,-1.8659,0.0,0.0,0.0,0.0,0.0,0.0,0.0,-0.2426,0.0,0.0,0.0,0.0,0.0,0.0,0.0,0.0,0.0,0.0,0.0,0.0,0.0,0.0,0.0,0.0,0.0,-0.4834,-0.4834,-0.4834,-0.4834,-0.4834,-0.4834,-0.4636,-0.4537,-0.4537,-0.4435,-0.4435,-0.4537,-0.4435,-0.4435,-0.4537,-0.4137,-0.3937,-0.3937,-0.3633,-0.3487,-0.3479,-0.3505,-0.3571,-0.3552,-0.3576,-0.3587,-0.3712,-0.4417,-0.4591,-0.449,-0.5479,-0.5684,-0.5611,-0.6002,-0.6206,-0.6391,-0.6934,-0.6982,-0.7118,-0.7519,-0.7655,-0.7786,-0.8051,-0.832,-0.8587,-0.8587,-0.8587,-0.8587,-0.8587,-0.8587,-0.8587,-0.8587,-0.8682,-0.8807,-0.8927,-0.9049,-0.9171,-0.9283,-0.9304,-0.9304,-0.9304,-0.9304,-0.9304,-0.9304,-0.9264,-0.9182,-0.9044,-0.8938,-0.8818,-0.8677,-0.9416,-0.9779,-0.9779,-1.1094,-1.1882,-1.1882,-1.2533,-1.3193,-1.3984,-1.3984,-1.4814,-1.6226,-1.7172,-1.768,-1.7889,-1.8401,-1.8745,0.0,0.0,0.0,0.0,0.0,0.0,-0.2339,-0.2468,-0.2601,0.0,0.0,0.0,0.0,0.0,0.0,0.0,0.0,0.0,0.0,0.0,0.0,0.0,0.0,0.0,-0.4834,-0.4834,-0.4834,-0.4834,-0.4834,-0.4834,-0.4834,-0.4834,-0.4834,-0.4834,-0.4834,-0.4834,-0.4834,-0.4834,-0.4834,-0.4834,-0.4537,-0.4438,-0.4438,-0.4135,-0.3875,-0.3745,-0.3806,-0.3768,-0.3619,-0.3675,-0.3699,-0.3712,-0.4299,-0.4239,-0.3901,-0.5236,-0.534,-0.504,-0.5762,-0.5974,-0.6056,-0.6287,-0.6319,-0.6319,-0.6319,-0.6453,-0.6585,-0.725,-0.7917,-0.8454,-0.8454,-0.8587,-0.8587,-0.8587,-0.8587,-0.8587,-0.8587,-0.8682,-0.8807,-0.8927,-0.9049,-0.9171,-0.9283,-0.9304,-0.9304,-0.9304,-0.9304,-0.9304,-0.9304,-0.9217,-0.915,-0.9136,-0.894,-0.8799,-0.8774,-0.8671,-0.86,-0.859,-0.9779,-1.0439,-1.0439,-1.1618,-1.2405,-1.2537,-1.2664,-1.3545,-1.5077,-1.643,-1.7486,-1.8099,-1.8358,-1.8713,0.0,0.0,-0.2124,0.0,0.0,0.0,0.0,-0.2002,-0.2158,0.0,0.0,0.0,0.0,0.0,0.0,0.0,0.0,0.0,0.0,0.0,0.0,0.0,0.0,0.0,-0.4834,-0.4834,-0.4834,-0.4834,-0.4834,-0.4834,-0.4834,-0.4834,-0.4834,-0.4834,-0.4834,-0.4834,-0.4834,-0.4834,-0.4834,-0.4834,-0.4537,-0.4438,-0.4438,-0.4135,-0.4108,-0.4133,-0.4148,-0.4228,-0.4347,-0.4362,-0.4033,-0.36,-0.3837,-0.3886,-0.3783,-0.4147,-0.4203,-0.4107,-0.4471,-0.4519,-0.468,-0.5337,-0.5649,-0.5649,-0.6185,-0.6453,-0.6451,-0.6585,-0.7116,-0.7648,-0.7648,-0.8184,-0.8587,-0.8587,-0.8587,-0.8587,-0.8587,-0.8682,-0.8807,-0.8927,-0.9049,-0.9171,-0.9283,-0.9304,-0.9304,-0.9304,-0.9304,-0.9304,-0.9304,-0.9283,-0.9237,-0.9144,-0.9092,-0.8984,-0.8788,-0.8747,-0.8693,-0.8592,-0.8851,-0.8984,-0.8984,-0.9247,-0.9905,-1.1097,-1.2274,-1.3017,-1.347,-1.4948,-1.6525,-1.8105,-1.8519,-1.8875,0.0,0.0,-0.0854,-0.0921,0.0,0.0,0.0,0.0,0.0,0.0,0.0,0.0,0.0,0.0,0.0,0.0,0.0,0.0,0.0,0.0,0.0,0.0,0.0,0.0,-0.4771,-0.481,-0.4834,-0.4834,-0.4834,-0.4834,-0.4834,-0.4834,-0.4834,-0.4834,-0.4834,-0.4834,-0.4834,-0.4834,-0.4834,-0.4834,-0.4636,-0.4636,-0.4636,-0.4435,-0.4422,-0.4471,-0.4471,-0.4451,-0.448,-0.448,-0.439,-0.4095,-0.4199,-0.426,-0.4301,-0.4404,-0.4484,-0.4551,-0.4617,-0.4553,-0.4488,-0.4953,-0.4977,-0.4978,-0.5247,-0.5649,-0.5917,-0.5917,-0.6451,-0.6985,-0.6985,-0.7517,-0.8051,-0.8051,-0.8318,-0.8587,-0.8587,-0.8636,-0.8734,-0.8916,-0.9,-0.9101,-0.9275,-0.9304,-0.9304,-0.9304,-0.9304,-0.9304,-0.9304,-0.9304,-0.9283,-0.9226,-0.9169,-0.9084,-0.8962,-0.884,-0.8745,-0.8682,-0.8622,-0.8587,-0.8587,-0.8587,-0.8987,-0.9646,-1.03,-1.1168,-1.2,-1.2673,-1.4125,-1.5868,-1.6311,-1.7063,0.0,0.0,0.0,0.0,0.0,-0.1319,0.0,0.0,0.0,0.0,0.0,0.0,0.0,0.0,0.0,0.0,0.0,0.0,0.0,0.0,0.0,0.0,0.0,0.0,0.0,-0.4604,-0.4662,-0.4828,-0.4688,-0.468,-0.483,-0.4834,-0.4834,-0.4834,-0.4834,-0.4834,-0.4834,-0.4834,-0.4834,-0.4834,-0.4834,-0.4834,-0.4836,-0.4853,-0.4848,-0.4788,-0.4805,-0.4789,-0.4704,-0.4704,-0.4759,-0.4735,-0.4683,-0.4753,-0.4829,-0.4906,-0.5018,-0.5134,-0.5148,-0.5111,-0.4958,-0.497,-0.4708,-0.4575,-0.4575,-0.4844,-0.5245,-0.5245,-0.5781,-0.6185,-0.6185,-0.6717,-0.725,-0.725,-0.7784,-0.8187,-0.8318,-0.8454,-0.8523,-0.8764,-0.8951,-0.9027,-0.9264,-0.9304,-0.9304,-0.9304,-0.9304,-0.9304,-0.9304,-0.9304,-0.9304,-0.9304,-0.9223,-0.9158,-0.9136,-0.8954,-0.8821,-0.8774,-0.8677,-0.8611,-0.859,-0.8587,-0.8587,-0.8587,-0.8587,-0.918,-1.0528,-1.0554,-1.16,-1.3733,-1.3906,-1.491,0.0,0.0,0.0,0.0,-0.0147,0.0,0.0,0.0,0.0,0.0,0.0,0.0,0.0,0.0,0.0,0.0,0.0,0.0,0.0,0.0,0.0,0.0,0.0,0.0,0.0,-0.4129,-0.4309,-0.4812,-0.4518,-0.4393,-0.4822,-0.4834,-0.4834,-0.4834,-0.4834,-0.4834,-0.4834,-0.4834,-0.4834,-0.4834,-0.4834,-0.4834,-0.4839,-0.4918,-0.5012,-0.5006,-0.5086,-0.5176,-0.5268,-0.5268,-0.5364,-0.5395,-0.4938,-0.4753,-0.4829,-0.4906,-0.4984,-0.5063,-0.5131,-0.5209,-0.5291,-0.5359,-0.5247,-0.5247,-0.5247,-0.5111,-0.4841,-0.4841,-0.5243,-0.5515,-0.5515,-0.6049,-0.6585,-0.6585,-0.6585,-0.6853,-0.7514,-0.7648,-0.7848,-0.8764,-0.8951,-0.9027,-0.9264,-0.9304,-0.9304,-0.9304,-0.9304,-0.9304,-0.9304,-0.9304,-0.9304,-0.9304,-0.9294,-0.9242,-0.9144,-0.9109,-0.9003,-0.8785,-0.8758,-0.8701,-0.8592,-0.8587,-0.8587,-0.8587,-0.8587,-0.8781,-0.9041,-0.9153,-1.0728,-1.3733,-1.3906,-1.4322,0.0,0.0,0.0,0.0,0.0,0.0,0.0,0.0,-0.1233,0.0,0.0,0.0,0.0,0.0,0.0,0.0,0.0,0.0,0.0,0.0,0.0,0.0,0.0,0.0,0.0,0.0,0.0,0.0,-0.4244,-0.4246,-0.4749,-0.4808,-0.4834,-0.4834,-0.4834,-0.4834,-0.4834,-0.4834,-0.4834,-0.4834,-0.4834,-0.4834,-0.4839,-0.493,-0.5022,-0.5114,-0.5204,-0.5296,-0.5382,-0.5382,-0.5486,-0.5526,-0.5291,-0.5257,-0.55,-0.5414,-0.563,-0.5747,-0.5783,-0.5753,-0.5601,-0.5505,-0.5381,-0.5381,-0.5381,-0.5111,-0.4839,-0.4839,-0.4842,-0.471,-0.471,-0.5247,-0.5783,-0.5783,-0.6051,-0.6451,-0.6851,-0.6851,-0.7024,-0.7438,-0.7931,-0.8443,-0.8604,-0.8971,-0.9304,-0.9304,-0.9304,-0.9304,-0.9304,-0.9304,-0.9304,-0.9304,-0.9304,-0.9283,-0.9237,-0.9171,-0.906,-0.8886,-0.8742,-0.8641,-0.859,-0.8587,-0.8587,-0.8587,-0.8587,-0.8647,-0.8769,-0.8891,-0.9668,-1.1292,-1.1436,-1.2254,0.1302,0.0,0.0,0.0,0.0,0.0,0.0,0.0,0.0,0.0,0.0,0.0,0.0,0.0,0.0,0.0,0.0,0.0,0.0,0.0,0.0,0.0,0.0,0.0,0.0,0.0,0.0,0.0,0.0,-0.3952,-0.4694,-0.4767,-0.481,-0.4832,-0.4834,-0.4834,-0.4834,-0.4533,-0.4331,-0.4331,-0.4029,-0.414,-0.4468,-0.4553,-0.4742,-0.5149,-0.4912,-0.4985,-0.5384,-0.5067,-0.5161,-0.5645,-0.5671,-0.5778,-0.5916,-0.5916,-0.6029,-0.618,-0.618,-0.6037,-0.5912,-0.5647,-0.5515,-0.5381,-0.5381,-0.5245,-0.4975,-0.4841,-0.4574,-0.4441,-0.4308,-0.471,-0.5112,-0.5112,-0.5515,-0.5917,-0.6051,-0.6185,-0.6209,-0.6564,-0.7048,-0.7546,-0.779,-0.8632,-0.9304,-0.9304,-0.9304,-0.9304,-0.9304,-0.9304,-0.9304,-0.9304,-0.9304,-0.9304,-0.9304,-0.9228,-0.9128,-0.9008,-0.8804,-0.8674,-0.8638,-0.8638,-0.8622,-0.8587,-0.8587,-0.8647,-0.8769,-0.8891,-0.912,-0.944,-0.9595,-1.0399,0.0,0.0,0.0,0.2653,0.0,0.0,0.0,0.0,-0.0446,0.0,0.0,0.0,0.0,0.0,0.0,0.0,0.0,0.0,0.0,0.0,0.0,0.0,0.0,0.0,0.0,0.0,0.0,0.0,0.0,0.0,-0.4679,-0.471,-0.4751,-0.4832,-0.4834,-0.4834,-0.4834,-0.3726,-0.3224,-0.3224,-0.2217,-0.234,-0.3417,-0.348,-0.4188,-0.5136,-0.4107,-0.4364,-0.5276,-0.4216,-0.4516,-0.5651,-0.5741,-0.5835,-0.5916,-0.5916,-0.6029,-0.618,-0.618,-0.6037,-0.5912,-0.5912,-0.5647,-0.5381,-0.5381,-0.5381,-0.5245,-0.4975,-0.4839,-0.4707,-0.4441,-0.4308,-0.4308,-0.4308,-0.4308,-0.4577,-0.5247,-0.5381,-0.5671,-0.6427,-0.6582,-0.6752,-0.6846,-0.8152,-0.9304,-0.9304,-0.9304,-0.9304,-0.9304,-0.9304,-0.9304,-0.9304,-0.9304,-0.9304,-0.9304,-0.9302,-0.925,-0.9136,-0.9008,-0.8889,-0.8769,-0.8764,-0.8709,-0.859,-0.8587,-0.8647,-0.8769,-0.8891,-0.9076,-0.9315,-0.9557,-0.9794,0.0,0.0,0.3015,0.2917,0.0,0.0,0.0,0.0,0.0,0.0,0.0,0.0,0.0,0.0,0.0,0.0,0.0,0.0,0.0,0.0,0.0,0.0,0.0,0.0,0.0,0.0,0.0,0.0,-0.3379,0.0,0.0,-0.4643,-0.4424,-0.3657,-0.3703,-0.3425,-0.272,-0.2318,-0.2116,-0.2116,-0.1734,-0.1852,-0.2175,-0.2242,-0.2496,-0.284,-0.2556,-0.2687,-0.3027,-0.2508,-0.3244,-0.4475,-0.4429,-0.5106,-0.5925,-0.5986,-0.6082,-0.6196,-0.6319,-0.6402,-0.6317,-0.6317,-0.6185,-0.6185,-0.6185,-0.5915,-0.5646,-0.5245,-0.4975,-0.4707,-0.4441,-0.4308,-0.4308,-0.4308,-0.4308,-0.4307,-0.4575,-0.471,-0.4716,-0.5007,-0.559,-0.5906,-0.5933,-0.6867,-0.7656,-0.7656,-0.8142,-0.8474,-0.8474,-0.8968,-0.9157,-0.8577,-0.9013,-0.9013,-0.8577,-0.8947,-0.8889,-0.8424,-0.8739,-0.8932,-0.8891,-0.8891,-0.887,-0.8829,-0.8829,-0.8851,-0.8891,-0.9014,-0.9193,-0.943,-0.9593,-0.9753,0.3763,0.3942,0.0,0.3337,0.3444,0.0,0.2144,0.0,0.0,0.0,0.0,0.0,0.0,0.0,0.0,0.0,0.0,0.0,0.0,0.0,0.0,0.0,0.0,0.0,0.0,0.0,-0.2536,-0.3467,-0.3188,0.0,0.0,0.0,-0.3599,-0.2643,-0.2594,-0.2318,-0.1613,-0.121,-0.1011,-0.1018,-0.0618,-0.0626,-0.1056,-0.1081,-0.1314,-0.1763,-0.1337,-0.1349,-0.1697,-0.1265,-0.1987,-0.3205,-0.3136,-0.3675,-0.46,-0.5653,-0.6129,-0.6251,-0.64,-0.6453,-0.6317,-0.6317,-0.6185,-0.6051,-0.6051,-0.6049,-0.5778,-0.5513,-0.5243,-0.5109,-0.4844,-0.471,-0.471,-0.4574,-0.444,-0.4441,-0.4307,-0.4458,-0.4468,-0.4312,-0.4896,-0.5343,-0.5182,-0.5627,-0.6093,-0.6709,-0.736,-0.7709,-0.7709,-0.8083,-0.829,-0.7709,-0.8145,-0.829,-0.7709,-0.8086,-0.8193,-0.7621,-0.7986,-0.8213,-0.8173,-0.8454,-0.8576,-0.8531,-0.8812,-0.8973,-0.9016,-0.9095,-0.9256,-0.9489,-0.9612,-0.9729]}]]